<?xml version="1.0" encoding="UTF-8" standalone="no" ?>
<gpx xmlns="http://www.topografix.com/GPX/1/1" xmlns:xsi="http://www.w3.org/2001/XMLSchema-instance" xsi:schemaLocation="http://www.topografix.com/GPX/1/1 http://www.topografix.com/GPX/1/1/gpx.xsd" version="1.1" creator="VisuGPX - https://www.visugpx.com">
  <metadata>
    <name>Le Rouret - Courmettes - Bramafan - Gourdon</name>
    <desc><![CDATA[Sortie VTT solitaire (retour par la route de Pré-du-Lac en raison de l'heure tardive)]]></desc>
  </metadata>
  <trk>
    <name><![CDATA[Le Rouret - Courmettes - Gourdon 05/12/2009]]></name>
    <trkseg>
      <trkpt lat="43.68007" lon="7.01866">
        <ele>288.532959</ele>
        <time>2009-12-05T09:12:05Z</time>
      </trkpt>
      <trkpt lat="43.68006" lon="7.01866">
        <ele>288.532959</ele>
        <time>2009-12-05T09:12:06Z</time>
      </trkpt>
      <trkpt lat="43.6801" lon="7.01864">
        <ele>287.5714111</ele>
        <time>2009-12-05T09:12:36Z</time>
      </trkpt>
      <trkpt lat="43.68008" lon="7.01868">
        <ele>287.5714111</ele>
        <time>2009-12-05T09:13:01Z</time>
      </trkpt>
      <trkpt lat="43.68018" lon="7.01893">
        <ele>286.6102295</ele>
        <time>2009-12-05T09:13:28Z</time>
      </trkpt>
      <trkpt lat="43.67992" lon="7.01901">
        <ele>283.7261963</ele>
        <time>2009-12-05T09:13:34Z</time>
      </trkpt>
      <trkpt lat="43.67987" lon="7.01903">
        <ele>282.7650146</ele>
        <time>2009-12-05T09:13:35Z</time>
      </trkpt>
      <trkpt lat="43.67971" lon="7.0191">
        <ele>280.3616943</ele>
        <time>2009-12-05T09:13:38Z</time>
      </trkpt>
      <trkpt lat="43.67961" lon="7.01912">
        <ele>278.9196777</ele>
        <time>2009-12-05T09:13:41Z</time>
      </trkpt>
      <trkpt lat="43.67936" lon="7.01902">
        <ele>277.4776611</ele>
        <time>2009-12-05T09:13:47Z</time>
      </trkpt>
      <trkpt lat="43.6793" lon="7.01905">
        <ele>276.5163574</ele>
        <time>2009-12-05T09:13:48Z</time>
      </trkpt>
      <trkpt lat="43.6791" lon="7.01923">
        <ele>274.1130371</ele>
        <time>2009-12-05T09:13:52Z</time>
      </trkpt>
      <trkpt lat="43.67901" lon="7.01935">
        <ele>271.229126</ele>
        <time>2009-12-05T09:13:55Z</time>
      </trkpt>
      <trkpt lat="43.6789" lon="7.01938">
        <ele>270.2677002</ele>
        <time>2009-12-05T09:13:59Z</time>
      </trkpt>
      <trkpt lat="43.67867" lon="7.01887">
        <ele>272.6711426</ele>
        <time>2009-12-05T09:14:11Z</time>
      </trkpt>
      <trkpt lat="43.67857" lon="7.01865">
        <ele>272.6711426</ele>
        <time>2009-12-05T09:14:15Z</time>
      </trkpt>
      <trkpt lat="43.67849" lon="7.01844">
        <ele>273.6324463</ele>
        <time>2009-12-05T09:14:19Z</time>
      </trkpt>
      <trkpt lat="43.67845" lon="7.01834">
        <ele>274.1130371</ele>
        <time>2009-12-05T09:14:21Z</time>
      </trkpt>
      <trkpt lat="43.67827" lon="7.01745">
        <ele>276.0356445</ele>
        <time>2009-12-05T09:14:35Z</time>
      </trkpt>
      <trkpt lat="43.67821" lon="7.01688">
        <ele>277.4776611</ele>
        <time>2009-12-05T09:14:44Z</time>
      </trkpt>
      <trkpt lat="43.67827" lon="7.01648">
        <ele>278.9196777</ele>
        <time>2009-12-05T09:14:50Z</time>
      </trkpt>
      <trkpt lat="43.67831" lon="7.01615">
        <ele>279.4002686</ele>
        <time>2009-12-05T09:14:56Z</time>
      </trkpt>
      <trkpt lat="43.67831" lon="7.01594">
        <ele>279.4002686</ele>
        <time>2009-12-05T09:15:00Z</time>
      </trkpt>
      <trkpt lat="43.67827" lon="7.01514">
        <ele>282.7650146</ele>
        <time>2009-12-05T09:15:14Z</time>
      </trkpt>
      <trkpt lat="43.6781" lon="7.01497">
        <ele>282.7650146</ele>
        <time>2009-12-05T09:15:18Z</time>
      </trkpt>
      <trkpt lat="43.67792" lon="7.01475">
        <ele>281.8035889</ele>
        <time>2009-12-05T09:15:23Z</time>
      </trkpt>
      <trkpt lat="43.67778" lon="7.01465">
        <ele>281.322998</ele>
        <time>2009-12-05T09:15:26Z</time>
      </trkpt>
      <trkpt lat="43.67771" lon="7.01434">
        <ele>281.8035889</ele>
        <time>2009-12-05T09:15:31Z</time>
      </trkpt>
      <trkpt lat="43.6777" lon="7.01425">
        <ele>281.8035889</ele>
        <time>2009-12-05T09:15:33Z</time>
      </trkpt>
      <trkpt lat="43.67765" lon="7.0137">
        <ele>282.7650146</ele>
        <time>2009-12-05T09:15:43Z</time>
      </trkpt>
      <trkpt lat="43.67765" lon="7.01352">
        <ele>283.7261963</ele>
        <time>2009-12-05T09:15:46Z</time>
      </trkpt>
      <trkpt lat="43.67763" lon="7.01289">
        <ele>285.6488037</ele>
        <time>2009-12-05T09:15:56Z</time>
      </trkpt>
      <trkpt lat="43.67762" lon="7.01278">
        <ele>285.6488037</ele>
        <time>2009-12-05T09:15:58Z</time>
      </trkpt>
      <trkpt lat="43.67759" lon="7.01235">
        <ele>286.6102295</ele>
        <time>2009-12-05T09:16:05Z</time>
      </trkpt>
      <trkpt lat="43.6776" lon="7.01216">
        <ele>286.6102295</ele>
        <time>2009-12-05T09:16:09Z</time>
      </trkpt>
      <trkpt lat="43.67749" lon="7.01171">
        <ele>288.0522461</ele>
        <time>2009-12-05T09:16:18Z</time>
      </trkpt>
      <trkpt lat="43.67732" lon="7.01143">
        <ele>290.9361572</ele>
        <time>2009-12-05T09:16:28Z</time>
      </trkpt>
      <trkpt lat="43.67727" lon="7.01131">
        <ele>292.8587646</ele>
        <time>2009-12-05T09:16:33Z</time>
      </trkpt>
      <trkpt lat="43.67726" lon="7.01129">
        <ele>294.7813721</ele>
        <time>2009-12-05T09:16:39Z</time>
      </trkpt>
      <trkpt lat="43.67726" lon="7.01129">
        <ele>296.2235107</ele>
        <time>2009-12-05T09:16:42Z</time>
      </trkpt>
      <trkpt lat="43.67729" lon="7.01089">
        <ele>298.1461182</ele>
        <time>2009-12-05T09:16:47Z</time>
      </trkpt>
      <trkpt lat="43.67731" lon="7.01067">
        <ele>301.5106201</ele>
        <time>2009-12-05T09:16:56Z</time>
      </trkpt>
      <trkpt lat="43.6773" lon="7.0106">
        <ele>301.5106201</ele>
        <time>2009-12-05T09:16:57Z</time>
      </trkpt>
      <trkpt lat="43.67726" lon="7.01032">
        <ele>304.8752441</ele>
        <time>2009-12-05T09:17:06Z</time>
      </trkpt>
      <trkpt lat="43.67717" lon="7.0101">
        <ele>307.7592773</ele>
        <time>2009-12-05T09:17:15Z</time>
      </trkpt>
      <trkpt lat="43.67715" lon="7.01004">
        <ele>308.720459</ele>
        <time>2009-12-05T09:17:17Z</time>
      </trkpt>
      <trkpt lat="43.67698" lon="7.0096">
        <ele>310.6430664</ele>
        <time>2009-12-05T09:17:30Z</time>
      </trkpt>
      <trkpt lat="43.67694" lon="7.00951">
        <ele>312.0852051</ele>
        <time>2009-12-05T09:17:40Z</time>
      </trkpt>
      <trkpt lat="43.67657" lon="7.00916">
        <ele>314.4884033</ele>
        <time>2009-12-05T09:17:50Z</time>
      </trkpt>
      <trkpt lat="43.67618" lon="7.00875">
        <ele>316.4110107</ele>
        <time>2009-12-05T09:18:06Z</time>
      </trkpt>
      <trkpt lat="43.67595" lon="7.0084">
        <ele>317.8530273</ele>
        <time>2009-12-05T09:18:20Z</time>
      </trkpt>
      <trkpt lat="43.67595" lon="7.0084">
        <ele>317.8530273</ele>
        <time>2009-12-05T09:18:21Z</time>
      </trkpt>
      <trkpt lat="43.6761" lon="7.00814">
        <ele>318.8143311</ele>
        <time>2009-12-05T09:18:29Z</time>
      </trkpt>
      <trkpt lat="43.67611" lon="7.00812">
        <ele>319.7756348</ele>
        <time>2009-12-05T09:18:30Z</time>
      </trkpt>
      <trkpt lat="43.6763" lon="7.00768">
        <ele>323.1403809</ele>
        <time>2009-12-05T09:18:42Z</time>
      </trkpt>
      <trkpt lat="43.67633" lon="7.00762">
        <ele>324.1015625</ele>
        <time>2009-12-05T09:18:46Z</time>
      </trkpt>
      <trkpt lat="43.67648" lon="7.00751">
        <ele>326.9855957</ele>
        <time>2009-12-05T09:18:54Z</time>
      </trkpt>
      <trkpt lat="43.67651" lon="7.0075">
        <ele>327.4661865</ele>
        <time>2009-12-05T09:18:57Z</time>
      </trkpt>
      <trkpt lat="43.67657" lon="7.00747">
        <ele>328.4276123</ele>
        <time>2009-12-05T09:19:00Z</time>
      </trkpt>
      <trkpt lat="43.6768" lon="7.00709">
        <ele>331.7921143</ele>
        <time>2009-12-05T09:19:13Z</time>
      </trkpt>
      <trkpt lat="43.67696" lon="7.0067">
        <ele>334.6761475</ele>
        <time>2009-12-05T09:19:26Z</time>
      </trkpt>
      <trkpt lat="43.67707" lon="7.00644">
        <ele>338.0407715</ele>
        <time>2009-12-05T09:19:35Z</time>
      </trkpt>
      <trkpt lat="43.67707" lon="7.00644">
        <ele>338.5214844</ele>
        <time>2009-12-05T09:19:36Z</time>
      </trkpt>
      <trkpt lat="43.67687" lon="7.0063">
        <ele>340.9246826</ele>
        <time>2009-12-05T09:19:48Z</time>
      </trkpt>
      <trkpt lat="43.67685" lon="7.00629">
        <ele>340.9246826</ele>
        <time>2009-12-05T09:19:49Z</time>
      </trkpt>
      <trkpt lat="43.6769" lon="7.00598">
        <ele>343.8085938</ele>
        <time>2009-12-05T09:19:59Z</time>
      </trkpt>
      <trkpt lat="43.67713" lon="7.00572">
        <ele>347.1732178</ele>
        <time>2009-12-05T09:20:13Z</time>
      </trkpt>
      <trkpt lat="43.67715" lon="7.00571">
        <ele>347.1732178</ele>
        <time>2009-12-05T09:20:14Z</time>
      </trkpt>
      <trkpt lat="43.6773" lon="7.00546">
        <ele>350.057251</ele>
        <time>2009-12-05T09:20:25Z</time>
      </trkpt>
      <trkpt lat="43.67731" lon="7.00534">
        <ele>350.5378418</ele>
        <time>2009-12-05T09:20:29Z</time>
      </trkpt>
      <trkpt lat="43.67725" lon="7.00505">
        <ele>353.421875</ele>
        <time>2009-12-05T09:20:40Z</time>
      </trkpt>
      <trkpt lat="43.67745" lon="7.00485">
        <ele>355.8251953</ele>
        <time>2009-12-05T09:20:52Z</time>
      </trkpt>
      <trkpt lat="43.67747" lon="7.00483">
        <ele>356.3057861</ele>
        <time>2009-12-05T09:20:53Z</time>
      </trkpt>
      <trkpt lat="43.67753" lon="7.00437">
        <ele>357.7478027</ele>
        <time>2009-12-05T09:21:06Z</time>
      </trkpt>
      <trkpt lat="43.67749" lon="7.00387">
        <ele>360.151123</ele>
        <time>2009-12-05T09:21:20Z</time>
      </trkpt>
      <trkpt lat="43.67745" lon="7.00342">
        <ele>362.0737305</ele>
        <time>2009-12-05T09:21:31Z</time>
      </trkpt>
      <trkpt lat="43.67737" lon="7.00296">
        <ele>365.9189453</ele>
        <time>2009-12-05T09:21:44Z</time>
      </trkpt>
      <trkpt lat="43.67727" lon="7.00272">
        <ele>368.3222656</ele>
        <time>2009-12-05T09:21:53Z</time>
      </trkpt>
      <trkpt lat="43.67724" lon="7.00246">
        <ele>369.7642822</ele>
        <time>2009-12-05T09:22:01Z</time>
      </trkpt>
      <trkpt lat="43.67721" lon="7.00227">
        <ele>370.7255859</ele>
        <time>2009-12-05T09:22:06Z</time>
      </trkpt>
      <trkpt lat="43.67714" lon="7.00161">
        <ele>372.1674805</ele>
        <time>2009-12-05T09:22:21Z</time>
      </trkpt>
      <trkpt lat="43.67723" lon="7.00109">
        <ele>374.5708008</ele>
        <time>2009-12-05T09:22:32Z</time>
      </trkpt>
      <trkpt lat="43.67729" lon="7.00084">
        <ele>376.0128174</ele>
        <time>2009-12-05T09:22:40Z</time>
      </trkpt>
      <trkpt lat="43.67736" lon="7.00052">
        <ele>376.4935303</ele>
        <time>2009-12-05T09:22:46Z</time>
      </trkpt>
      <trkpt lat="43.67754" lon="7.00005">
        <ele>376.0128174</ele>
        <time>2009-12-05T09:22:53Z</time>
      </trkpt>
      <trkpt lat="43.67778" lon="6.99921">
        <ele>376.0128174</ele>
        <time>2009-12-05T09:23:04Z</time>
      </trkpt>
      <trkpt lat="43.67786" lon="6.99885">
        <ele>374.5708008</ele>
        <time>2009-12-05T09:23:10Z</time>
      </trkpt>
      <trkpt lat="43.67795" lon="6.99876">
        <ele>372.6481934</ele>
        <time>2009-12-05T09:23:18Z</time>
      </trkpt>
      <trkpt lat="43.67795" lon="6.99876">
        <ele>372.1674805</ele>
        <time>2009-12-05T09:23:19Z</time>
      </trkpt>
      <trkpt lat="43.67795" lon="6.99876">
        <ele>368.8029785</ele>
        <time>2009-12-05T09:23:25Z</time>
      </trkpt>
      <trkpt lat="43.67835" lon="6.99833">
        <ele>365.9189453</ele>
        <time>2009-12-05T09:23:33Z</time>
      </trkpt>
      <trkpt lat="43.67847" lon="6.99822">
        <ele>364.4769287</ele>
        <time>2009-12-05T09:23:39Z</time>
      </trkpt>
      <trkpt lat="43.67867" lon="6.99809">
        <ele>363.0350342</ele>
        <time>2009-12-05T09:23:47Z</time>
      </trkpt>
      <trkpt lat="43.67867" lon="6.99809">
        <ele>364.9576416</ele>
        <time>2009-12-05T09:24:03Z</time>
      </trkpt>
      <trkpt lat="43.67946" lon="6.99854">
        <ele>365.4383545</ele>
        <time>2009-12-05T09:24:13Z</time>
      </trkpt>
      <trkpt lat="43.67963" lon="6.99868">
        <ele>363.5157471</ele>
        <time>2009-12-05T09:24:18Z</time>
      </trkpt>
      <trkpt lat="43.67995" lon="6.99874">
        <ele>363.0350342</ele>
        <time>2009-12-05T09:24:29Z</time>
      </trkpt>
      <trkpt lat="43.68024" lon="6.99864">
        <ele>360.6317139</ele>
        <time>2009-12-05T09:24:39Z</time>
      </trkpt>
      <trkpt lat="43.68038" lon="6.99857">
        <ele>359.6704102</ele>
        <time>2009-12-05T09:24:42Z</time>
      </trkpt>
      <trkpt lat="43.68043" lon="6.99855">
        <ele>359.1896973</ele>
        <time>2009-12-05T09:24:43Z</time>
      </trkpt>
      <trkpt lat="43.68078" lon="6.99845">
        <ele>356.786377</ele>
        <time>2009-12-05T09:24:50Z</time>
      </trkpt>
      <trkpt lat="43.68087" lon="6.9984">
        <ele>355.8251953</ele>
        <time>2009-12-05T09:24:53Z</time>
      </trkpt>
      <trkpt lat="43.6814" lon="6.99821">
        <ele>352.4605713</ele>
        <time>2009-12-05T09:25:01Z</time>
      </trkpt>
      <trkpt lat="43.68116" lon="6.99868">
        <ele>352.4605713</ele>
        <time>2009-12-05T09:25:05Z</time>
      </trkpt>
      <trkpt lat="43.68106" lon="6.99893">
        <ele>351.0184326</ele>
        <time>2009-12-05T09:25:10Z</time>
      </trkpt>
      <trkpt lat="43.68089" lon="6.9994">
        <ele>349.0958252</ele>
        <time>2009-12-05T09:25:17Z</time>
      </trkpt>
      <trkpt lat="43.68082" lon="6.9996">
        <ele>348.6152344</ele>
        <time>2009-12-05T09:25:20Z</time>
      </trkpt>
      <trkpt lat="43.68068" lon="6.99997">
        <ele>349.0958252</ele>
        <time>2009-12-05T09:25:26Z</time>
      </trkpt>
      <trkpt lat="43.68033" lon="6.99999">
        <ele>349.0958252</ele>
        <time>2009-12-05T09:25:31Z</time>
      </trkpt>
      <trkpt lat="43.68036" lon="7.00061">
        <ele>352.9411621</ele>
        <time>2009-12-05T09:25:43Z</time>
      </trkpt>
      <trkpt lat="43.68021" lon="7.00092">
        <ele>356.786377</ele>
        <time>2009-12-05T09:25:54Z</time>
      </trkpt>
      <trkpt lat="43.68012" lon="7.0012">
        <ele>359.6704102</ele>
        <time>2009-12-05T09:26:04Z</time>
      </trkpt>
      <trkpt lat="43.67999" lon="7.00162">
        <ele>362.0737305</ele>
        <time>2009-12-05T09:26:16Z</time>
      </trkpt>
      <trkpt lat="43.67995" lon="7.00185">
        <ele>363.0350342</ele>
        <time>2009-12-05T09:26:21Z</time>
      </trkpt>
      <trkpt lat="43.68008" lon="7.00227">
        <ele>364.9576416</ele>
        <time>2009-12-05T09:26:32Z</time>
      </trkpt>
      <trkpt lat="43.6801" lon="7.0023">
        <ele>365.4383545</ele>
        <time>2009-12-05T09:26:33Z</time>
      </trkpt>
      <trkpt lat="43.6803" lon="7.0029">
        <ele>367.3609619</ele>
        <time>2009-12-05T09:26:45Z</time>
      </trkpt>
      <trkpt lat="43.68067" lon="7.00326">
        <ele>368.3222656</ele>
        <time>2009-12-05T09:26:58Z</time>
      </trkpt>
      <trkpt lat="43.68087" lon="7.00337">
        <ele>368.3222656</ele>
        <time>2009-12-05T09:27:03Z</time>
      </trkpt>
      <trkpt lat="43.68136" lon="7.00363">
        <ele>369.2836914</ele>
        <time>2009-12-05T09:27:16Z</time>
      </trkpt>
      <trkpt lat="43.68166" lon="7.00374">
        <ele>371.2062988</ele>
        <time>2009-12-05T09:27:27Z</time>
      </trkpt>
      <trkpt lat="43.68178" lon="7.00374">
        <ele>373.1289063</ele>
        <time>2009-12-05T09:27:38Z</time>
      </trkpt>
      <trkpt lat="43.68178" lon="7.00374">
        <ele>374.0900879</ele>
        <time>2009-12-05T09:28:05Z</time>
      </trkpt>
      <trkpt lat="43.68178" lon="7.00374">
        <ele>374.0900879</ele>
        <time>2009-12-05T09:28:09Z</time>
      </trkpt>
      <trkpt lat="43.68205" lon="7.00393">
        <ele>375.0515137</ele>
        <time>2009-12-05T09:28:27Z</time>
      </trkpt>
      <trkpt lat="43.68205" lon="7.00393">
        <ele>375.0515137</ele>
        <time>2009-12-05T09:28:35Z</time>
      </trkpt>
      <trkpt lat="43.68221" lon="7.00415">
        <ele>376.4935303</ele>
        <time>2009-12-05T09:28:50Z</time>
      </trkpt>
      <trkpt lat="43.68221" lon="7.00415">
        <ele>376.9742432</ele>
        <time>2009-12-05T09:29:07Z</time>
      </trkpt>
      <trkpt lat="43.68236" lon="7.00452">
        <ele>376.9742432</ele>
        <time>2009-12-05T09:29:20Z</time>
      </trkpt>
      <trkpt lat="43.6825" lon="7.00473">
        <ele>377.9354248</ele>
        <time>2009-12-05T09:29:31Z</time>
      </trkpt>
      <trkpt lat="43.68256" lon="7.00478">
        <ele>380.3387451</ele>
        <time>2009-12-05T09:29:47Z</time>
      </trkpt>
      <trkpt lat="43.68256" lon="7.00475">
        <ele>380.819458</ele>
        <time>2009-12-05T09:29:55Z</time>
      </trkpt>
      <trkpt lat="43.68279" lon="7.0044">
        <ele>382.7420654</ele>
        <time>2009-12-05T09:30:11Z</time>
      </trkpt>
      <trkpt lat="43.68291" lon="7.0041">
        <ele>383.2226563</ele>
        <time>2009-12-05T09:30:28Z</time>
      </trkpt>
      <trkpt lat="43.68299" lon="7.00382">
        <ele>384.184082</ele>
        <time>2009-12-05T09:30:42Z</time>
      </trkpt>
      <trkpt lat="43.68308" lon="7.00355">
        <ele>385.6259766</ele>
        <time>2009-12-05T09:30:57Z</time>
      </trkpt>
      <trkpt lat="43.68308" lon="7.00355">
        <ele>386.1066895</ele>
        <time>2009-12-05T09:31:11Z</time>
      </trkpt>
      <trkpt lat="43.68308" lon="7.00355">
        <ele>388.0292969</ele>
        <time>2009-12-05T09:31:36Z</time>
      </trkpt>
      <trkpt lat="43.68308" lon="7.00355">
        <ele>389.4711914</ele>
        <time>2009-12-05T09:31:50Z</time>
      </trkpt>
      <trkpt lat="43.68308" lon="7.00355">
        <ele>390.4326172</ele>
        <time>2009-12-05T09:32:09Z</time>
      </trkpt>
      <trkpt lat="43.68308" lon="7.00355">
        <ele>392.8359375</ele>
        <time>2009-12-05T09:32:35Z</time>
      </trkpt>
      <trkpt lat="43.68308" lon="7.00355">
        <ele>394.2779541</ele>
        <time>2009-12-05T09:33:03Z</time>
      </trkpt>
      <trkpt lat="43.68344" lon="7.0024">
        <ele>395.2391357</ele>
        <time>2009-12-05T09:33:14Z</time>
      </trkpt>
      <trkpt lat="43.68347" lon="7.00236">
        <ele>396.2005615</ele>
        <time>2009-12-05T09:33:34Z</time>
      </trkpt>
      <trkpt lat="43.68347" lon="7.00236">
        <ele>398.1231689</ele>
        <time>2009-12-05T09:34:02Z</time>
      </trkpt>
      <trkpt lat="43.68383" lon="7.00203">
        <ele>399.0843506</ele>
        <time>2009-12-05T09:34:20Z</time>
      </trkpt>
      <trkpt lat="43.68383" lon="7.00203">
        <ele>401.0070801</ele>
        <time>2009-12-05T09:34:53Z</time>
      </trkpt>
      <trkpt lat="43.68383" lon="7.00203">
        <ele>401.487793</ele>
        <time>2009-12-05T09:35:06Z</time>
      </trkpt>
      <trkpt lat="43.68383" lon="7.00203">
        <ele>402.4490967</ele>
        <time>2009-12-05T09:35:18Z</time>
      </trkpt>
      <trkpt lat="43.68383" lon="7.00203">
        <ele>403.8911133</ele>
        <time>2009-12-05T09:35:38Z</time>
      </trkpt>
      <trkpt lat="43.68383" lon="7.00203">
        <ele>404.8522949</ele>
        <time>2009-12-05T09:35:54Z</time>
      </trkpt>
      <trkpt lat="43.6846" lon="7.00238">
        <ele>405.8137207</ele>
        <time>2009-12-05T09:36:02Z</time>
      </trkpt>
      <trkpt lat="43.68485" lon="7.00253">
        <ele>407.7363281</ele>
        <time>2009-12-05T09:36:16Z</time>
      </trkpt>
      <trkpt lat="43.68513" lon="7.00264">
        <ele>408.6976318</ele>
        <time>2009-12-05T09:36:33Z</time>
      </trkpt>
      <trkpt lat="43.68516" lon="7.00265">
        <ele>409.1783447</ele>
        <time>2009-12-05T09:36:35Z</time>
      </trkpt>
      <trkpt lat="43.68522" lon="7.00267">
        <ele>409.6590576</ele>
        <time>2009-12-05T09:36:40Z</time>
      </trkpt>
      <trkpt lat="43.68528" lon="7.00269">
        <ele>410.1396484</ele>
        <time>2009-12-05T09:36:42Z</time>
      </trkpt>
      <trkpt lat="43.68539" lon="7.00274">
        <ele>411.581665</ele>
        <time>2009-12-05T09:36:59Z</time>
      </trkpt>
      <trkpt lat="43.68539" lon="7.00274">
        <ele>413.5042725</ele>
        <time>2009-12-05T09:37:25Z</time>
      </trkpt>
      <trkpt lat="43.68539" lon="7.00274">
        <ele>414.946167</ele>
        <time>2009-12-05T09:37:46Z</time>
      </trkpt>
      <trkpt lat="43.68539" lon="7.00274">
        <ele>415.4268799</ele>
        <time>2009-12-05T09:38:09Z</time>
      </trkpt>
      <trkpt lat="43.68539" lon="7.00274">
        <ele>416.3881836</ele>
        <time>2009-12-05T09:38:27Z</time>
      </trkpt>
      <trkpt lat="43.68624" lon="7.00307">
        <ele>418.310791</ele>
        <time>2009-12-05T09:38:40Z</time>
      </trkpt>
      <trkpt lat="43.68628" lon="7.00306">
        <ele>418.7915039</ele>
        <time>2009-12-05T09:38:42Z</time>
      </trkpt>
      <trkpt lat="43.68633" lon="7.00299">
        <ele>420.2333984</ele>
        <time>2009-12-05T09:38:46Z</time>
      </trkpt>
      <trkpt lat="43.68626" lon="7.00252">
        <ele>423.1174316</ele>
        <time>2009-12-05T09:38:58Z</time>
      </trkpt>
      <trkpt lat="43.68621" lon="7.00232">
        <ele>424.0787354</ele>
        <time>2009-12-05T09:39:03Z</time>
      </trkpt>
      <trkpt lat="43.68602" lon="7.00172">
        <ele>427.9239502</ele>
        <time>2009-12-05T09:39:18Z</time>
      </trkpt>
      <trkpt lat="43.68589" lon="7.00122">
        <ele>429.8465576</ele>
        <time>2009-12-05T09:39:32Z</time>
      </trkpt>
      <trkpt lat="43.68582" lon="7.00103">
        <ele>430.3272705</ele>
        <time>2009-12-05T09:39:37Z</time>
      </trkpt>
      <trkpt lat="43.68596" lon="7.00102">
        <ele>431.2885742</ele>
        <time>2009-12-05T09:39:43Z</time>
      </trkpt>
      <trkpt lat="43.68601" lon="7.00106">
        <ele>432.25</ele>
        <time>2009-12-05T09:39:45Z</time>
      </trkpt>
      <trkpt lat="43.68634" lon="7.00123">
        <ele>435.614502</ele>
        <time>2009-12-05T09:39:59Z</time>
      </trkpt>
      <trkpt lat="43.68639" lon="7.00126">
        <ele>435.614502</ele>
        <time>2009-12-05T09:40:01Z</time>
      </trkpt>
      <trkpt lat="43.68667" lon="7.00143">
        <ele>438.0178223</ele>
        <time>2009-12-05T09:40:13Z</time>
      </trkpt>
      <trkpt lat="43.68689" lon="7.00163">
        <ele>441.3824463</ele>
        <time>2009-12-05T09:40:24Z</time>
      </trkpt>
      <trkpt lat="43.6872" lon="7.002">
        <ele>443.7857666</ele>
        <time>2009-12-05T09:40:38Z</time>
      </trkpt>
      <trkpt lat="43.68726" lon="7.00207">
        <ele>444.7470703</ele>
        <time>2009-12-05T09:40:41Z</time>
      </trkpt>
      <trkpt lat="43.68747" lon="7.00233">
        <ele>447.1502686</ele>
        <time>2009-12-05T09:40:53Z</time>
      </trkpt>
      <trkpt lat="43.68773" lon="7.00265">
        <ele>450.0344238</ele>
        <time>2009-12-05T09:41:06Z</time>
      </trkpt>
      <trkpt lat="43.6879" lon="7.00278">
        <ele>452.4376221</ele>
        <time>2009-12-05T09:41:14Z</time>
      </trkpt>
      <trkpt lat="43.68794" lon="7.00264">
        <ele>455.3215332</ele>
        <time>2009-12-05T09:41:24Z</time>
      </trkpt>
      <trkpt lat="43.68791" lon="7.0025">
        <ele>456.7635498</ele>
        <time>2009-12-05T09:41:29Z</time>
      </trkpt>
      <trkpt lat="43.68789" lon="7.00203">
        <ele>459.647583</ele>
        <time>2009-12-05T09:41:44Z</time>
      </trkpt>
      <trkpt lat="43.68793" lon="7.00149">
        <ele>462.5313721</ele>
        <time>2009-12-05T09:41:59Z</time>
      </trkpt>
      <trkpt lat="43.68784" lon="7.00109">
        <ele>464.4541016</ele>
        <time>2009-12-05T09:42:10Z</time>
      </trkpt>
      <trkpt lat="43.68777" lon="7.00093">
        <ele>466.376709</ele>
        <time>2009-12-05T09:42:16Z</time>
      </trkpt>
      <trkpt lat="43.68764" lon="7.0006">
        <ele>469.2607422</ele>
        <time>2009-12-05T09:42:28Z</time>
      </trkpt>
      <trkpt lat="43.68749" lon="7.00023">
        <ele>472.6253662</ele>
        <time>2009-12-05T09:42:40Z</time>
      </trkpt>
      <trkpt lat="43.68736" lon="6.99973">
        <ele>474.5479736</ele>
        <time>2009-12-05T09:42:55Z</time>
      </trkpt>
      <trkpt lat="43.68717" lon="6.99925">
        <ele>477.4318848</ele>
        <time>2009-12-05T09:43:09Z</time>
      </trkpt>
      <trkpt lat="43.68717" lon="6.99918">
        <ele>477.9124756</ele>
        <time>2009-12-05T09:43:12Z</time>
      </trkpt>
      <trkpt lat="43.68713" lon="6.99916">
        <ele>477.9124756</ele>
        <time>2009-12-05T09:43:26Z</time>
      </trkpt>
      <trkpt lat="43.68714" lon="6.99918">
        <ele>477.9124756</ele>
        <time>2009-12-05T09:43:35Z</time>
      </trkpt>
      <trkpt lat="43.68719" lon="6.99925">
        <ele>477.4318848</ele>
        <time>2009-12-05T09:43:38Z</time>
      </trkpt>
      <trkpt lat="43.68719" lon="6.99948">
        <ele>476.4705811</ele>
        <time>2009-12-05T09:43:41Z</time>
      </trkpt>
      <trkpt lat="43.68722" lon="6.99955">
        <ele>475.9898682</ele>
        <time>2009-12-05T09:43:42Z</time>
      </trkpt>
      <trkpt lat="43.68736" lon="6.99983">
        <ele>475.0286865</ele>
        <time>2009-12-05T09:43:46Z</time>
      </trkpt>
      <trkpt lat="43.68747" lon="7.0001">
        <ele>474.0672607</ele>
        <time>2009-12-05T09:43:51Z</time>
      </trkpt>
      <trkpt lat="43.68762" lon="7.00055">
        <ele>472.1446533</ele>
        <time>2009-12-05T09:43:55Z</time>
      </trkpt>
      <trkpt lat="43.68766" lon="7.00066">
        <ele>471.1833496</ele>
        <time>2009-12-05T09:43:56Z</time>
      </trkpt>
      <trkpt lat="43.68774" lon="7.00085">
        <ele>469.2607422</ele>
        <time>2009-12-05T09:43:58Z</time>
      </trkpt>
      <trkpt lat="43.68786" lon="7.00114">
        <ele>466.8574219</ele>
        <time>2009-12-05T09:44:01Z</time>
      </trkpt>
      <trkpt lat="43.68793" lon="7.00168">
        <ele>465.8961182</ele>
        <time>2009-12-05T09:44:09Z</time>
      </trkpt>
      <trkpt lat="43.68791" lon="7.00182">
        <ele>467.8187256</ele>
        <time>2009-12-05T09:44:15Z</time>
      </trkpt>
      <trkpt lat="43.68791" lon="7.00191">
        <ele>467.8187256</ele>
        <time>2009-12-05T09:44:18Z</time>
      </trkpt>
      <trkpt lat="43.6879" lon="7.00199">
        <ele>467.8187256</ele>
        <time>2009-12-05T09:44:21Z</time>
      </trkpt>
      <trkpt lat="43.6879" lon="7.00239">
        <ele>463.9733887</ele>
        <time>2009-12-05T09:44:25Z</time>
      </trkpt>
      <trkpt lat="43.68791" lon="7.0025">
        <ele>462.5313721</ele>
        <time>2009-12-05T09:44:27Z</time>
      </trkpt>
      <trkpt lat="43.68795" lon="7.00271">
        <ele>458.6861572</ele>
        <time>2009-12-05T09:44:36Z</time>
      </trkpt>
      <trkpt lat="43.68795" lon="7.00271">
        <ele>457.2442627</ele>
        <time>2009-12-05T09:44:49Z</time>
      </trkpt>
      <trkpt lat="43.68854" lon="7.00268">
        <ele>457.2442627</ele>
        <time>2009-12-05T09:44:54Z</time>
      </trkpt>
      <trkpt lat="43.68866" lon="7.00262">
        <ele>457.2442627</ele>
        <time>2009-12-05T09:45:00Z</time>
      </trkpt>
      <trkpt lat="43.68877" lon="7.0027">
        <ele>454.3602295</ele>
        <time>2009-12-05T09:45:04Z</time>
      </trkpt>
      <trkpt lat="43.68879" lon="7.00272">
        <ele>453.8796387</ele>
        <time>2009-12-05T09:45:05Z</time>
      </trkpt>
      <trkpt lat="43.68891" lon="7.00287">
        <ele>450.9956055</ele>
        <time>2009-12-05T09:45:10Z</time>
      </trkpt>
      <trkpt lat="43.68892" lon="7.00291">
        <ele>450.5150146</ele>
        <time>2009-12-05T09:45:11Z</time>
      </trkpt>
      <trkpt lat="43.68892" lon="7.00298">
        <ele>449.072998</ele>
        <time>2009-12-05T09:45:13Z</time>
      </trkpt>
      <trkpt lat="43.68904" lon="7.00327">
        <ele>444.7470703</ele>
        <time>2009-12-05T09:45:19Z</time>
      </trkpt>
      <trkpt lat="43.68914" lon="7.00345">
        <ele>440.9018555</ele>
        <time>2009-12-05T09:45:23Z</time>
      </trkpt>
      <trkpt lat="43.68916" lon="7.00348">
        <ele>440.4212646</ele>
        <time>2009-12-05T09:45:24Z</time>
      </trkpt>
      <trkpt lat="43.6892" lon="7.00358">
        <ele>439.4597168</ele>
        <time>2009-12-05T09:45:26Z</time>
      </trkpt>
      <trkpt lat="43.68921" lon="7.00368">
        <ele>437.0565186</ele>
        <time>2009-12-05T09:45:29Z</time>
      </trkpt>
      <trkpt lat="43.68912" lon="7.00385">
        <ele>434.1726074</ele>
        <time>2009-12-05T09:45:33Z</time>
      </trkpt>
      <trkpt lat="43.68922" lon="7.00405">
        <ele>432.7307129</ele>
        <time>2009-12-05T09:45:38Z</time>
      </trkpt>
      <trkpt lat="43.6893" lon="7.00425">
        <ele>428.885376</ele>
        <time>2009-12-05T09:45:44Z</time>
      </trkpt>
      <trkpt lat="43.68938" lon="7.00449">
        <ele>427.4433594</ele>
        <time>2009-12-05T09:45:48Z</time>
      </trkpt>
      <trkpt lat="43.68939" lon="7.00451">
        <ele>427.4433594</ele>
        <time>2009-12-05T09:45:49Z</time>
      </trkpt>
      <trkpt lat="43.68943" lon="7.00451">
        <ele>426.9627686</ele>
        <time>2009-12-05T09:45:51Z</time>
      </trkpt>
      <trkpt lat="43.68975" lon="7.00477">
        <ele>423.5980225</ele>
        <time>2009-12-05T09:46:00Z</time>
      </trkpt>
      <trkpt lat="43.68981" lon="7.00502">
        <ele>420.2333984</ele>
        <time>2009-12-05T09:46:06Z</time>
      </trkpt>
      <trkpt lat="43.68977" lon="7.00511">
        <ele>419.7528076</ele>
        <time>2009-12-05T09:46:08Z</time>
      </trkpt>
      <trkpt lat="43.68987" lon="7.00539">
        <ele>418.7915039</ele>
        <time>2009-12-05T09:46:13Z</time>
      </trkpt>
      <trkpt lat="43.68975" lon="7.00568">
        <ele>419.7528076</ele>
        <time>2009-12-05T09:46:23Z</time>
      </trkpt>
      <trkpt lat="43.68967" lon="7.00578">
        <ele>419.2722168</ele>
        <time>2009-12-05T09:46:34Z</time>
      </trkpt>
      <trkpt lat="43.68913" lon="7.00598">
        <ele>415.4268799</ele>
        <time>2009-12-05T09:46:42Z</time>
      </trkpt>
      <trkpt lat="43.68887" lon="7.00618">
        <ele>413.5042725</ele>
        <time>2009-12-05T09:46:46Z</time>
      </trkpt>
      <trkpt lat="43.68874" lon="7.00628">
        <ele>413.0235596</ele>
        <time>2009-12-05T09:46:48Z</time>
      </trkpt>
      <trkpt lat="43.68851" lon="7.00652">
        <ele>410.1396484</ele>
        <time>2009-12-05T09:46:52Z</time>
      </trkpt>
      <trkpt lat="43.68818" lon="7.00684">
        <ele>408.217041</ele>
        <time>2009-12-05T09:46:57Z</time>
      </trkpt>
      <trkpt lat="43.68809" lon="7.00695">
        <ele>408.217041</ele>
        <time>2009-12-05T09:46:59Z</time>
      </trkpt>
      <trkpt lat="43.68796" lon="7.00717">
        <ele>408.217041</ele>
        <time>2009-12-05T09:47:02Z</time>
      </trkpt>
      <trkpt lat="43.68765" lon="7.00779">
        <ele>405.3330078</ele>
        <time>2009-12-05T09:47:13Z</time>
      </trkpt>
      <trkpt lat="43.68755" lon="7.00805">
        <ele>402.4490967</ele>
        <time>2009-12-05T09:47:19Z</time>
      </trkpt>
      <trkpt lat="43.68741" lon="7.00831">
        <ele>399.5650635</ele>
        <time>2009-12-05T09:47:25Z</time>
      </trkpt>
      <trkpt lat="43.68725" lon="7.00862">
        <ele>396.6811523</ele>
        <time>2009-12-05T09:47:32Z</time>
      </trkpt>
      <trkpt lat="43.68718" lon="7.00874">
        <ele>395.7198486</ele>
        <time>2009-12-05T09:47:34Z</time>
      </trkpt>
      <trkpt lat="43.68711" lon="7.00887">
        <ele>392.3553467</ele>
        <time>2009-12-05T09:47:41Z</time>
      </trkpt>
      <trkpt lat="43.68693" lon="7.00926">
        <ele>390.913208</ele>
        <time>2009-12-05T09:47:43Z</time>
      </trkpt>
      <trkpt lat="43.68684" lon="7.00947">
        <ele>388.9906006</ele>
        <time>2009-12-05T09:47:47Z</time>
      </trkpt>
      <trkpt lat="43.68672" lon="7.00979">
        <ele>387.0679932</ele>
        <time>2009-12-05T09:47:55Z</time>
      </trkpt>
      <trkpt lat="43.68665" lon="7.01002">
        <ele>385.1453857</ele>
        <time>2009-12-05T09:48:01Z</time>
      </trkpt>
      <trkpt lat="43.6864" lon="7.01065">
        <ele>382.7420654</ele>
        <time>2009-12-05T09:48:13Z</time>
      </trkpt>
      <trkpt lat="43.68637" lon="7.01074">
        <ele>381.7806396</ele>
        <time>2009-12-05T09:48:15Z</time>
      </trkpt>
      <trkpt lat="43.68626" lon="7.01105">
        <ele>379.8580322</ele>
        <time>2009-12-05T09:48:23Z</time>
      </trkpt>
      <trkpt lat="43.68625" lon="7.01106">
        <ele>378.4161377</ele>
        <time>2009-12-05T09:48:27Z</time>
      </trkpt>
      <trkpt lat="43.68625" lon="7.01106">
        <ele>377.9354248</ele>
        <time>2009-12-05T09:48:29Z</time>
      </trkpt>
      <trkpt lat="43.68661" lon="7.01152">
        <ele>373.6094971</ele>
        <time>2009-12-05T09:48:34Z</time>
      </trkpt>
      <trkpt lat="43.68671" lon="7.01171">
        <ele>370.7255859</ele>
        <time>2009-12-05T09:48:38Z</time>
      </trkpt>
      <trkpt lat="43.68675" lon="7.01181">
        <ele>367.8415527</ele>
        <time>2009-12-05T09:48:42Z</time>
      </trkpt>
      <trkpt lat="43.68677" lon="7.01187">
        <ele>365.9189453</ele>
        <time>2009-12-05T09:48:45Z</time>
      </trkpt>
      <trkpt lat="43.68678" lon="7.01191">
        <ele>364.9576416</ele>
        <time>2009-12-05T09:48:47Z</time>
      </trkpt>
      <trkpt lat="43.68679" lon="7.01194">
        <ele>362.5543213</ele>
        <time>2009-12-05T09:48:50Z</time>
      </trkpt>
      <trkpt lat="43.68679" lon="7.01194">
        <ele>359.6704102</ele>
        <time>2009-12-05T09:48:56Z</time>
      </trkpt>
      <trkpt lat="43.68698" lon="7.01223">
        <ele>356.3057861</ele>
        <time>2009-12-05T09:49:00Z</time>
      </trkpt>
      <trkpt lat="43.68706" lon="7.01234">
        <ele>352.9411621</ele>
        <time>2009-12-05T09:49:05Z</time>
      </trkpt>
      <trkpt lat="43.68714" lon="7.01246">
        <ele>350.057251</ele>
        <time>2009-12-05T09:49:09Z</time>
      </trkpt>
      <trkpt lat="43.68721" lon="7.01256">
        <ele>346.692627</ele>
        <time>2009-12-05T09:49:13Z</time>
      </trkpt>
      <trkpt lat="43.68727" lon="7.01266">
        <ele>343.3278809</ele>
        <time>2009-12-05T09:49:18Z</time>
      </trkpt>
      <trkpt lat="43.68727" lon="7.01266">
        <ele>342.3666992</ele>
        <time>2009-12-05T09:49:20Z</time>
      </trkpt>
      <trkpt lat="43.68726" lon="7.01264">
        <ele>342.3666992</ele>
        <time>2009-12-05T09:49:30Z</time>
      </trkpt>
      <trkpt lat="43.68739" lon="7.01274">
        <ele>342.84729</ele>
        <time>2009-12-05T09:49:32Z</time>
      </trkpt>
      <trkpt lat="43.68741" lon="7.01277">
        <ele>343.8085938</ele>
        <time>2009-12-05T09:49:35Z</time>
      </trkpt>
      <trkpt lat="43.68758" lon="7.01283">
        <ele>344.2894287</ele>
        <time>2009-12-05T09:49:37Z</time>
      </trkpt>
      <trkpt lat="43.68774" lon="7.01292">
        <ele>347.6539307</ele>
        <time>2009-12-05T09:49:45Z</time>
      </trkpt>
      <trkpt lat="43.68776" lon="7.01293">
        <ele>347.6539307</ele>
        <time>2009-12-05T09:49:46Z</time>
      </trkpt>
      <trkpt lat="43.6878" lon="7.01296">
        <ele>349.0958252</ele>
        <time>2009-12-05T09:49:50Z</time>
      </trkpt>
      <trkpt lat="43.6878" lon="7.01296">
        <ele>352.4605713</ele>
        <time>2009-12-05T09:49:59Z</time>
      </trkpt>
      <trkpt lat="43.6878" lon="7.01296">
        <ele>353.9025879</ele>
        <time>2009-12-05T09:50:02Z</time>
      </trkpt>
      <trkpt lat="43.68812" lon="7.01317">
        <ele>357.2670898</ele>
        <time>2009-12-05T09:50:14Z</time>
      </trkpt>
      <trkpt lat="43.68812" lon="7.01317">
        <ele>359.6704102</ele>
        <time>2009-12-05T09:50:29Z</time>
      </trkpt>
      <trkpt lat="43.68833" lon="7.0129">
        <ele>360.151123</ele>
        <time>2009-12-05T09:50:40Z</time>
      </trkpt>
      <trkpt lat="43.68856" lon="7.01246">
        <ele>359.6704102</ele>
        <time>2009-12-05T09:50:52Z</time>
      </trkpt>
      <trkpt lat="43.68859" lon="7.0124">
        <ele>359.6704102</ele>
        <time>2009-12-05T09:50:54Z</time>
      </trkpt>
      <trkpt lat="43.68859" lon="7.01236">
        <ele>360.151123</ele>
        <time>2009-12-05T09:50:57Z</time>
      </trkpt>
      <trkpt lat="43.68859" lon="7.01236">
        <ele>360.151123</ele>
        <time>2009-12-05T09:51:18Z</time>
      </trkpt>
      <trkpt lat="43.68859" lon="7.01236">
        <ele>360.6317139</ele>
        <time>2009-12-05T09:51:36Z</time>
      </trkpt>
      <trkpt lat="43.68859" lon="7.01236">
        <ele>360.151123</ele>
        <time>2009-12-05T09:52:01Z</time>
      </trkpt>
      <trkpt lat="43.68859" lon="7.01236">
        <ele>361.1124268</ele>
        <time>2009-12-05T09:52:23Z</time>
      </trkpt>
      <trkpt lat="43.68921" lon="7.0123">
        <ele>358.7089844</ele>
        <time>2009-12-05T09:52:32Z</time>
      </trkpt>
      <trkpt lat="43.6893" lon="7.01234">
        <ele>357.7478027</ele>
        <time>2009-12-05T09:52:34Z</time>
      </trkpt>
      <trkpt lat="43.68965" lon="7.01289">
        <ele>356.786377</ele>
        <time>2009-12-05T09:52:42Z</time>
      </trkpt>
      <trkpt lat="43.68999" lon="7.01328">
        <ele>357.2670898</ele>
        <time>2009-12-05T09:52:49Z</time>
      </trkpt>
      <trkpt lat="43.69015" lon="7.01345">
        <ele>355.3444824</ele>
        <time>2009-12-05T09:52:52Z</time>
      </trkpt>
      <trkpt lat="43.69048" lon="7.01376">
        <ele>352.9411621</ele>
        <time>2009-12-05T09:52:59Z</time>
      </trkpt>
      <trkpt lat="43.69048" lon="7.01376">
        <ele>351.4991455</ele>
        <time>2009-12-05T09:53:02Z</time>
      </trkpt>
      <trkpt lat="43.69048" lon="7.01376">
        <ele>351.0184326</ele>
        <time>2009-12-05T09:53:03Z</time>
      </trkpt>
      <trkpt lat="43.69077" lon="7.01451">
        <ele>348.1346436</ele>
        <time>2009-12-05T09:53:07Z</time>
      </trkpt>
      <trkpt lat="43.691" lon="7.01501">
        <ele>343.8085938</ele>
        <time>2009-12-05T09:53:12Z</time>
      </trkpt>
      <trkpt lat="43.6911" lon="7.01498">
        <ele>341.8859863</ele>
        <time>2009-12-05T09:53:16Z</time>
      </trkpt>
      <trkpt lat="43.6911" lon="7.01496">
        <ele>341.4052734</ele>
        <time>2009-12-05T09:53:33Z</time>
      </trkpt>
      <trkpt lat="43.6911" lon="7.01496">
        <ele>341.4052734</ele>
        <time>2009-12-05T09:53:36Z</time>
      </trkpt>
      <trkpt lat="43.69106" lon="7.01476">
        <ele>340.4440918</ele>
        <time>2009-12-05T09:53:40Z</time>
      </trkpt>
      <trkpt lat="43.69101" lon="7.01456">
        <ele>339.482666</ele>
        <time>2009-12-05T09:53:43Z</time>
      </trkpt>
      <trkpt lat="43.69098" lon="7.0142">
        <ele>336.1181641</ele>
        <time>2009-12-05T09:53:47Z</time>
      </trkpt>
      <trkpt lat="43.69099" lon="7.0139">
        <ele>332.75354</ele>
        <time>2009-12-05T09:53:50Z</time>
      </trkpt>
      <trkpt lat="43.69099" lon="7.01366">
        <ele>328.4276123</ele>
        <time>2009-12-05T09:53:53Z</time>
      </trkpt>
      <trkpt lat="43.69101" lon="7.01342">
        <ele>323.6209717</ele>
        <time>2009-12-05T09:53:56Z</time>
      </trkpt>
      <trkpt lat="43.69114" lon="7.0131">
        <ele>319.7756348</ele>
        <time>2009-12-05T09:53:59Z</time>
      </trkpt>
      <trkpt lat="43.69117" lon="7.01301">
        <ele>318.3336182</ele>
        <time>2009-12-05T09:54:00Z</time>
      </trkpt>
      <trkpt lat="43.69135" lon="7.0127">
        <ele>314.4884033</ele>
        <time>2009-12-05T09:54:03Z</time>
      </trkpt>
      <trkpt lat="43.6915" lon="7.01255">
        <ele>310.6430664</ele>
        <time>2009-12-05T09:54:05Z</time>
      </trkpt>
      <trkpt lat="43.69165" lon="7.0123">
        <ele>306.3172607</ele>
        <time>2009-12-05T09:54:08Z</time>
      </trkpt>
      <trkpt lat="43.69169" lon="7.01218">
        <ele>304.3946533</ele>
        <time>2009-12-05T09:54:09Z</time>
      </trkpt>
      <trkpt lat="43.69175" lon="7.01173">
        <ele>300.5493164</ele>
        <time>2009-12-05T09:54:12Z</time>
      </trkpt>
      <trkpt lat="43.69176" lon="7.01141">
        <ele>297.6654053</ele>
        <time>2009-12-05T09:54:14Z</time>
      </trkpt>
      <trkpt lat="43.69192" lon="7.01086">
        <ele>293.8200684</ele>
        <time>2009-12-05T09:54:18Z</time>
      </trkpt>
      <trkpt lat="43.69208" lon="7.01035">
        <ele>289.9748535</ele>
        <time>2009-12-05T09:54:22Z</time>
      </trkpt>
      <trkpt lat="43.69222" lon="7.0101">
        <ele>287.0908203</ele>
        <time>2009-12-05T09:54:25Z</time>
      </trkpt>
      <trkpt lat="43.69232" lon="7.00993">
        <ele>283.7261963</ele>
        <time>2009-12-05T09:54:28Z</time>
      </trkpt>
      <trkpt lat="43.69235" lon="7.00987">
        <ele>282.2843018</ele>
        <time>2009-12-05T09:54:37Z</time>
      </trkpt>
      <trkpt lat="43.69251" lon="7.00957">
        <ele>279.4002686</ele>
        <time>2009-12-05T09:54:52Z</time>
      </trkpt>
      <trkpt lat="43.69262" lon="7.00932">
        <ele>276.9970703</ele>
        <time>2009-12-05T09:54:56Z</time>
      </trkpt>
      <trkpt lat="43.69269" lon="7.00918">
        <ele>275.5550537</ele>
        <time>2009-12-05T09:55:00Z</time>
      </trkpt>
      <trkpt lat="43.69283" lon="7.00891">
        <ele>272.1904297</ele>
        <time>2009-12-05T09:55:05Z</time>
      </trkpt>
      <trkpt lat="43.69297" lon="7.00868">
        <ele>269.7871094</ele>
        <time>2009-12-05T09:55:09Z</time>
      </trkpt>
      <trkpt lat="43.69304" lon="7.00858">
        <ele>267.3839111</ele>
        <time>2009-12-05T09:55:13Z</time>
      </trkpt>
      <trkpt lat="43.69335" lon="7.0083">
        <ele>267.3839111</ele>
        <time>2009-12-05T09:55:28Z</time>
      </trkpt>
      <trkpt lat="43.69354" lon="7.00809">
        <ele>265.9418945</ele>
        <time>2009-12-05T09:55:37Z</time>
      </trkpt>
      <trkpt lat="43.69361" lon="7.00804">
        <ele>262.0965576</ele>
        <time>2009-12-05T09:55:43Z</time>
      </trkpt>
      <trkpt lat="43.69364" lon="7.00801">
        <ele>259.2126465</ele>
        <time>2009-12-05T09:55:48Z</time>
      </trkpt>
      <trkpt lat="43.69364" lon="7.00801">
        <ele>258.2513428</ele>
        <time>2009-12-05T09:55:50Z</time>
      </trkpt>
      <trkpt lat="43.69364" lon="7.00801">
        <ele>253.925415</ele>
        <time>2009-12-05T09:55:57Z</time>
      </trkpt>
      <trkpt lat="43.69364" lon="7.00801">
        <ele>253.4447021</ele>
        <time>2009-12-05T09:55:59Z</time>
      </trkpt>
      <trkpt lat="43.69364" lon="7.00801">
        <ele>251.5220947</ele>
        <time>2009-12-05T09:56:02Z</time>
      </trkpt>
      <trkpt lat="43.69364" lon="7.00801">
        <ele>250.560791</ele>
        <time>2009-12-05T09:56:05Z</time>
      </trkpt>
      <trkpt lat="43.69364" lon="7.00801">
        <ele>247.1960449</ele>
        <time>2009-12-05T09:56:10Z</time>
      </trkpt>
      <trkpt lat="43.69364" lon="7.00801">
        <ele>246.2348633</ele>
        <time>2009-12-05T09:56:12Z</time>
      </trkpt>
      <trkpt lat="43.69411" lon="7.00781">
        <ele>243.831543</ele>
        <time>2009-12-05T09:56:26Z</time>
      </trkpt>
      <trkpt lat="43.6943" lon="7.00777">
        <ele>240.467041</ele>
        <time>2009-12-05T09:56:32Z</time>
      </trkpt>
      <trkpt lat="43.6944" lon="7.00776">
        <ele>237.1022949</ele>
        <time>2009-12-05T09:56:36Z</time>
      </trkpt>
      <trkpt lat="43.69442" lon="7.00776">
        <ele>235.6602783</ele>
        <time>2009-12-05T09:56:37Z</time>
      </trkpt>
      <trkpt lat="43.69444" lon="7.00775">
        <ele>234.2183838</ele>
        <time>2009-12-05T09:56:40Z</time>
      </trkpt>
      <trkpt lat="43.69444" lon="7.00775">
        <ele>233.7376709</ele>
        <time>2009-12-05T09:56:41Z</time>
      </trkpt>
      <trkpt lat="43.69462" lon="7.00773">
        <ele>228.9311523</ele>
        <time>2009-12-05T09:56:47Z</time>
      </trkpt>
      <trkpt lat="43.69478" lon="7.0077">
        <ele>225.5665283</ele>
        <time>2009-12-05T09:56:51Z</time>
      </trkpt>
      <trkpt lat="43.69486" lon="7.00769">
        <ele>222.2017822</ele>
        <time>2009-12-05T09:56:54Z</time>
      </trkpt>
      <trkpt lat="43.69508" lon="7.0074">
        <ele>218.8372803</ele>
        <time>2009-12-05T09:56:56Z</time>
      </trkpt>
      <trkpt lat="43.69516" lon="7.00719">
        <ele>215.4726563</ele>
        <time>2009-12-05T09:56:58Z</time>
      </trkpt>
      <trkpt lat="43.69522" lon="7.00697">
        <ele>212.588623</ele>
        <time>2009-12-05T09:57:00Z</time>
      </trkpt>
      <trkpt lat="43.69531" lon="7.00673">
        <ele>208.2628174</ele>
        <time>2009-12-05T09:57:03Z</time>
      </trkpt>
      <trkpt lat="43.69546" lon="7.00639">
        <ele>203.4561768</ele>
        <time>2009-12-05T09:57:06Z</time>
      </trkpt>
      <trkpt lat="43.69561" lon="7.00607">
        <ele>198.6495361</ele>
        <time>2009-12-05T09:57:09Z</time>
      </trkpt>
      <trkpt lat="43.69577" lon="7.00577">
        <ele>194.8043213</ele>
        <time>2009-12-05T09:57:12Z</time>
      </trkpt>
      <trkpt lat="43.69592" lon="7.00546">
        <ele>190.9589844</ele>
        <time>2009-12-05T09:57:15Z</time>
      </trkpt>
      <trkpt lat="43.69606" lon="7.00518">
        <ele>187.5943604</ele>
        <time>2009-12-05T09:57:18Z</time>
      </trkpt>
      <trkpt lat="43.69618" lon="7.00498">
        <ele>184.2298584</ele>
        <time>2009-12-05T09:57:20Z</time>
      </trkpt>
      <trkpt lat="43.69629" lon="7.00476">
        <ele>180.8652344</ele>
        <time>2009-12-05T09:57:23Z</time>
      </trkpt>
      <trkpt lat="43.69634" lon="7.00465">
        <ele>177.0200195</ele>
        <time>2009-12-05T09:57:25Z</time>
      </trkpt>
      <trkpt lat="43.69643" lon="7.00445">
        <ele>173.6552734</ele>
        <time>2009-12-05T09:57:28Z</time>
      </trkpt>
      <trkpt lat="43.6966" lon="7.00408">
        <ele>169.8100586</ele>
        <time>2009-12-05T09:57:32Z</time>
      </trkpt>
      <trkpt lat="43.69676" lon="7.00373">
        <ele>165.4841309</ele>
        <time>2009-12-05T09:57:36Z</time>
      </trkpt>
      <trkpt lat="43.69686" lon="7.00348">
        <ele>162.1195068</ele>
        <time>2009-12-05T09:57:39Z</time>
      </trkpt>
      <trkpt lat="43.69697" lon="7.00322">
        <ele>158.2741699</ele>
        <time>2009-12-05T09:57:42Z</time>
      </trkpt>
      <trkpt lat="43.69712" lon="7.00289">
        <ele>153.9483643</ele>
        <time>2009-12-05T09:57:46Z</time>
      </trkpt>
      <trkpt lat="43.69728" lon="7.00257">
        <ele>150.1030273</ele>
        <time>2009-12-05T09:57:49Z</time>
      </trkpt>
      <trkpt lat="43.69738" lon="7.00236">
        <ele>146.7384033</ele>
        <time>2009-12-05T09:57:51Z</time>
      </trkpt>
      <trkpt lat="43.69748" lon="7.00212">
        <ele>145.2963867</ele>
        <time>2009-12-05T09:57:53Z</time>
      </trkpt>
      <trkpt lat="43.69762" lon="7.00158">
        <ele>140.970459</ele>
        <time>2009-12-05T09:57:59Z</time>
      </trkpt>
      <trkpt lat="43.69764" lon="7.0015">
        <ele>140.0091553</ele>
        <time>2009-12-05T09:58:09Z</time>
      </trkpt>
      <trkpt lat="43.69764" lon="7.0015">
        <ele>139.5284424</ele>
        <time>2009-12-05T09:59:29Z</time>
      </trkpt>
      <trkpt lat="43.69771" lon="7.00109">
        <ele>139.5284424</ele>
        <time>2009-12-05T09:59:40Z</time>
      </trkpt>
      <trkpt lat="43.69781" lon="7.00044">
        <ele>140.0091553</ele>
        <time>2009-12-05T09:59:50Z</time>
      </trkpt>
      <trkpt lat="43.69778" lon="7.00015">
        <ele>140.970459</ele>
        <time>2009-12-05T09:59:55Z</time>
      </trkpt>
      <trkpt lat="43.69772" lon="6.99981">
        <ele>142.4124756</ele>
        <time>2009-12-05T10:00:02Z</time>
      </trkpt>
      <trkpt lat="43.69771" lon="6.99975">
        <ele>142.8930664</ele>
        <time>2009-12-05T10:00:03Z</time>
      </trkpt>
      <trkpt lat="43.69767" lon="6.9996">
        <ele>142.4124756</ele>
        <time>2009-12-05T10:00:05Z</time>
      </trkpt>
      <trkpt lat="43.69747" lon="6.99933">
        <ele>144.8157959</ele>
        <time>2009-12-05T10:00:12Z</time>
      </trkpt>
      <trkpt lat="43.6974" lon="6.99926">
        <ele>145.7770996</ele>
        <time>2009-12-05T10:00:14Z</time>
      </trkpt>
      <trkpt lat="43.69732" lon="6.9991">
        <ele>148.6610107</ele>
        <time>2009-12-05T10:00:22Z</time>
      </trkpt>
      <trkpt lat="43.69744" lon="6.99882">
        <ele>149.6223145</ele>
        <time>2009-12-05T10:00:30Z</time>
      </trkpt>
      <trkpt lat="43.69772" lon="6.99896">
        <ele>146.7384033</ele>
        <time>2009-12-05T10:00:36Z</time>
      </trkpt>
      <trkpt lat="43.69799" lon="6.9991">
        <ele>145.2963867</ele>
        <time>2009-12-05T10:00:39Z</time>
      </trkpt>
      <trkpt lat="43.69827" lon="6.9992">
        <ele>142.8930664</ele>
        <time>2009-12-05T10:00:42Z</time>
      </trkpt>
      <trkpt lat="43.69842" lon="6.99924">
        <ele>141.9317627</ele>
        <time>2009-12-05T10:00:44Z</time>
      </trkpt>
      <trkpt lat="43.69857" lon="6.99923">
        <ele>141.9317627</ele>
        <time>2009-12-05T10:00:46Z</time>
      </trkpt>
      <trkpt lat="43.6992" lon="6.99895">
        <ele>141.4510498</ele>
        <time>2009-12-05T10:00:57Z</time>
      </trkpt>
      <trkpt lat="43.69952" lon="6.99888">
        <ele>141.9317627</ele>
        <time>2009-12-05T10:01:02Z</time>
      </trkpt>
      <trkpt lat="43.69973" lon="6.9989">
        <ele>141.9317627</ele>
        <time>2009-12-05T10:01:06Z</time>
      </trkpt>
      <trkpt lat="43.70003" lon="6.99904">
        <ele>142.4124756</ele>
        <time>2009-12-05T10:01:11Z</time>
      </trkpt>
      <trkpt lat="43.7003" lon="6.99917">
        <ele>142.4124756</ele>
        <time>2009-12-05T10:01:16Z</time>
      </trkpt>
      <trkpt lat="43.70046" lon="6.99915">
        <ele>142.8930664</ele>
        <time>2009-12-05T10:01:19Z</time>
      </trkpt>
      <trkpt lat="43.70123" lon="6.99887">
        <ele>142.4124756</ele>
        <time>2009-12-05T10:01:31Z</time>
      </trkpt>
      <trkpt lat="43.70166" lon="6.99876">
        <ele>143.3736572</ele>
        <time>2009-12-05T10:01:38Z</time>
      </trkpt>
      <trkpt lat="43.70194" lon="6.99864">
        <ele>143.8543701</ele>
        <time>2009-12-05T10:01:42Z</time>
      </trkpt>
      <trkpt lat="43.70215" lon="6.99847">
        <ele>143.8543701</ele>
        <time>2009-12-05T10:01:46Z</time>
      </trkpt>
      <trkpt lat="43.70248" lon="6.99829">
        <ele>144.8157959</ele>
        <time>2009-12-05T10:01:53Z</time>
      </trkpt>
      <trkpt lat="43.70259" lon="6.99846">
        <ele>145.7770996</ele>
        <time>2009-12-05T10:01:57Z</time>
      </trkpt>
      <trkpt lat="43.70309" lon="6.99918">
        <ele>142.4124756</ele>
        <time>2009-12-05T10:02:07Z</time>
      </trkpt>
      <trkpt lat="43.70327" lon="6.99928">
        <ele>140.0091553</ele>
        <time>2009-12-05T10:02:11Z</time>
      </trkpt>
      <trkpt lat="43.70329" lon="6.99932">
        <ele>139.5284424</ele>
        <time>2009-12-05T10:02:13Z</time>
      </trkpt>
      <trkpt lat="43.70329" lon="6.99949">
        <ele>139.0478516</ele>
        <time>2009-12-05T10:02:15Z</time>
      </trkpt>
      <trkpt lat="43.70327" lon="6.99963">
        <ele>139.0478516</ele>
        <time>2009-12-05T10:02:17Z</time>
      </trkpt>
      <trkpt lat="43.70372" lon="7.00014">
        <ele>140.0091553</ele>
        <time>2009-12-05T10:02:29Z</time>
      </trkpt>
      <trkpt lat="43.70375" lon="7.00015">
        <ele>140.4898682</ele>
        <time>2009-12-05T10:02:30Z</time>
      </trkpt>
      <trkpt lat="43.70397" lon="7.00022">
        <ele>143.3736572</ele>
        <time>2009-12-05T10:02:40Z</time>
      </trkpt>
      <trkpt lat="43.70425" lon="7.00029">
        <ele>146.7384033</ele>
        <time>2009-12-05T10:02:51Z</time>
      </trkpt>
      <trkpt lat="43.70445" lon="7.00033">
        <ele>148.1804199</ele>
        <time>2009-12-05T10:02:57Z</time>
      </trkpt>
      <trkpt lat="43.70439" lon="7.00055">
        <ele>150.5836182</ele>
        <time>2009-12-05T10:03:05Z</time>
      </trkpt>
      <trkpt lat="43.70432" lon="7.00054">
        <ele>151.5449219</ele>
        <time>2009-12-05T10:03:10Z</time>
      </trkpt>
      <trkpt lat="43.70391" lon="7.00082">
        <ele>154.9095459</ele>
        <time>2009-12-05T10:03:22Z</time>
      </trkpt>
      <trkpt lat="43.70381" lon="7.00091">
        <ele>155.3902588</ele>
        <time>2009-12-05T10:03:34Z</time>
      </trkpt>
      <trkpt lat="43.7038" lon="7.00092">
        <ele>155.8709717</ele>
        <time>2009-12-05T10:04:32Z</time>
      </trkpt>
      <trkpt lat="43.70362" lon="7.00113">
        <ele>155.3902588</ele>
        <time>2009-12-05T10:04:38Z</time>
      </trkpt>
      <trkpt lat="43.70342" lon="7.00171">
        <ele>154.4289551</ele>
        <time>2009-12-05T10:04:46Z</time>
      </trkpt>
      <trkpt lat="43.70325" lon="7.00222">
        <ele>153.9483643</ele>
        <time>2009-12-05T10:04:53Z</time>
      </trkpt>
      <trkpt lat="43.703" lon="7.00249">
        <ele>154.4289551</ele>
        <time>2009-12-05T10:04:58Z</time>
      </trkpt>
      <trkpt lat="43.70276" lon="7.00263">
        <ele>154.9095459</ele>
        <time>2009-12-05T10:05:02Z</time>
      </trkpt>
      <trkpt lat="43.7025" lon="7.00288">
        <ele>154.9095459</ele>
        <time>2009-12-05T10:05:08Z</time>
      </trkpt>
      <trkpt lat="43.70237" lon="7.00305">
        <ele>154.9095459</ele>
        <time>2009-12-05T10:05:14Z</time>
      </trkpt>
      <trkpt lat="43.70234" lon="7.00351">
        <ele>156.3515625</ele>
        <time>2009-12-05T10:05:18Z</time>
      </trkpt>
      <trkpt lat="43.70235" lon="7.00353">
        <ele>157.7935791</ele>
        <time>2009-12-05T10:05:23Z</time>
      </trkpt>
      <trkpt lat="43.70235" lon="7.00353">
        <ele>157.7935791</ele>
        <time>2009-12-05T10:05:25Z</time>
      </trkpt>
      <trkpt lat="43.70236" lon="7.00381">
        <ele>160.1968994</ele>
        <time>2009-12-05T10:05:33Z</time>
      </trkpt>
      <trkpt lat="43.70242" lon="7.00387">
        <ele>163.5615234</ele>
        <time>2009-12-05T10:05:42Z</time>
      </trkpt>
      <trkpt lat="43.70241" lon="7.00388">
        <ele>163.5615234</ele>
        <time>2009-12-05T10:05:43Z</time>
      </trkpt>
      <trkpt lat="43.70242" lon="7.00417">
        <ele>164.5227051</ele>
        <time>2009-12-05T10:05:47Z</time>
      </trkpt>
      <trkpt lat="43.70252" lon="7.00444">
        <ele>168.368042</ele>
        <time>2009-12-05T10:05:59Z</time>
      </trkpt>
      <trkpt lat="43.70255" lon="7.0045">
        <ele>169.3294678</ele>
        <time>2009-12-05T10:06:02Z</time>
      </trkpt>
      <trkpt lat="43.70257" lon="7.00453">
        <ele>170.2906494</ele>
        <time>2009-12-05T10:06:05Z</time>
      </trkpt>
      <trkpt lat="43.70265" lon="7.00464">
        <ele>173.6552734</ele>
        <time>2009-12-05T10:06:15Z</time>
      </trkpt>
      <trkpt lat="43.70265" lon="7.00464">
        <ele>177.0200195</ele>
        <time>2009-12-05T10:06:24Z</time>
      </trkpt>
      <trkpt lat="43.70261" lon="7.00483">
        <ele>179.9038086</ele>
        <time>2009-12-05T10:06:35Z</time>
      </trkpt>
      <trkpt lat="43.70261" lon="7.00483">
        <ele>183.2684326</ele>
        <time>2009-12-05T10:06:47Z</time>
      </trkpt>
      <trkpt lat="43.70232" lon="7.00529">
        <ele>185.1911621</ele>
        <time>2009-12-05T10:06:54Z</time>
      </trkpt>
      <trkpt lat="43.70249" lon="7.00543">
        <ele>185.6717529</ele>
        <time>2009-12-05T10:06:56Z</time>
      </trkpt>
      <trkpt lat="43.70239" lon="7.00566">
        <ele>189.036377</ele>
        <time>2009-12-05T10:07:07Z</time>
      </trkpt>
      <trkpt lat="43.70232" lon="7.00595">
        <ele>191.9202881</ele>
        <time>2009-12-05T10:07:19Z</time>
      </trkpt>
      <trkpt lat="43.70228" lon="7.00606">
        <ele>193.3623047</ele>
        <time>2009-12-05T10:07:25Z</time>
      </trkpt>
      <trkpt lat="43.70228" lon="7.00613">
        <ele>194.3237305</ele>
        <time>2009-12-05T10:07:28Z</time>
      </trkpt>
      <trkpt lat="43.70221" lon="7.00628">
        <ele>196.2463379</ele>
        <time>2009-12-05T10:07:36Z</time>
      </trkpt>
      <trkpt lat="43.70219" lon="7.00643">
        <ele>199.130127</ele>
        <time>2009-12-05T10:07:45Z</time>
      </trkpt>
      <trkpt lat="43.70226" lon="7.00661">
        <ele>200.5722656</ele>
        <time>2009-12-05T10:07:51Z</time>
      </trkpt>
      <trkpt lat="43.70226" lon="7.00687">
        <ele>203.9368896</ele>
        <time>2009-12-05T10:08:03Z</time>
      </trkpt>
      <trkpt lat="43.70223" lon="7.00715">
        <ele>206.3400879</ele>
        <time>2009-12-05T10:08:13Z</time>
      </trkpt>
      <trkpt lat="43.70222" lon="7.00723">
        <ele>207.7821045</ele>
        <time>2009-12-05T10:08:18Z</time>
      </trkpt>
      <trkpt lat="43.70222" lon="7.00732">
        <ele>209.2241211</ele>
        <time>2009-12-05T10:08:22Z</time>
      </trkpt>
      <trkpt lat="43.70223" lon="7.0075">
        <ele>211.1467285</ele>
        <time>2009-12-05T10:08:29Z</time>
      </trkpt>
      <trkpt lat="43.70223" lon="7.00778">
        <ele>214.0306396</ele>
        <time>2009-12-05T10:08:42Z</time>
      </trkpt>
      <trkpt lat="43.70227" lon="7.00801">
        <ele>216.9146729</ele>
        <time>2009-12-05T10:08:52Z</time>
      </trkpt>
      <trkpt lat="43.70232" lon="7.0082">
        <ele>220.2791748</ele>
        <time>2009-12-05T10:09:03Z</time>
      </trkpt>
      <trkpt lat="43.70236" lon="7.00839">
        <ele>223.6437988</ele>
        <time>2009-12-05T10:09:14Z</time>
      </trkpt>
      <trkpt lat="43.70242" lon="7.00858">
        <ele>226.527832</ele>
        <time>2009-12-05T10:09:24Z</time>
      </trkpt>
      <trkpt lat="43.70256" lon="7.00884">
        <ele>229.892334</ele>
        <time>2009-12-05T10:09:37Z</time>
      </trkpt>
      <trkpt lat="43.7026" lon="7.0092">
        <ele>231.8149414</ele>
        <time>2009-12-05T10:09:50Z</time>
      </trkpt>
      <trkpt lat="43.70259" lon="7.00923">
        <ele>232.2957764</ele>
        <time>2009-12-05T10:09:52Z</time>
      </trkpt>
      <trkpt lat="43.70289" lon="7.00967">
        <ele>233.7376709</ele>
        <time>2009-12-05T10:10:06Z</time>
      </trkpt>
      <trkpt lat="43.70313" lon="7.00987">
        <ele>234.2183838</ele>
        <time>2009-12-05T10:10:17Z</time>
      </trkpt>
      <trkpt lat="43.70323" lon="7.01005">
        <ele>233.7376709</ele>
        <time>2009-12-05T10:10:23Z</time>
      </trkpt>
      <trkpt lat="43.70323" lon="7.01038">
        <ele>234.6990967</ele>
        <time>2009-12-05T10:10:30Z</time>
      </trkpt>
      <trkpt lat="43.70323" lon="7.01046">
        <ele>234.6990967</ele>
        <time>2009-12-05T10:10:32Z</time>
      </trkpt>
      <trkpt lat="43.70286" lon="7.01082">
        <ele>235.6602783</ele>
        <time>2009-12-05T10:10:41Z</time>
      </trkpt>
      <trkpt lat="43.70283" lon="7.01092">
        <ele>236.1409912</ele>
        <time>2009-12-05T10:10:46Z</time>
      </trkpt>
      <trkpt lat="43.70281" lon="7.01099">
        <ele>236.6217041</ele>
        <time>2009-12-05T10:10:50Z</time>
      </trkpt>
      <trkpt lat="43.70274" lon="7.01118">
        <ele>237.5828857</ele>
        <time>2009-12-05T10:11:02Z</time>
      </trkpt>
      <trkpt lat="43.70269" lon="7.0113">
        <ele>239.0249023</ele>
        <time>2009-12-05T10:12:06Z</time>
      </trkpt>
      <trkpt lat="43.70256" lon="7.01156">
        <ele>242.3896484</ele>
        <time>2009-12-05T10:12:17Z</time>
      </trkpt>
      <trkpt lat="43.70239" lon="7.01196">
        <ele>245.7541504</ele>
        <time>2009-12-05T10:12:30Z</time>
      </trkpt>
      <trkpt lat="43.70225" lon="7.0127">
        <ele>248.6381836</ele>
        <time>2009-12-05T10:12:49Z</time>
      </trkpt>
      <trkpt lat="43.70225" lon="7.01335">
        <ele>250.560791</ele>
        <time>2009-12-05T10:13:03Z</time>
      </trkpt>
      <trkpt lat="43.70231" lon="7.01388">
        <ele>248.6381836</ele>
        <time>2009-12-05T10:13:11Z</time>
      </trkpt>
      <trkpt lat="43.70233" lon="7.01416">
        <ele>249.1187744</ele>
        <time>2009-12-05T10:13:15Z</time>
      </trkpt>
      <trkpt lat="43.70233" lon="7.01437">
        <ele>250.560791</ele>
        <time>2009-12-05T10:13:20Z</time>
      </trkpt>
      <trkpt lat="43.70237" lon="7.01473">
        <ele>253.925415</ele>
        <time>2009-12-05T10:13:31Z</time>
      </trkpt>
      <trkpt lat="43.70237" lon="7.01485">
        <ele>255.3673096</ele>
        <time>2009-12-05T10:13:37Z</time>
      </trkpt>
      <trkpt lat="43.70236" lon="7.01487">
        <ele>256.8093262</ele>
        <time>2009-12-05T10:13:41Z</time>
      </trkpt>
      <trkpt lat="43.70235" lon="7.01504">
        <ele>258.2513428</ele>
        <time>2009-12-05T10:13:45Z</time>
      </trkpt>
      <trkpt lat="43.70229" lon="7.01527">
        <ele>261.6159668</ele>
        <time>2009-12-05T10:13:55Z</time>
      </trkpt>
      <trkpt lat="43.7022" lon="7.01555">
        <ele>264.9805908</ele>
        <time>2009-12-05T10:14:06Z</time>
      </trkpt>
      <trkpt lat="43.70219" lon="7.01561">
        <ele>265.4613037</ele>
        <time>2009-12-05T10:14:08Z</time>
      </trkpt>
      <trkpt lat="43.70213" lon="7.01585">
        <ele>267.864502</ele>
        <time>2009-12-05T10:14:19Z</time>
      </trkpt>
      <trkpt lat="43.70211" lon="7.01593">
        <ele>268.3450928</ele>
        <time>2009-12-05T10:14:23Z</time>
      </trkpt>
      <trkpt lat="43.70201" lon="7.01613">
        <ele>271.7097168</ele>
        <time>2009-12-05T10:14:37Z</time>
      </trkpt>
      <trkpt lat="43.70201" lon="7.01613">
        <ele>272.1904297</ele>
        <time>2009-12-05T10:14:38Z</time>
      </trkpt>
      <trkpt lat="43.70187" lon="7.01633">
        <ele>274.59375</ele>
        <time>2009-12-05T10:14:47Z</time>
      </trkpt>
      <trkpt lat="43.70182" lon="7.0164">
        <ele>275.5550537</ele>
        <time>2009-12-05T10:14:53Z</time>
      </trkpt>
      <trkpt lat="43.70182" lon="7.0164">
        <ele>276.5163574</ele>
        <time>2009-12-05T10:14:55Z</time>
      </trkpt>
      <trkpt lat="43.70167" lon="7.01665">
        <ele>277.958252</ele>
        <time>2009-12-05T10:15:04Z</time>
      </trkpt>
      <trkpt lat="43.70181" lon="7.01688">
        <ele>279.4002686</ele>
        <time>2009-12-05T10:15:10Z</time>
      </trkpt>
      <trkpt lat="43.70191" lon="7.01712">
        <ele>279.8808594</ele>
        <time>2009-12-05T10:15:16Z</time>
      </trkpt>
      <trkpt lat="43.70195" lon="7.01714">
        <ele>280.3616943</ele>
        <time>2009-12-05T10:15:20Z</time>
      </trkpt>
      <trkpt lat="43.70195" lon="7.01714">
        <ele>280.3616943</ele>
        <time>2009-12-05T10:15:22Z</time>
      </trkpt>
      <trkpt lat="43.70205" lon="7.01707">
        <ele>281.8035889</ele>
        <time>2009-12-05T10:15:26Z</time>
      </trkpt>
      <trkpt lat="43.70205" lon="7.01706">
        <ele>282.2843018</ele>
        <time>2009-12-05T10:15:28Z</time>
      </trkpt>
      <trkpt lat="43.70209" lon="7.01691">
        <ele>284.2069092</ele>
        <time>2009-12-05T10:15:36Z</time>
      </trkpt>
      <trkpt lat="43.70213" lon="7.0168">
        <ele>285.1682129</ele>
        <time>2009-12-05T10:15:41Z</time>
      </trkpt>
      <trkpt lat="43.70236" lon="7.01663">
        <ele>288.532959</ele>
        <time>2009-12-05T10:15:56Z</time>
      </trkpt>
      <trkpt lat="43.70253" lon="7.0166">
        <ele>291.8974609</ele>
        <time>2009-12-05T10:16:08Z</time>
      </trkpt>
      <trkpt lat="43.70259" lon="7.01677">
        <ele>294.7813721</ele>
        <time>2009-12-05T10:16:19Z</time>
      </trkpt>
      <trkpt lat="43.70269" lon="7.017">
        <ele>297.6654053</ele>
        <time>2009-12-05T10:16:29Z</time>
      </trkpt>
      <trkpt lat="43.70279" lon="7.01691">
        <ele>299.5880127</ele>
        <time>2009-12-05T10:16:35Z</time>
      </trkpt>
      <trkpt lat="43.70295" lon="7.01675">
        <ele>302.9525146</ele>
        <time>2009-12-05T10:16:47Z</time>
      </trkpt>
      <trkpt lat="43.703" lon="7.01674">
        <ele>303.4332275</ele>
        <time>2009-12-05T10:16:50Z</time>
      </trkpt>
      <trkpt lat="43.70314" lon="7.01682">
        <ele>305.8366699</ele>
        <time>2009-12-05T10:16:59Z</time>
      </trkpt>
      <trkpt lat="43.70324" lon="7.01722">
        <ele>306.7978516</ele>
        <time>2009-12-05T10:17:11Z</time>
      </trkpt>
      <trkpt lat="43.70334" lon="7.01729">
        <ele>307.7592773</ele>
        <time>2009-12-05T10:17:17Z</time>
      </trkpt>
      <trkpt lat="43.70346" lon="7.01731">
        <ele>310.1624756</ele>
        <time>2009-12-05T10:17:26Z</time>
      </trkpt>
      <trkpt lat="43.70353" lon="7.01751">
        <ele>314.0078125</ele>
        <time>2009-12-05T10:17:38Z</time>
      </trkpt>
      <trkpt lat="43.70357" lon="7.01769">
        <ele>316.8917236</ele>
        <time>2009-12-05T10:17:48Z</time>
      </trkpt>
      <trkpt lat="43.70362" lon="7.01774">
        <ele>318.3336182</ele>
        <time>2009-12-05T10:17:53Z</time>
      </trkpt>
      <trkpt lat="43.70375" lon="7.01757">
        <ele>321.2177734</ele>
        <time>2009-12-05T10:18:08Z</time>
      </trkpt>
      <trkpt lat="43.70392" lon="7.0173">
        <ele>324.5822754</ele>
        <time>2009-12-05T10:18:23Z</time>
      </trkpt>
      <trkpt lat="43.70412" lon="7.01711">
        <ele>326.9855957</ele>
        <time>2009-12-05T10:18:36Z</time>
      </trkpt>
      <trkpt lat="43.70443" lon="7.01707">
        <ele>329.8695068</ele>
        <time>2009-12-05T10:18:53Z</time>
      </trkpt>
      <trkpt lat="43.70464" lon="7.01679">
        <ele>332.75354</ele>
        <time>2009-12-05T10:19:09Z</time>
      </trkpt>
      <trkpt lat="43.70471" lon="7.01681">
        <ele>334.1954346</ele>
        <time>2009-12-05T10:19:14Z</time>
      </trkpt>
      <trkpt lat="43.70488" lon="7.01702">
        <ele>338.0407715</ele>
        <time>2009-12-05T10:19:30Z</time>
      </trkpt>
      <trkpt lat="43.70504" lon="7.01724">
        <ele>341.4052734</ele>
        <time>2009-12-05T10:19:46Z</time>
      </trkpt>
      <trkpt lat="43.70519" lon="7.01744">
        <ele>344.2894287</ele>
        <time>2009-12-05T10:20:00Z</time>
      </trkpt>
      <trkpt lat="43.70535" lon="7.01763">
        <ele>347.1732178</ele>
        <time>2009-12-05T10:20:13Z</time>
      </trkpt>
      <trkpt lat="43.70552" lon="7.0178">
        <ele>351.0184326</ele>
        <time>2009-12-05T10:20:28Z</time>
      </trkpt>
      <trkpt lat="43.70565" lon="7.01801">
        <ele>354.8637695</ele>
        <time>2009-12-05T10:20:42Z</time>
      </trkpt>
      <trkpt lat="43.70572" lon="7.01821">
        <ele>357.7478027</ele>
        <time>2009-12-05T10:20:55Z</time>
      </trkpt>
      <trkpt lat="43.70578" lon="7.01849">
        <ele>361.1124268</ele>
        <time>2009-12-05T10:21:09Z</time>
      </trkpt>
      <trkpt lat="43.7058" lon="7.01873">
        <ele>364.4769287</ele>
        <time>2009-12-05T10:21:21Z</time>
      </trkpt>
      <trkpt lat="43.70581" lon="7.01879">
        <ele>365.4383545</ele>
        <time>2009-12-05T10:21:24Z</time>
      </trkpt>
      <trkpt lat="43.70587" lon="7.01888">
        <ele>366.880249</ele>
        <time>2009-12-05T10:21:31Z</time>
      </trkpt>
      <trkpt lat="43.70607" lon="7.01868">
        <ele>370.244873</ele>
        <time>2009-12-05T10:21:49Z</time>
      </trkpt>
      <trkpt lat="43.7062" lon="7.01847">
        <ele>373.6094971</ele>
        <time>2009-12-05T10:22:02Z</time>
      </trkpt>
      <trkpt lat="43.70634" lon="7.01824">
        <ele>376.4935303</ele>
        <time>2009-12-05T10:22:15Z</time>
      </trkpt>
      <trkpt lat="43.70647" lon="7.01792">
        <ele>379.8580322</ele>
        <time>2009-12-05T10:22:31Z</time>
      </trkpt>
      <trkpt lat="43.70653" lon="7.01769">
        <ele>383.2226563</ele>
        <time>2009-12-05T10:22:43Z</time>
      </trkpt>
      <trkpt lat="43.70653" lon="7.01767">
        <ele>382.7420654</ele>
        <time>2009-12-05T10:22:44Z</time>
      </trkpt>
      <trkpt lat="43.70659" lon="7.01758">
        <ele>384.184082</ele>
        <time>2009-12-05T10:22:48Z</time>
      </trkpt>
      <trkpt lat="43.70681" lon="7.01729">
        <ele>387.0679932</ele>
        <time>2009-12-05T10:23:05Z</time>
      </trkpt>
      <trkpt lat="43.70688" lon="7.01699">
        <ele>389.9519043</ele>
        <time>2009-12-05T10:23:19Z</time>
      </trkpt>
      <trkpt lat="43.70698" lon="7.01661">
        <ele>393.7972412</ele>
        <time>2009-12-05T10:23:37Z</time>
      </trkpt>
      <trkpt lat="43.70701" lon="7.0164">
        <ele>396.6811523</ele>
        <time>2009-12-05T10:23:48Z</time>
      </trkpt>
      <trkpt lat="43.70702" lon="7.01638">
        <ele>397.1617432</ele>
        <time>2009-12-05T10:23:49Z</time>
      </trkpt>
      <trkpt lat="43.70709" lon="7.01613">
        <ele>400.5264893</ele>
        <time>2009-12-05T10:24:02Z</time>
      </trkpt>
      <trkpt lat="43.70714" lon="7.01589">
        <ele>403.8911133</ele>
        <time>2009-12-05T10:24:15Z</time>
      </trkpt>
      <trkpt lat="43.7072" lon="7.01568">
        <ele>407.2556152</ele>
        <time>2009-12-05T10:24:26Z</time>
      </trkpt>
      <trkpt lat="43.70728" lon="7.01546">
        <ele>410.1396484</ele>
        <time>2009-12-05T10:24:39Z</time>
      </trkpt>
      <trkpt lat="43.70734" lon="7.01525">
        <ele>413.5042725</ele>
        <time>2009-12-05T10:24:50Z</time>
      </trkpt>
      <trkpt lat="43.70736" lon="7.01517">
        <ele>414.946167</ele>
        <time>2009-12-05T10:24:55Z</time>
      </trkpt>
      <trkpt lat="43.70742" lon="7.01493">
        <ele>418.310791</ele>
        <time>2009-12-05T10:25:09Z</time>
      </trkpt>
      <trkpt lat="43.70744" lon="7.01487">
        <ele>419.2722168</ele>
        <time>2009-12-05T10:25:13Z</time>
      </trkpt>
      <trkpt lat="43.70752" lon="7.01462">
        <ele>423.1174316</ele>
        <time>2009-12-05T10:25:26Z</time>
      </trkpt>
      <trkpt lat="43.70764" lon="7.01441">
        <ele>426.4820557</ele>
        <time>2009-12-05T10:25:39Z</time>
      </trkpt>
      <trkpt lat="43.7078" lon="7.01416">
        <ele>429.3659668</ele>
        <time>2009-12-05T10:25:54Z</time>
      </trkpt>
      <trkpt lat="43.70795" lon="7.01398">
        <ele>432.25</ele>
        <time>2009-12-05T10:26:06Z</time>
      </trkpt>
      <trkpt lat="43.70799" lon="7.01415">
        <ele>434.1726074</ele>
        <time>2009-12-05T10:26:15Z</time>
      </trkpt>
      <trkpt lat="43.70801" lon="7.01419">
        <ele>434.6533203</ele>
        <time>2009-12-05T10:26:17Z</time>
      </trkpt>
      <trkpt lat="43.70805" lon="7.01451">
        <ele>438.0178223</ele>
        <time>2009-12-05T10:26:31Z</time>
      </trkpt>
      <trkpt lat="43.70807" lon="7.01486">
        <ele>441.3824463</ele>
        <time>2009-12-05T10:26:47Z</time>
      </trkpt>
      <trkpt lat="43.7081" lon="7.0151">
        <ele>444.2664795</ele>
        <time>2009-12-05T10:26:59Z</time>
      </trkpt>
      <trkpt lat="43.70812" lon="7.01516">
        <ele>444.7470703</ele>
        <time>2009-12-05T10:27:01Z</time>
      </trkpt>
      <trkpt lat="43.70813" lon="7.01524">
        <ele>445.708374</ele>
        <time>2009-12-05T10:27:05Z</time>
      </trkpt>
      <trkpt lat="43.70816" lon="7.01533">
        <ele>446.6696777</ele>
        <time>2009-12-05T10:27:09Z</time>
      </trkpt>
      <trkpt lat="43.70819" lon="7.01557">
        <ele>449.072998</ele>
        <time>2009-12-05T10:27:20Z</time>
      </trkpt>
      <trkpt lat="43.70824" lon="7.01591">
        <ele>452.9182129</ele>
        <time>2009-12-05T10:27:36Z</time>
      </trkpt>
      <trkpt lat="43.70846" lon="7.01627">
        <ele>454.8408203</ele>
        <time>2009-12-05T10:27:53Z</time>
      </trkpt>
      <trkpt lat="43.70867" lon="7.01652">
        <ele>458.2055664</ele>
        <time>2009-12-05T10:28:08Z</time>
      </trkpt>
      <trkpt lat="43.70884" lon="7.01682">
        <ele>461.0894775</ele>
        <time>2009-12-05T10:28:23Z</time>
      </trkpt>
      <trkpt lat="43.70895" lon="7.01707">
        <ele>464.4541016</ele>
        <time>2009-12-05T10:28:35Z</time>
      </trkpt>
      <trkpt lat="43.70903" lon="7.01728">
        <ele>467.3381348</ele>
        <time>2009-12-05T10:28:45Z</time>
      </trkpt>
      <trkpt lat="43.70914" lon="7.01721">
        <ele>469.2607422</ele>
        <time>2009-12-05T10:28:55Z</time>
      </trkpt>
      <trkpt lat="43.70911" lon="7.01682">
        <ele>472.6253662</ele>
        <time>2009-12-05T10:29:11Z</time>
      </trkpt>
      <trkpt lat="43.70912" lon="7.01653">
        <ele>475.9898682</ele>
        <time>2009-12-05T10:29:25Z</time>
      </trkpt>
      <trkpt lat="43.70913" lon="7.01624">
        <ele>479.3544922</ele>
        <time>2009-12-05T10:29:39Z</time>
      </trkpt>
      <trkpt lat="43.70912" lon="7.0162">
        <ele>479.3544922</ele>
        <time>2009-12-05T10:29:41Z</time>
      </trkpt>
      <trkpt lat="43.70906" lon="7.01604">
        <ele>481.7578125</ele>
        <time>2009-12-05T10:29:50Z</time>
      </trkpt>
      <trkpt lat="43.70914" lon="7.01591">
        <ele>485.1224365</ele>
        <time>2009-12-05T10:30:02Z</time>
      </trkpt>
      <trkpt lat="43.70916" lon="7.01595">
        <ele>485.1224365</ele>
        <time>2009-12-05T10:30:04Z</time>
      </trkpt>
      <trkpt lat="43.70929" lon="7.01627">
        <ele>488.4871826</ele>
        <time>2009-12-05T10:30:22Z</time>
      </trkpt>
      <trkpt lat="43.70938" lon="7.01648">
        <ele>491.3709717</ele>
        <time>2009-12-05T10:30:35Z</time>
      </trkpt>
      <trkpt lat="43.70949" lon="7.01676">
        <ele>494.7355957</ele>
        <time>2009-12-05T10:30:50Z</time>
      </trkpt>
      <trkpt lat="43.70957" lon="7.01696">
        <ele>498.1003418</ele>
        <time>2009-12-05T10:31:01Z</time>
      </trkpt>
      <trkpt lat="43.70966" lon="7.01715">
        <ele>500.9841309</ele>
        <time>2009-12-05T10:31:13Z</time>
      </trkpt>
      <trkpt lat="43.70972" lon="7.0174">
        <ele>503.8681641</ele>
        <time>2009-12-05T10:31:25Z</time>
      </trkpt>
      <trkpt lat="43.70981" lon="7.01734">
        <ele>505.3101807</ele>
        <time>2009-12-05T10:31:33Z</time>
      </trkpt>
      <trkpt lat="43.70981" lon="7.01724">
        <ele>506.2714844</ele>
        <time>2009-12-05T10:31:40Z</time>
      </trkpt>
      <trkpt lat="43.70974" lon="7.01698">
        <ele>507.713501</ele>
        <time>2009-12-05T10:32:00Z</time>
      </trkpt>
      <trkpt lat="43.70973" lon="7.01695">
        <ele>508.1940918</ele>
        <time>2009-12-05T10:32:02Z</time>
      </trkpt>
      <trkpt lat="43.70973" lon="7.01689">
        <ele>508.1940918</ele>
        <time>2009-12-05T10:32:06Z</time>
      </trkpt>
      <trkpt lat="43.70974" lon="7.01686">
        <ele>508.6746826</ele>
        <time>2009-12-05T10:32:26Z</time>
      </trkpt>
      <trkpt lat="43.70974" lon="7.01686">
        <ele>509.1553955</ele>
        <time>2009-12-05T10:32:38Z</time>
      </trkpt>
      <trkpt lat="43.70973" lon="7.01656">
        <ele>511.5587158</ele>
        <time>2009-12-05T10:32:54Z</time>
      </trkpt>
      <trkpt lat="43.70973" lon="7.0165">
        <ele>512.5200195</ele>
        <time>2009-12-05T10:32:57Z</time>
      </trkpt>
      <trkpt lat="43.70972" lon="7.01617">
        <ele>515.8846436</ele>
        <time>2009-12-05T10:33:14Z</time>
      </trkpt>
      <trkpt lat="43.70969" lon="7.01585">
        <ele>519.2492676</ele>
        <time>2009-12-05T10:33:31Z</time>
      </trkpt>
      <trkpt lat="43.70968" lon="7.01577">
        <ele>520.2105713</ele>
        <time>2009-12-05T10:33:35Z</time>
      </trkpt>
      <trkpt lat="43.70966" lon="7.0155">
        <ele>523.5751953</ele>
        <time>2009-12-05T10:33:49Z</time>
      </trkpt>
      <trkpt lat="43.70964" lon="7.01529">
        <ele>525.9783936</ele>
        <time>2009-12-05T10:34:01Z</time>
      </trkpt>
      <trkpt lat="43.70963" lon="7.01506">
        <ele>529.3431396</ele>
        <time>2009-12-05T10:34:14Z</time>
      </trkpt>
      <trkpt lat="43.70964" lon="7.01488">
        <ele>531.7463379</ele>
        <time>2009-12-05T10:34:25Z</time>
      </trkpt>
      <trkpt lat="43.70974" lon="7.01489">
        <ele>533.1883545</ele>
        <time>2009-12-05T10:34:33Z</time>
      </trkpt>
      <trkpt lat="43.70982" lon="7.01514">
        <ele>536.5531006</ele>
        <time>2009-12-05T10:34:47Z</time>
      </trkpt>
      <trkpt lat="43.7099" lon="7.01536">
        <ele>539.4368896</ele>
        <time>2009-12-05T10:35:00Z</time>
      </trkpt>
      <trkpt lat="43.71" lon="7.01563">
        <ele>542.3209229</ele>
        <time>2009-12-05T10:35:15Z</time>
      </trkpt>
      <trkpt lat="43.71012" lon="7.0159">
        <ele>545.204834</ele>
        <time>2009-12-05T10:35:30Z</time>
      </trkpt>
      <trkpt lat="43.71024" lon="7.01612">
        <ele>549.0500488</ele>
        <time>2009-12-05T10:35:45Z</time>
      </trkpt>
      <trkpt lat="43.71026" lon="7.01614">
        <ele>549.0500488</ele>
        <time>2009-12-05T10:35:47Z</time>
      </trkpt>
      <trkpt lat="43.71035" lon="7.01638">
        <ele>552.4145508</ele>
        <time>2009-12-05T10:36:00Z</time>
      </trkpt>
      <trkpt lat="43.71044" lon="7.01668">
        <ele>555.7792969</ele>
        <time>2009-12-05T10:36:14Z</time>
      </trkpt>
      <trkpt lat="43.71051" lon="7.01686">
        <ele>558.1828613</ele>
        <time>2009-12-05T10:36:23Z</time>
      </trkpt>
      <trkpt lat="43.71054" lon="7.01696">
        <ele>559.144043</ele>
        <time>2009-12-05T10:36:28Z</time>
      </trkpt>
      <trkpt lat="43.71059" lon="7.01719">
        <ele>562.0280762</ele>
        <time>2009-12-05T10:36:39Z</time>
      </trkpt>
      <trkpt lat="43.71065" lon="7.01712">
        <ele>562.5085449</ele>
        <time>2009-12-05T10:36:46Z</time>
      </trkpt>
      <trkpt lat="43.71061" lon="7.01661">
        <ele>565.3925781</ele>
        <time>2009-12-05T10:37:08Z</time>
      </trkpt>
      <trkpt lat="43.71062" lon="7.01638">
        <ele>568.7570801</ele>
        <time>2009-12-05T10:37:20Z</time>
      </trkpt>
      <trkpt lat="43.71061" lon="7.01611">
        <ele>572.1218262</ele>
        <time>2009-12-05T10:37:33Z</time>
      </trkpt>
      <trkpt lat="43.71059" lon="7.01586">
        <ele>575.0058594</ele>
        <time>2009-12-05T10:37:46Z</time>
      </trkpt>
      <trkpt lat="43.71054" lon="7.01561">
        <ele>578.3703613</ele>
        <time>2009-12-05T10:37:59Z</time>
      </trkpt>
      <trkpt lat="43.71053" lon="7.01537">
        <ele>581.2543945</ele>
        <time>2009-12-05T10:38:11Z</time>
      </trkpt>
      <trkpt lat="43.71058" lon="7.0151">
        <ele>584.6188965</ele>
        <time>2009-12-05T10:38:24Z</time>
      </trkpt>
      <trkpt lat="43.71058" lon="7.01485">
        <ele>587.5026855</ele>
        <time>2009-12-05T10:38:36Z</time>
      </trkpt>
      <trkpt lat="43.71062" lon="7.01459">
        <ele>590.3869629</ele>
        <time>2009-12-05T10:38:49Z</time>
      </trkpt>
      <trkpt lat="43.71069" lon="7.01429">
        <ele>593.7514648</ele>
        <time>2009-12-05T10:39:04Z</time>
      </trkpt>
      <trkpt lat="43.71081" lon="7.01394">
        <ele>597.1159668</ele>
        <time>2009-12-05T10:39:22Z</time>
      </trkpt>
      <trkpt lat="43.71098" lon="7.01355">
        <ele>600</ele>
        <time>2009-12-05T10:39:43Z</time>
      </trkpt>
      <trkpt lat="43.71108" lon="7.01327">
        <ele>603.364502</ele>
        <time>2009-12-05T10:39:58Z</time>
      </trkpt>
      <trkpt lat="43.71116" lon="7.01306">
        <ele>606.2485352</ele>
        <time>2009-12-05T10:40:11Z</time>
      </trkpt>
      <trkpt lat="43.71123" lon="7.01288">
        <ele>609.6132813</ele>
        <time>2009-12-05T10:40:23Z</time>
      </trkpt>
      <trkpt lat="43.71126" lon="7.01277">
        <ele>611.5358887</ele>
        <time>2009-12-05T10:40:30Z</time>
      </trkpt>
      <trkpt lat="43.71135" lon="7.01265">
        <ele>613.9389648</ele>
        <time>2009-12-05T10:40:39Z</time>
      </trkpt>
      <trkpt lat="43.71151" lon="7.01251">
        <ele>617.3037109</ele>
        <time>2009-12-05T10:40:53Z</time>
      </trkpt>
      <trkpt lat="43.71166" lon="7.01228">
        <ele>620.1877441</ele>
        <time>2009-12-05T10:41:09Z</time>
      </trkpt>
      <trkpt lat="43.71165" lon="7.01192">
        <ele>623.0717773</ele>
        <time>2009-12-05T10:41:26Z</time>
      </trkpt>
      <trkpt lat="43.71156" lon="7.01166">
        <ele>625.4748535</ele>
        <time>2009-12-05T10:41:39Z</time>
      </trkpt>
      <trkpt lat="43.71158" lon="7.01157">
        <ele>626.4362793</ele>
        <time>2009-12-05T10:41:43Z</time>
      </trkpt>
      <trkpt lat="43.71162" lon="7.01138">
        <ele>629.3200684</ele>
        <time>2009-12-05T10:41:53Z</time>
      </trkpt>
      <trkpt lat="43.71172" lon="7.01145">
        <ele>631.2429199</ele>
        <time>2009-12-05T10:42:02Z</time>
      </trkpt>
      <trkpt lat="43.71176" lon="7.01162">
        <ele>633.1652832</ele>
        <time>2009-12-05T10:42:11Z</time>
      </trkpt>
      <trkpt lat="43.71192" lon="7.01179">
        <ele>636.5302734</ele>
        <time>2009-12-05T10:42:26Z</time>
      </trkpt>
      <trkpt lat="43.71208" lon="7.01196">
        <ele>639.8947754</ele>
        <time>2009-12-05T10:42:40Z</time>
      </trkpt>
      <trkpt lat="43.71207" lon="7.01215">
        <ele>641.8173828</ele>
        <time>2009-12-05T10:42:49Z</time>
      </trkpt>
      <trkpt lat="43.71205" lon="7.01222">
        <ele>642.7788086</ele>
        <time>2009-12-05T10:42:53Z</time>
      </trkpt>
      <trkpt lat="43.71206" lon="7.01231">
        <ele>643.7399902</ele>
        <time>2009-12-05T10:42:57Z</time>
      </trkpt>
      <trkpt lat="43.71203" lon="7.01236">
        <ele>644.2207031</ele>
        <time>2009-12-05T10:43:00Z</time>
      </trkpt>
      <trkpt lat="43.71203" lon="7.01245">
        <ele>645.1818848</ele>
        <time>2009-12-05T10:43:04Z</time>
      </trkpt>
      <trkpt lat="43.71201" lon="7.01251">
        <ele>646.1433105</ele>
        <time>2009-12-05T10:43:07Z</time>
      </trkpt>
      <trkpt lat="43.71197" lon="7.01292">
        <ele>649.5078125</ele>
        <time>2009-12-05T10:43:25Z</time>
      </trkpt>
      <trkpt lat="43.71198" lon="7.01301">
        <ele>650.4692383</ele>
        <time>2009-12-05T10:43:29Z</time>
      </trkpt>
      <trkpt lat="43.71196" lon="7.01317">
        <ele>651.4304199</ele>
        <time>2009-12-05T10:43:36Z</time>
      </trkpt>
      <trkpt lat="43.71196" lon="7.01332">
        <ele>652.8725586</ele>
        <time>2009-12-05T10:43:43Z</time>
      </trkpt>
      <trkpt lat="43.71194" lon="7.01342">
        <ele>653.8339844</ele>
        <time>2009-12-05T10:43:48Z</time>
      </trkpt>
      <trkpt lat="43.71194" lon="7.01346">
        <ele>654.3146973</ele>
        <time>2009-12-05T10:43:50Z</time>
      </trkpt>
      <trkpt lat="43.71191" lon="7.01361">
        <ele>656.2370605</ele>
        <time>2009-12-05T10:43:57Z</time>
      </trkpt>
      <trkpt lat="43.71199" lon="7.01354">
        <ele>658.6403809</ele>
        <time>2009-12-05T10:44:08Z</time>
      </trkpt>
      <trkpt lat="43.71209" lon="7.01324">
        <ele>662.005127</ele>
        <time>2009-12-05T10:44:24Z</time>
      </trkpt>
      <trkpt lat="43.7122" lon="7.013">
        <ele>665.3696289</ele>
        <time>2009-12-05T10:44:38Z</time>
      </trkpt>
      <trkpt lat="43.71231" lon="7.01279">
        <ele>668.2536621</ele>
        <time>2009-12-05T10:44:51Z</time>
      </trkpt>
      <trkpt lat="43.71249" lon="7.01268">
        <ele>671.6181641</ele>
        <time>2009-12-05T10:45:04Z</time>
      </trkpt>
      <trkpt lat="43.71269" lon="7.01259">
        <ele>674.9829102</ele>
        <time>2009-12-05T10:45:18Z</time>
      </trkpt>
      <trkpt lat="43.71284" lon="7.01242">
        <ele>677.8666992</ele>
        <time>2009-12-05T10:45:32Z</time>
      </trkpt>
      <trkpt lat="43.71294" lon="7.01224">
        <ele>681.2314453</ele>
        <time>2009-12-05T10:45:44Z</time>
      </trkpt>
      <trkpt lat="43.71295" lon="7.01201">
        <ele>684.1154785</ele>
        <time>2009-12-05T10:45:56Z</time>
      </trkpt>
      <trkpt lat="43.7129" lon="7.01177">
        <ele>687.4799805</ele>
        <time>2009-12-05T10:46:09Z</time>
      </trkpt>
      <trkpt lat="43.71289" lon="7.01161">
        <ele>689.4025879</ele>
        <time>2009-12-05T10:46:18Z</time>
      </trkpt>
      <trkpt lat="43.7129" lon="7.01158">
        <ele>689.4025879</ele>
        <time>2009-12-05T10:46:20Z</time>
      </trkpt>
      <trkpt lat="43.71295" lon="7.01155">
        <ele>689.4025879</ele>
        <time>2009-12-05T10:46:24Z</time>
      </trkpt>
      <trkpt lat="43.71299" lon="7.01159">
        <ele>690.3640137</ele>
        <time>2009-12-05T10:46:28Z</time>
      </trkpt>
      <trkpt lat="43.71313" lon="7.01188">
        <ele>692.767334</ele>
        <time>2009-12-05T10:46:45Z</time>
      </trkpt>
      <trkpt lat="43.71323" lon="7.01207">
        <ele>695.651123</ele>
        <time>2009-12-05T10:46:59Z</time>
      </trkpt>
      <trkpt lat="43.71323" lon="7.01208">
        <ele>695.651123</ele>
        <time>2009-12-05T10:47:00Z</time>
      </trkpt>
      <trkpt lat="43.71328" lon="7.01226">
        <ele>699.015625</ele>
        <time>2009-12-05T10:47:13Z</time>
      </trkpt>
      <trkpt lat="43.71328" lon="7.01251">
        <ele>702.3803711</ele>
        <time>2009-12-05T10:47:28Z</time>
      </trkpt>
      <trkpt lat="43.71324" lon="7.01278">
        <ele>705.2644043</ele>
        <time>2009-12-05T10:47:41Z</time>
      </trkpt>
      <trkpt lat="43.71323" lon="7.01283">
        <ele>705.7451172</ele>
        <time>2009-12-05T10:47:44Z</time>
      </trkpt>
      <trkpt lat="43.71317" lon="7.0129">
        <ele>707.1870117</ele>
        <time>2009-12-05T10:47:49Z</time>
      </trkpt>
      <trkpt lat="43.71293" lon="7.01318">
        <ele>710.0708008</ele>
        <time>2009-12-05T10:48:07Z</time>
      </trkpt>
      <trkpt lat="43.71292" lon="7.0135">
        <ele>712.954834</ele>
        <time>2009-12-05T10:48:23Z</time>
      </trkpt>
      <trkpt lat="43.71293" lon="7.0136">
        <ele>713.9160156</ele>
        <time>2009-12-05T10:48:28Z</time>
      </trkpt>
      <trkpt lat="43.71292" lon="7.01383">
        <ele>716.3195801</ele>
        <time>2009-12-05T10:48:40Z</time>
      </trkpt>
      <trkpt lat="43.7129" lon="7.01397">
        <ele>717.7614746</ele>
        <time>2009-12-05T10:48:47Z</time>
      </trkpt>
      <trkpt lat="43.713" lon="7.01405">
        <ele>718.7229004</ele>
        <time>2009-12-05T10:48:56Z</time>
      </trkpt>
      <trkpt lat="43.71302" lon="7.01402">
        <ele>719.2036133</ele>
        <time>2009-12-05T10:48:58Z</time>
      </trkpt>
      <trkpt lat="43.7131" lon="7.01369">
        <ele>722.5681152</ele>
        <time>2009-12-05T10:49:16Z</time>
      </trkpt>
      <trkpt lat="43.71321" lon="7.01339">
        <ele>725.4519043</ele>
        <time>2009-12-05T10:49:32Z</time>
      </trkpt>
      <trkpt lat="43.71338" lon="7.01325">
        <ele>728.8166504</ele>
        <time>2009-12-05T10:49:45Z</time>
      </trkpt>
      <trkpt lat="43.71352" lon="7.0131">
        <ele>732.1813965</ele>
        <time>2009-12-05T10:49:58Z</time>
      </trkpt>
      <trkpt lat="43.71365" lon="7.01289">
        <ele>735.0654297</ele>
        <time>2009-12-05T10:50:12Z</time>
      </trkpt>
      <trkpt lat="43.7137" lon="7.01271">
        <ele>736.987793</ele>
        <time>2009-12-05T10:50:22Z</time>
      </trkpt>
      <trkpt lat="43.71378" lon="7.01241">
        <ele>740.8330078</ele>
        <time>2009-12-05T10:50:38Z</time>
      </trkpt>
      <trkpt lat="43.71386" lon="7.01217">
        <ele>744.1977539</ele>
        <time>2009-12-05T10:50:51Z</time>
      </trkpt>
      <trkpt lat="43.71392" lon="7.01195">
        <ele>747.081543</ele>
        <time>2009-12-05T10:51:02Z</time>
      </trkpt>
      <trkpt lat="43.71405" lon="7.01177">
        <ele>750.4465332</ele>
        <time>2009-12-05T10:51:15Z</time>
      </trkpt>
      <trkpt lat="43.71425" lon="7.01182">
        <ele>753.3303223</ele>
        <time>2009-12-05T10:51:29Z</time>
      </trkpt>
      <trkpt lat="43.71449" lon="7.01187">
        <ele>756.6948242</ele>
        <time>2009-12-05T10:51:46Z</time>
      </trkpt>
      <trkpt lat="43.71476" lon="7.01176">
        <ele>759.5788574</ele>
        <time>2009-12-05T10:52:04Z</time>
      </trkpt>
      <trkpt lat="43.71493" lon="7.0117">
        <ele>762.4626465</ele>
        <time>2009-12-05T10:52:17Z</time>
      </trkpt>
      <trkpt lat="43.71507" lon="7.01166">
        <ele>765.8276367</ele>
        <time>2009-12-05T10:52:27Z</time>
      </trkpt>
      <trkpt lat="43.71525" lon="7.01167">
        <ele>769.1921387</ele>
        <time>2009-12-05T10:52:41Z</time>
      </trkpt>
      <trkpt lat="43.71544" lon="7.01191">
        <ele>772.0759277</ele>
        <time>2009-12-05T10:52:58Z</time>
      </trkpt>
      <trkpt lat="43.71548" lon="7.01194">
        <ele>772.5566406</ele>
        <time>2009-12-05T10:53:01Z</time>
      </trkpt>
      <trkpt lat="43.71552" lon="7.01199">
        <ele>773.0373535</ele>
        <time>2009-12-05T10:53:04Z</time>
      </trkpt>
      <trkpt lat="43.71571" lon="7.01206">
        <ele>775.9211426</ele>
        <time>2009-12-05T10:53:18Z</time>
      </trkpt>
      <trkpt lat="43.71576" lon="7.01204">
        <ele>776.4018555</ele>
        <time>2009-12-05T10:53:22Z</time>
      </trkpt>
      <trkpt lat="43.71582" lon="7.012">
        <ele>777.84375</ele>
        <time>2009-12-05T10:53:26Z</time>
      </trkpt>
      <trkpt lat="43.71592" lon="7.01197">
        <ele>780.2473145</ele>
        <time>2009-12-05T10:53:34Z</time>
      </trkpt>
      <trkpt lat="43.71594" lon="7.01195">
        <ele>780.7280273</ele>
        <time>2009-12-05T10:53:36Z</time>
      </trkpt>
      <trkpt lat="43.71607" lon="7.0121">
        <ele>784.0925293</ele>
        <time>2009-12-05T10:53:49Z</time>
      </trkpt>
      <trkpt lat="43.71614" lon="7.0124">
        <ele>787.4570313</ele>
        <time>2009-12-05T10:54:03Z</time>
      </trkpt>
      <trkpt lat="43.71619" lon="7.01279">
        <ele>790.8215332</ele>
        <time>2009-12-05T10:54:22Z</time>
      </trkpt>
      <trkpt lat="43.71625" lon="7.01316">
        <ele>794.1862793</ele>
        <time>2009-12-05T10:54:39Z</time>
      </trkpt>
      <trkpt lat="43.71626" lon="7.01335">
        <ele>795.6281738</ele>
        <time>2009-12-05T10:54:48Z</time>
      </trkpt>
      <trkpt lat="43.71628" lon="7.01342">
        <ele>796.5898438</ele>
        <time>2009-12-05T10:54:51Z</time>
      </trkpt>
      <trkpt lat="43.7163" lon="7.01372">
        <ele>799.9543457</ele>
        <time>2009-12-05T10:55:05Z</time>
      </trkpt>
      <trkpt lat="43.71629" lon="7.01394">
        <ele>802.8381348</ele>
        <time>2009-12-05T10:55:17Z</time>
      </trkpt>
      <trkpt lat="43.71639" lon="7.01429">
        <ele>806.2026367</ele>
        <time>2009-12-05T10:55:34Z</time>
      </trkpt>
      <trkpt lat="43.71659" lon="7.01466">
        <ele>809.0866699</ele>
        <time>2009-12-05T10:55:54Z</time>
      </trkpt>
      <trkpt lat="43.71673" lon="7.01494">
        <ele>811.4899902</ele>
        <time>2009-12-05T10:56:09Z</time>
      </trkpt>
      <trkpt lat="43.71683" lon="7.01522">
        <ele>812.451416</ele>
        <time>2009-12-05T10:56:26Z</time>
      </trkpt>
      <trkpt lat="43.7168" lon="7.01523">
        <ele>812.451416</ele>
        <time>2009-12-05T10:56:51Z</time>
      </trkpt>
      <trkpt lat="43.71678" lon="7.01519">
        <ele>812.451416</ele>
        <time>2009-12-05T10:57:16Z</time>
      </trkpt>
      <trkpt lat="43.71684" lon="7.01514">
        <ele>812.9321289</ele>
        <time>2009-12-05T10:57:32Z</time>
      </trkpt>
      <trkpt lat="43.71684" lon="7.01521">
        <ele>812.9321289</ele>
        <time>2009-12-05T11:01:45Z</time>
      </trkpt>
      <trkpt lat="43.71682" lon="7.01519">
        <ele>811.9707031</ele>
        <time>2009-12-05T11:02:39Z</time>
      </trkpt>
      <trkpt lat="43.71679" lon="7.01523">
        <ele>811.9707031</ele>
        <time>2009-12-05T11:02:59Z</time>
      </trkpt>
      <trkpt lat="43.71684" lon="7.01517">
        <ele>811.9707031</ele>
        <time>2009-12-05T11:03:09Z</time>
      </trkpt>
      <trkpt lat="43.71694" lon="7.01537">
        <ele>814.3740234</ele>
        <time>2009-12-05T11:03:21Z</time>
      </trkpt>
      <trkpt lat="43.71716" lon="7.0155">
        <ele>818.2192383</ele>
        <time>2009-12-05T11:03:38Z</time>
      </trkpt>
      <trkpt lat="43.7173" lon="7.01558">
        <ele>821.1032715</ele>
        <time>2009-12-05T11:03:50Z</time>
      </trkpt>
      <trkpt lat="43.71747" lon="7.01563">
        <ele>824.4677734</ele>
        <time>2009-12-05T11:04:04Z</time>
      </trkpt>
      <trkpt lat="43.71749" lon="7.01565">
        <ele>825.4289551</ele>
        <time>2009-12-05T11:04:06Z</time>
      </trkpt>
      <trkpt lat="43.7177" lon="7.01575">
        <ele>828.3132324</ele>
        <time>2009-12-05T11:04:23Z</time>
      </trkpt>
      <trkpt lat="43.7179" lon="7.01582">
        <ele>831.6777344</ele>
        <time>2009-12-05T11:04:38Z</time>
      </trkpt>
      <trkpt lat="43.71806" lon="7.01589">
        <ele>834.5617676</ele>
        <time>2009-12-05T11:04:51Z</time>
      </trkpt>
      <trkpt lat="43.71814" lon="7.01594">
        <ele>835.5229492</ele>
        <time>2009-12-05T11:04:58Z</time>
      </trkpt>
      <trkpt lat="43.71831" lon="7.01605">
        <ele>838.8876953</ele>
        <time>2009-12-05T11:05:12Z</time>
      </trkpt>
      <trkpt lat="43.7185" lon="7.01617">
        <ele>841.2907715</ele>
        <time>2009-12-05T11:05:28Z</time>
      </trkpt>
      <trkpt lat="43.71871" lon="7.01633">
        <ele>844.1750488</ele>
        <time>2009-12-05T11:05:46Z</time>
      </trkpt>
      <trkpt lat="43.71892" lon="7.01648">
        <ele>847.0588379</ele>
        <time>2009-12-05T11:06:03Z</time>
      </trkpt>
      <trkpt lat="43.71901" lon="7.01655">
        <ele>848.9814453</ele>
        <time>2009-12-05T11:06:11Z</time>
      </trkpt>
      <trkpt lat="43.71907" lon="7.0166">
        <ele>849.4621582</ele>
        <time>2009-12-05T11:06:15Z</time>
      </trkpt>
      <trkpt lat="43.71923" lon="7.01671">
        <ele>851.8654785</ele>
        <time>2009-12-05T11:06:27Z</time>
      </trkpt>
      <trkpt lat="43.71928" lon="7.0165">
        <ele>854.2687988</ele>
        <time>2009-12-05T11:06:41Z</time>
      </trkpt>
      <trkpt lat="43.71929" lon="7.0164">
        <ele>854.7492676</ele>
        <time>2009-12-05T11:06:46Z</time>
      </trkpt>
      <trkpt lat="43.71929" lon="7.01597">
        <ele>857.1525879</ele>
        <time>2009-12-05T11:07:06Z</time>
      </trkpt>
      <trkpt lat="43.71922" lon="7.01561">
        <ele>860.0366211</ele>
        <time>2009-12-05T11:07:24Z</time>
      </trkpt>
      <trkpt lat="43.7192" lon="7.01544">
        <ele>861.9594727</ele>
        <time>2009-12-05T11:07:32Z</time>
      </trkpt>
      <trkpt lat="43.71917" lon="7.01532">
        <ele>862.4399414</ele>
        <time>2009-12-05T11:07:38Z</time>
      </trkpt>
      <trkpt lat="43.71942" lon="7.01514">
        <ele>864.8432617</ele>
        <time>2009-12-05T11:07:54Z</time>
      </trkpt>
      <trkpt lat="43.71965" lon="7.01501">
        <ele>865.8046875</ele>
        <time>2009-12-05T11:08:07Z</time>
      </trkpt>
      <trkpt lat="43.71988" lon="7.01421">
        <ele>866.7658691</ele>
        <time>2009-12-05T11:08:26Z</time>
      </trkpt>
      <trkpt lat="43.71985" lon="7.01353">
        <ele>868.2077637</ele>
        <time>2009-12-05T11:08:41Z</time>
      </trkpt>
      <trkpt lat="43.71965" lon="7.01277">
        <ele>871.5722656</ele>
        <time>2009-12-05T11:09:01Z</time>
      </trkpt>
      <trkpt lat="43.71983" lon="7.01229">
        <ele>873.0144043</ele>
        <time>2009-12-05T11:09:15Z</time>
      </trkpt>
      <trkpt lat="43.72002" lon="7.01159">
        <ele>874.4562988</ele>
        <time>2009-12-05T11:09:35Z</time>
      </trkpt>
      <trkpt lat="43.72018" lon="7.01095">
        <ele>875.8981934</ele>
        <time>2009-12-05T11:09:53Z</time>
      </trkpt>
      <trkpt lat="43.72023" lon="7.01079">
        <ele>875.8981934</ele>
        <time>2009-12-05T11:09:58Z</time>
      </trkpt>
      <trkpt lat="43.7205" lon="7.01082">
        <ele>875.8981934</ele>
        <time>2009-12-05T11:10:08Z</time>
      </trkpt>
      <trkpt lat="43.72052" lon="7.01092">
        <ele>876.3791504</ele>
        <time>2009-12-05T11:10:10Z</time>
      </trkpt>
      <trkpt lat="43.72064" lon="7.01146">
        <ele>878.7824707</ele>
        <time>2009-12-05T11:10:27Z</time>
      </trkpt>
      <trkpt lat="43.7209" lon="7.01183">
        <ele>881.6662598</ele>
        <time>2009-12-05T11:10:46Z</time>
      </trkpt>
      <trkpt lat="43.72109" lon="7.01205">
        <ele>885.0310059</ele>
        <time>2009-12-05T11:11:01Z</time>
      </trkpt>
      <trkpt lat="43.72148" lon="7.01223">
        <ele>887.9147949</ele>
        <time>2009-12-05T11:11:22Z</time>
      </trkpt>
      <trkpt lat="43.72198" lon="7.0121">
        <ele>888.3955078</ele>
        <time>2009-12-05T11:11:39Z</time>
      </trkpt>
      <trkpt lat="43.7222" lon="7.01227">
        <ele>889.8374023</ele>
        <time>2009-12-05T11:11:50Z</time>
      </trkpt>
      <trkpt lat="43.72219" lon="7.01262">
        <ele>892.2409668</ele>
        <time>2009-12-05T11:12:03Z</time>
      </trkpt>
      <trkpt lat="43.72216" lon="7.01308">
        <ele>895.1247559</ele>
        <time>2009-12-05T11:12:22Z</time>
      </trkpt>
      <trkpt lat="43.72212" lon="7.01357">
        <ele>898.4892578</ele>
        <time>2009-12-05T11:12:42Z</time>
      </trkpt>
      <trkpt lat="43.72212" lon="7.01406">
        <ele>901.373291</ele>
        <time>2009-12-05T11:13:02Z</time>
      </trkpt>
      <trkpt lat="43.72215" lon="7.01444">
        <ele>904.737793</ele>
        <time>2009-12-05T11:13:19Z</time>
      </trkpt>
      <trkpt lat="43.72222" lon="7.01467">
        <ele>907.1411133</ele>
        <time>2009-12-05T11:13:31Z</time>
      </trkpt>
      <trkpt lat="43.7223" lon="7.01462">
        <ele>908.583252</ele>
        <time>2009-12-05T11:13:37Z</time>
      </trkpt>
      <trkpt lat="43.72238" lon="7.01442">
        <ele>911.4672852</ele>
        <time>2009-12-05T11:13:48Z</time>
      </trkpt>
      <trkpt lat="43.72263" lon="7.01415">
        <ele>914.8317871</ele>
        <time>2009-12-05T11:14:07Z</time>
      </trkpt>
      <trkpt lat="43.72306" lon="7.01403">
        <ele>917.2351074</ele>
        <time>2009-12-05T11:14:29Z</time>
      </trkpt>
      <trkpt lat="43.72345" lon="7.01397">
        <ele>920.1188965</ele>
        <time>2009-12-05T11:14:48Z</time>
      </trkpt>
      <trkpt lat="43.72377" lon="7.01385">
        <ele>923.4836426</ele>
        <time>2009-12-05T11:15:04Z</time>
      </trkpt>
      <trkpt lat="43.72414" lon="7.01365">
        <ele>925.8869629</ele>
        <time>2009-12-05T11:15:22Z</time>
      </trkpt>
      <trkpt lat="43.72459" lon="7.01335">
        <ele>926.8483887</ele>
        <time>2009-12-05T11:15:41Z</time>
      </trkpt>
      <trkpt lat="43.72514" lon="7.01299">
        <ele>929.2514648</ele>
        <time>2009-12-05T11:16:03Z</time>
      </trkpt>
      <trkpt lat="43.72544" lon="7.01269">
        <ele>932.135498</ele>
        <time>2009-12-05T11:16:18Z</time>
      </trkpt>
      <trkpt lat="43.72573" lon="7.0124">
        <ele>935.5</ele>
        <time>2009-12-05T11:16:33Z</time>
      </trkpt>
      <trkpt lat="43.72613" lon="7.01221">
        <ele>938.8647461</ele>
        <time>2009-12-05T11:16:52Z</time>
      </trkpt>
      <trkpt lat="43.72643" lon="7.01202">
        <ele>941.7487793</ele>
        <time>2009-12-05T11:17:08Z</time>
      </trkpt>
      <trkpt lat="43.7266" lon="7.01198">
        <ele>942.7102051</ele>
        <time>2009-12-05T11:17:23Z</time>
      </trkpt>
      <trkpt lat="43.7266" lon="7.01198">
        <ele>942.7102051</ele>
        <time>2009-12-05T11:17:49Z</time>
      </trkpt>
      <trkpt lat="43.7266" lon="7.01198">
        <ele>942.7102051</ele>
        <time>2009-12-05T11:17:54Z</time>
      </trkpt>
      <trkpt lat="43.72665" lon="7.01198">
        <ele>942.7102051</ele>
        <time>2009-12-05T11:17:56Z</time>
      </trkpt>
      <trkpt lat="43.72686" lon="7.012">
        <ele>942.7102051</ele>
        <time>2009-12-05T11:18:12Z</time>
      </trkpt>
      <trkpt lat="43.72686" lon="7.012">
        <ele>942.2294922</ele>
        <time>2009-12-05T11:18:27Z</time>
      </trkpt>
      <trkpt lat="43.72686" lon="7.012">
        <ele>940.7873535</ele>
        <time>2009-12-05T11:19:38Z</time>
      </trkpt>
      <trkpt lat="43.72686" lon="7.012">
        <ele>940.3068848</ele>
        <time>2009-12-05T11:26:49Z</time>
      </trkpt>
      <trkpt lat="43.72686" lon="7.012">
        <ele>939.3452148</ele>
        <time>2009-12-05T11:28:48Z</time>
      </trkpt>
      <trkpt lat="43.72686" lon="7.012">
        <ele>941.7487793</ele>
        <time>2009-12-05T11:33:23Z</time>
      </trkpt>
      <trkpt lat="43.72706" lon="7.0122">
        <ele>939.3452148</ele>
        <time>2009-12-05T11:34:40Z</time>
      </trkpt>
      <trkpt lat="43.72716" lon="7.01234">
        <ele>938.3840332</ele>
        <time>2009-12-05T11:34:43Z</time>
      </trkpt>
      <trkpt lat="43.72734" lon="7.01259">
        <ele>935.9807129</ele>
        <time>2009-12-05T11:34:47Z</time>
      </trkpt>
      <trkpt lat="43.72742" lon="7.0127">
        <ele>934.5388184</ele>
        <time>2009-12-05T11:34:49Z</time>
      </trkpt>
      <trkpt lat="43.72758" lon="7.01296">
        <ele>930.6936035</ele>
        <time>2009-12-05T11:34:53Z</time>
      </trkpt>
      <trkpt lat="43.72768" lon="7.01316">
        <ele>927.8095703</ele>
        <time>2009-12-05T11:34:55Z</time>
      </trkpt>
      <trkpt lat="43.72797" lon="7.01347">
        <ele>923.9641113</ele>
        <time>2009-12-05T11:34:59Z</time>
      </trkpt>
      <trkpt lat="43.72821" lon="7.01363">
        <ele>917.7155762</ele>
        <time>2009-12-05T11:35:03Z</time>
      </trkpt>
      <trkpt lat="43.72823" lon="7.01363">
        <ele>914.3510742</ele>
        <time>2009-12-05T11:35:07Z</time>
      </trkpt>
      <trkpt lat="43.72842" lon="7.01365">
        <ele>911.4672852</ele>
        <time>2009-12-05T11:35:13Z</time>
      </trkpt>
      <trkpt lat="43.7284" lon="7.01355">
        <ele>910.0251465</ele>
        <time>2009-12-05T11:35:16Z</time>
      </trkpt>
      <trkpt lat="43.72846" lon="7.01317">
        <ele>906.1796875</ele>
        <time>2009-12-05T11:35:20Z</time>
      </trkpt>
      <trkpt lat="43.72849" lon="7.01305">
        <ele>905.2185059</ele>
        <time>2009-12-05T11:35:21Z</time>
      </trkpt>
      <trkpt lat="43.72844" lon="7.01257">
        <ele>903.2958984</ele>
        <time>2009-12-05T11:35:25Z</time>
      </trkpt>
      <trkpt lat="43.72833" lon="7.01231">
        <ele>898.9699707</ele>
        <time>2009-12-05T11:35:29Z</time>
      </trkpt>
      <trkpt lat="43.72836" lon="7.01191">
        <ele>897.5280762</ele>
        <time>2009-12-05T11:35:33Z</time>
      </trkpt>
      <trkpt lat="43.72875" lon="7.01132">
        <ele>893.6828613</ele>
        <time>2009-12-05T11:35:40Z</time>
      </trkpt>
      <trkpt lat="43.72892" lon="7.01108">
        <ele>891.2792969</ele>
        <time>2009-12-05T11:35:43Z</time>
      </trkpt>
      <trkpt lat="43.72909" lon="7.01052">
        <ele>888.8762207</ele>
        <time>2009-12-05T11:35:48Z</time>
      </trkpt>
      <trkpt lat="43.72912" lon="7.01043">
        <ele>888.3955078</ele>
        <time>2009-12-05T11:35:49Z</time>
      </trkpt>
      <trkpt lat="43.72925" lon="7.01013">
        <ele>886.9533691</ele>
        <time>2009-12-05T11:35:52Z</time>
      </trkpt>
      <trkpt lat="43.7293" lon="7.01004">
        <ele>886.9533691</ele>
        <time>2009-12-05T11:35:53Z</time>
      </trkpt>
      <trkpt lat="43.72939" lon="7.00987">
        <ele>885.5114746</ele>
        <time>2009-12-05T11:35:55Z</time>
      </trkpt>
      <trkpt lat="43.72943" lon="7.00978">
        <ele>884.550293</ele>
        <time>2009-12-05T11:35:56Z</time>
      </trkpt>
      <trkpt lat="43.72961" lon="7.00945">
        <ele>880.2243652</ele>
        <time>2009-12-05T11:36:02Z</time>
      </trkpt>
      <trkpt lat="43.72962" lon="7.00943">
        <ele>879.7436523</ele>
        <time>2009-12-05T11:36:03Z</time>
      </trkpt>
      <trkpt lat="43.72962" lon="7.00943">
        <ele>878.7824707</ele>
        <time>2009-12-05T11:36:19Z</time>
      </trkpt>
      <trkpt lat="43.72962" lon="7.00943">
        <ele>878.3017578</ele>
        <time>2009-12-05T11:36:22Z</time>
      </trkpt>
      <trkpt lat="43.72987" lon="7.00951">
        <ele>874.4562988</ele>
        <time>2009-12-05T11:36:29Z</time>
      </trkpt>
      <trkpt lat="43.72988" lon="7.00951">
        <ele>873.4951172</ele>
        <time>2009-12-05T11:36:31Z</time>
      </trkpt>
      <trkpt lat="43.73005" lon="7.01016">
        <ele>870.611084</ele>
        <time>2009-12-05T11:36:38Z</time>
      </trkpt>
      <trkpt lat="43.73014" lon="7.01053">
        <ele>868.6884766</ele>
        <time>2009-12-05T11:36:43Z</time>
      </trkpt>
      <trkpt lat="43.73019" lon="7.01076">
        <ele>866.7658691</ele>
        <time>2009-12-05T11:36:48Z</time>
      </trkpt>
      <trkpt lat="43.73024" lon="7.01087">
        <ele>865.3239746</ele>
        <time>2009-12-05T11:37:00Z</time>
      </trkpt>
      <trkpt lat="43.73024" lon="7.01087">
        <ele>865.8046875</ele>
        <time>2009-12-05T11:37:12Z</time>
      </trkpt>
      <trkpt lat="43.73025" lon="7.01115">
        <ele>862.4399414</ele>
        <time>2009-12-05T11:37:20Z</time>
      </trkpt>
      <trkpt lat="43.73022" lon="7.0112">
        <ele>861.4787598</ele>
        <time>2009-12-05T11:37:22Z</time>
      </trkpt>
      <trkpt lat="43.7301" lon="7.01132">
        <ele>858.1140137</ele>
        <time>2009-12-05T11:37:30Z</time>
      </trkpt>
      <trkpt lat="43.7301" lon="7.01133">
        <ele>857.6333008</ele>
        <time>2009-12-05T11:37:44Z</time>
      </trkpt>
      <trkpt lat="43.7301" lon="7.01133">
        <ele>857.6333008</ele>
        <time>2009-12-05T11:38:07Z</time>
      </trkpt>
      <trkpt lat="43.73003" lon="7.01172">
        <ele>859.0751953</ele>
        <time>2009-12-05T11:39:01Z</time>
      </trkpt>
      <trkpt lat="43.73004" lon="7.01174">
        <ele>858.5944824</ele>
        <time>2009-12-05T11:39:02Z</time>
      </trkpt>
      <trkpt lat="43.73008" lon="7.01182">
        <ele>859.0751953</ele>
        <time>2009-12-05T11:39:05Z</time>
      </trkpt>
      <trkpt lat="43.73016" lon="7.01188">
        <ele>859.0751953</ele>
        <time>2009-12-05T11:39:09Z</time>
      </trkpt>
      <trkpt lat="43.73034" lon="7.01193">
        <ele>860.9980469</ele>
        <time>2009-12-05T11:39:21Z</time>
      </trkpt>
      <trkpt lat="43.7304" lon="7.01196">
        <ele>860.9980469</ele>
        <time>2009-12-05T11:39:24Z</time>
      </trkpt>
      <trkpt lat="43.73068" lon="7.0122">
        <ele>861.9594727</ele>
        <time>2009-12-05T11:39:36Z</time>
      </trkpt>
      <trkpt lat="43.73096" lon="7.01262">
        <ele>860.9980469</ele>
        <time>2009-12-05T11:39:48Z</time>
      </trkpt>
      <trkpt lat="43.73099" lon="7.01269">
        <ele>860.517334</ele>
        <time>2009-12-05T11:39:50Z</time>
      </trkpt>
      <trkpt lat="43.73107" lon="7.0129">
        <ele>860.0366211</ele>
        <time>2009-12-05T11:39:55Z</time>
      </trkpt>
      <trkpt lat="43.73114" lon="7.01296">
        <ele>859.5559082</ele>
        <time>2009-12-05T11:39:59Z</time>
      </trkpt>
      <trkpt lat="43.73146" lon="7.01308">
        <ele>858.1140137</ele>
        <time>2009-12-05T11:40:10Z</time>
      </trkpt>
      <trkpt lat="43.73161" lon="7.01311">
        <ele>856.1911621</ele>
        <time>2009-12-05T11:40:18Z</time>
      </trkpt>
      <trkpt lat="43.73174" lon="7.01326">
        <ele>854.2687988</ele>
        <time>2009-12-05T11:41:28Z</time>
      </trkpt>
      <trkpt lat="43.7318" lon="7.01333">
        <ele>852.8266602</ele>
        <time>2009-12-05T11:41:31Z</time>
      </trkpt>
      <trkpt lat="43.73191" lon="7.01348">
        <ele>849.9428711</ele>
        <time>2009-12-05T11:41:39Z</time>
      </trkpt>
      <trkpt lat="43.73192" lon="7.01351">
        <ele>849.4621582</ele>
        <time>2009-12-05T11:41:40Z</time>
      </trkpt>
      <trkpt lat="43.73192" lon="7.01351">
        <ele>848.9814453</ele>
        <time>2009-12-05T11:41:51Z</time>
      </trkpt>
      <trkpt lat="43.73205" lon="7.0137">
        <ele>845.6169434</ele>
        <time>2009-12-05T11:44:16Z</time>
      </trkpt>
      <trkpt lat="43.73217" lon="7.01394">
        <ele>842.7329102</ele>
        <time>2009-12-05T11:44:23Z</time>
      </trkpt>
      <trkpt lat="43.73222" lon="7.01402">
        <ele>842.2521973</ele>
        <time>2009-12-05T11:44:25Z</time>
      </trkpt>
      <trkpt lat="43.73251" lon="7.01432">
        <ele>840.3295898</ele>
        <time>2009-12-05T11:44:32Z</time>
      </trkpt>
      <trkpt lat="43.73279" lon="7.01452">
        <ele>840.3295898</ele>
        <time>2009-12-05T11:44:42Z</time>
      </trkpt>
      <trkpt lat="43.73319" lon="7.01493">
        <ele>839.848877</ele>
        <time>2009-12-05T11:44:56Z</time>
      </trkpt>
      <trkpt lat="43.7335" lon="7.01538">
        <ele>837.9262695</ele>
        <time>2009-12-05T11:45:06Z</time>
      </trkpt>
      <trkpt lat="43.73364" lon="7.01553">
        <ele>837.4455566</ele>
        <time>2009-12-05T11:45:10Z</time>
      </trkpt>
      <trkpt lat="43.73407" lon="7.01587">
        <ele>838.4069824</ele>
        <time>2009-12-05T11:45:24Z</time>
      </trkpt>
      <trkpt lat="43.73449" lon="7.01623">
        <ele>836.9648438</ele>
        <time>2009-12-05T11:45:37Z</time>
      </trkpt>
      <trkpt lat="43.73491" lon="7.01661">
        <ele>837.9262695</ele>
        <time>2009-12-05T11:45:51Z</time>
      </trkpt>
      <trkpt lat="43.73521" lon="7.01694">
        <ele>839.3681641</ele>
        <time>2009-12-05T11:46:06Z</time>
      </trkpt>
      <trkpt lat="43.73533" lon="7.01713">
        <ele>840.3295898</ele>
        <time>2009-12-05T11:46:14Z</time>
      </trkpt>
      <trkpt lat="43.73538" lon="7.01739">
        <ele>838.4069824</ele>
        <time>2009-12-05T11:46:19Z</time>
      </trkpt>
      <trkpt lat="43.73542" lon="7.01769">
        <ele>836.484375</ele>
        <time>2009-12-05T11:46:25Z</time>
      </trkpt>
      <trkpt lat="43.73556" lon="7.01779">
        <ele>835.5229492</ele>
        <time>2009-12-05T11:46:30Z</time>
      </trkpt>
      <trkpt lat="43.73568" lon="7.01788">
        <ele>834.0810547</ele>
        <time>2009-12-05T11:46:36Z</time>
      </trkpt>
      <trkpt lat="43.73577" lon="7.01786">
        <ele>834.0810547</ele>
        <time>2009-12-05T11:46:41Z</time>
      </trkpt>
      <trkpt lat="43.73602" lon="7.01768">
        <ele>835.0424805</ele>
        <time>2009-12-05T11:46:53Z</time>
      </trkpt>
      <trkpt lat="43.73607" lon="7.0177">
        <ele>835.0424805</ele>
        <time>2009-12-05T11:46:55Z</time>
      </trkpt>
      <trkpt lat="43.73617" lon="7.01776">
        <ele>835.0424805</ele>
        <time>2009-12-05T11:46:59Z</time>
      </trkpt>
      <trkpt lat="43.73646" lon="7.01798">
        <ele>832.1584473</ele>
        <time>2009-12-05T11:47:11Z</time>
      </trkpt>
      <trkpt lat="43.73649" lon="7.01798">
        <ele>832.1584473</ele>
        <time>2009-12-05T11:47:12Z</time>
      </trkpt>
      <trkpt lat="43.73665" lon="7.018">
        <ele>832.6391602</ele>
        <time>2009-12-05T11:47:17Z</time>
      </trkpt>
      <trkpt lat="43.73696" lon="7.01794">
        <ele>832.1584473</ele>
        <time>2009-12-05T11:47:26Z</time>
      </trkpt>
      <trkpt lat="43.73722" lon="7.01786">
        <ele>834.0810547</ele>
        <time>2009-12-05T11:47:37Z</time>
      </trkpt>
      <trkpt lat="43.73749" lon="7.01785">
        <ele>836.0036621</ele>
        <time>2009-12-05T11:47:48Z</time>
      </trkpt>
      <trkpt lat="43.73783" lon="7.01784">
        <ele>836.9648438</ele>
        <time>2009-12-05T11:48:02Z</time>
      </trkpt>
      <trkpt lat="43.73811" lon="7.01782">
        <ele>837.9262695</ele>
        <time>2009-12-05T11:48:12Z</time>
      </trkpt>
      <trkpt lat="43.7382" lon="7.0178">
        <ele>837.4455566</ele>
        <time>2009-12-05T11:48:16Z</time>
      </trkpt>
      <trkpt lat="43.73863" lon="7.01778">
        <ele>838.8876953</ele>
        <time>2009-12-05T11:48:33Z</time>
      </trkpt>
      <trkpt lat="43.73889" lon="7.01776">
        <ele>841.7714844</ele>
        <time>2009-12-05T11:48:45Z</time>
      </trkpt>
      <trkpt lat="43.73898" lon="7.01774">
        <ele>842.7329102</ele>
        <time>2009-12-05T11:48:52Z</time>
      </trkpt>
      <trkpt lat="43.73922" lon="7.01769">
        <ele>845.6169434</ele>
        <time>2009-12-05T11:49:05Z</time>
      </trkpt>
      <trkpt lat="43.73971" lon="7.01771">
        <ele>847.5395508</ele>
        <time>2009-12-05T11:49:25Z</time>
      </trkpt>
      <trkpt lat="43.74015" lon="7.01787">
        <ele>848.9814453</ele>
        <time>2009-12-05T11:49:43Z</time>
      </trkpt>
      <trkpt lat="43.74049" lon="7.01798">
        <ele>851.8654785</ele>
        <time>2009-12-05T11:50:02Z</time>
      </trkpt>
      <trkpt lat="43.74086" lon="7.01812">
        <ele>852.8266602</ele>
        <time>2009-12-05T11:50:18Z</time>
      </trkpt>
      <trkpt lat="43.74125" lon="7.01812">
        <ele>853.7880859</ele>
        <time>2009-12-05T11:50:31Z</time>
      </trkpt>
      <trkpt lat="43.7416" lon="7.018">
        <ele>855.7106934</ele>
        <time>2009-12-05T11:50:44Z</time>
      </trkpt>
      <trkpt lat="43.74197" lon="7.01791">
        <ele>857.6333008</ele>
        <time>2009-12-05T11:51:02Z</time>
      </trkpt>
      <trkpt lat="43.74224" lon="7.01784">
        <ele>860.9980469</ele>
        <time>2009-12-05T11:51:16Z</time>
      </trkpt>
      <trkpt lat="43.74237" lon="7.01779">
        <ele>862.4399414</ele>
        <time>2009-12-05T11:51:23Z</time>
      </trkpt>
      <trkpt lat="43.74278" lon="7.01768">
        <ele>863.8818359</ele>
        <time>2009-12-05T11:51:40Z</time>
      </trkpt>
      <trkpt lat="43.74321" lon="7.0175">
        <ele>864.8432617</ele>
        <time>2009-12-05T11:51:56Z</time>
      </trkpt>
      <trkpt lat="43.74339" lon="7.01741">
        <ele>865.8046875</ele>
        <time>2009-12-05T11:52:02Z</time>
      </trkpt>
      <trkpt lat="43.74346" lon="7.01738">
        <ele>865.8046875</ele>
        <time>2009-12-05T11:52:05Z</time>
      </trkpt>
      <trkpt lat="43.74349" lon="7.01734">
        <ele>866.2851563</ele>
        <time>2009-12-05T11:52:07Z</time>
      </trkpt>
      <trkpt lat="43.7438" lon="7.01698">
        <ele>868.6884766</ele>
        <time>2009-12-05T11:52:27Z</time>
      </trkpt>
      <trkpt lat="43.7442" lon="7.01666">
        <ele>870.611084</ele>
        <time>2009-12-05T11:52:43Z</time>
      </trkpt>
      <trkpt lat="43.74459" lon="7.01627">
        <ele>871.0917969</ele>
        <time>2009-12-05T11:52:58Z</time>
      </trkpt>
      <trkpt lat="43.74487" lon="7.01596">
        <ele>873.4951172</ele>
        <time>2009-12-05T11:53:13Z</time>
      </trkpt>
      <trkpt lat="43.74522" lon="7.01562">
        <ele>874.9370117</ele>
        <time>2009-12-05T11:53:32Z</time>
      </trkpt>
      <trkpt lat="43.74553" lon="7.01539">
        <ele>876.8598633</ele>
        <time>2009-12-05T11:53:46Z</time>
      </trkpt>
      <trkpt lat="43.74586" lon="7.01529">
        <ele>877.3405762</ele>
        <time>2009-12-05T11:53:58Z</time>
      </trkpt>
      <trkpt lat="43.74617" lon="7.01526">
        <ele>878.7824707</ele>
        <time>2009-12-05T11:54:13Z</time>
      </trkpt>
      <trkpt lat="43.74629" lon="7.01522">
        <ele>880.7050781</ele>
        <time>2009-12-05T11:54:30Z</time>
      </trkpt>
      <trkpt lat="43.74656" lon="7.01508">
        <ele>882.1469727</ele>
        <time>2009-12-05T11:54:37Z</time>
      </trkpt>
      <trkpt lat="43.74679" lon="7.01482">
        <ele>884.550293</ele>
        <time>2009-12-05T11:54:55Z</time>
      </trkpt>
      <trkpt lat="43.74701" lon="7.01444">
        <ele>887.434082</ele>
        <time>2009-12-05T11:55:15Z</time>
      </trkpt>
      <trkpt lat="43.74719" lon="7.01413">
        <ele>889.8374023</ele>
        <time>2009-12-05T11:55:31Z</time>
      </trkpt>
      <trkpt lat="43.74753" lon="7.01408">
        <ele>888.8762207</ele>
        <time>2009-12-05T11:55:43Z</time>
      </trkpt>
      <trkpt lat="43.74795" lon="7.0146">
        <ele>891.2792969</ele>
        <time>2009-12-05T11:56:01Z</time>
      </trkpt>
      <trkpt lat="43.74819" lon="7.01492">
        <ele>890.3181152</ele>
        <time>2009-12-05T11:56:15Z</time>
      </trkpt>
      <trkpt lat="43.74845" lon="7.01535">
        <ele>891.2792969</ele>
        <time>2009-12-05T11:56:32Z</time>
      </trkpt>
      <trkpt lat="43.7486" lon="7.01553">
        <ele>893.6828613</ele>
        <time>2009-12-05T11:56:49Z</time>
      </trkpt>
      <trkpt lat="43.7486" lon="7.01553">
        <ele>894.1635742</ele>
        <time>2009-12-05T11:56:50Z</time>
      </trkpt>
      <trkpt lat="43.74885" lon="7.0157">
        <ele>896.5668945</ele>
        <time>2009-12-05T11:57:05Z</time>
      </trkpt>
      <trkpt lat="43.74906" lon="7.0158">
        <ele>898.4892578</ele>
        <time>2009-12-05T11:57:23Z</time>
      </trkpt>
      <trkpt lat="43.74906" lon="7.0158">
        <ele>898.4892578</ele>
        <time>2009-12-05T11:58:08Z</time>
      </trkpt>
      <trkpt lat="43.74906" lon="7.0158">
        <ele>901.373291</ele>
        <time>2009-12-05T11:58:25Z</time>
      </trkpt>
      <trkpt lat="43.74906" lon="7.0158">
        <ele>903.7766113</ele>
        <time>2009-12-05T11:58:41Z</time>
      </trkpt>
      <trkpt lat="43.74906" lon="7.0158">
        <ele>907.1411133</ele>
        <time>2009-12-05T11:59:00Z</time>
      </trkpt>
      <trkpt lat="43.74906" lon="7.0158">
        <ele>908.1027832</ele>
        <time>2009-12-05T11:59:13Z</time>
      </trkpt>
      <trkpt lat="43.74906" lon="7.0158">
        <ele>911.947998</ele>
        <time>2009-12-05T11:59:32Z</time>
      </trkpt>
      <trkpt lat="43.75001" lon="7.01617">
        <ele>914.8317871</ele>
        <time>2009-12-05T11:59:51Z</time>
      </trkpt>
      <trkpt lat="43.75006" lon="7.01617">
        <ele>915.3125</ele>
        <time>2009-12-05T11:59:57Z</time>
      </trkpt>
      <trkpt lat="43.75025" lon="7.01621">
        <ele>917.7155762</ele>
        <time>2009-12-05T12:00:16Z</time>
      </trkpt>
      <trkpt lat="43.75042" lon="7.01624">
        <ele>919.6384277</ele>
        <time>2009-12-05T12:00:32Z</time>
      </trkpt>
      <trkpt lat="43.75058" lon="7.01624">
        <ele>922.5222168</ele>
        <time>2009-12-05T12:00:49Z</time>
      </trkpt>
      <trkpt lat="43.75073" lon="7.01627">
        <ele>925.8869629</ele>
        <time>2009-12-05T12:01:06Z</time>
      </trkpt>
      <trkpt lat="43.75084" lon="7.01626">
        <ele>928.2902832</ele>
        <time>2009-12-05T12:01:22Z</time>
      </trkpt>
      <trkpt lat="43.7509" lon="7.01619">
        <ele>930.2128906</ele>
        <time>2009-12-05T12:01:33Z</time>
      </trkpt>
      <trkpt lat="43.75093" lon="7.01612">
        <ele>931.1743164</ele>
        <time>2009-12-05T12:01:42Z</time>
      </trkpt>
      <trkpt lat="43.75099" lon="7.01606">
        <ele>932.6162109</ele>
        <time>2009-12-05T12:02:02Z</time>
      </trkpt>
      <trkpt lat="43.751" lon="7.01606">
        <ele>933.0966797</ele>
        <time>2009-12-05T12:02:25Z</time>
      </trkpt>
      <trkpt lat="43.75111" lon="7.01608">
        <ele>933.0966797</ele>
        <time>2009-12-05T12:02:33Z</time>
      </trkpt>
      <trkpt lat="43.75151" lon="7.01624">
        <ele>932.6162109</ele>
        <time>2009-12-05T12:02:46Z</time>
      </trkpt>
      <trkpt lat="43.75204" lon="7.01671">
        <ele>932.6162109</ele>
        <time>2009-12-05T12:03:03Z</time>
      </trkpt>
      <trkpt lat="43.75257" lon="7.01716">
        <ele>933.0966797</ele>
        <time>2009-12-05T12:03:21Z</time>
      </trkpt>
      <trkpt lat="43.75297" lon="7.01751">
        <ele>935.5</ele>
        <time>2009-12-05T12:03:38Z</time>
      </trkpt>
      <trkpt lat="43.75326" lon="7.01774">
        <ele>938.8647461</ele>
        <time>2009-12-05T12:03:55Z</time>
      </trkpt>
      <trkpt lat="43.75355" lon="7.01801">
        <ele>940.7873535</ele>
        <time>2009-12-05T12:04:13Z</time>
      </trkpt>
      <trkpt lat="43.75364" lon="7.01802">
        <ele>941.2680664</ele>
        <time>2009-12-05T12:04:17Z</time>
      </trkpt>
      <trkpt lat="43.75401" lon="7.01792">
        <ele>942.7102051</ele>
        <time>2009-12-05T12:04:34Z</time>
      </trkpt>
      <trkpt lat="43.75448" lon="7.01803">
        <ele>944.6325684</ele>
        <time>2009-12-05T12:04:54Z</time>
      </trkpt>
      <trkpt lat="43.75486" lon="7.01814">
        <ele>944.1520996</ele>
        <time>2009-12-05T12:05:08Z</time>
      </trkpt>
      <trkpt lat="43.75495" lon="7.01817">
        <ele>944.1520996</ele>
        <time>2009-12-05T12:05:18Z</time>
      </trkpt>
      <trkpt lat="43.75531" lon="7.01825">
        <ele>943.6713867</ele>
        <time>2009-12-05T12:05:32Z</time>
      </trkpt>
      <trkpt lat="43.7556" lon="7.01828">
        <ele>942.2294922</ele>
        <time>2009-12-05T12:05:38Z</time>
      </trkpt>
      <trkpt lat="43.75607" lon="7.01836">
        <ele>941.7487793</ele>
        <time>2009-12-05T12:05:50Z</time>
      </trkpt>
      <trkpt lat="43.75635" lon="7.01844">
        <ele>943.6713867</ele>
        <time>2009-12-05T12:06:04Z</time>
      </trkpt>
      <trkpt lat="43.75682" lon="7.01859">
        <ele>946.074707</ele>
        <time>2009-12-05T12:06:24Z</time>
      </trkpt>
      <trkpt lat="43.75747" lon="7.01884">
        <ele>947.5166016</ele>
        <time>2009-12-05T12:06:47Z</time>
      </trkpt>
      <trkpt lat="43.75793" lon="7.01905">
        <ele>949.439209</ele>
        <time>2009-12-05T12:07:06Z</time>
      </trkpt>
      <trkpt lat="43.75794" lon="7.01906">
        <ele>949.439209</ele>
        <time>2009-12-05T12:07:07Z</time>
      </trkpt>
      <trkpt lat="43.75795" lon="7.01906">
        <ele>949.9199219</ele>
        <time>2009-12-05T12:07:09Z</time>
      </trkpt>
      <trkpt lat="43.75803" lon="7.01865">
        <ele>952.322998</ele>
        <time>2009-12-05T12:07:25Z</time>
      </trkpt>
      <trkpt lat="43.75803" lon="7.01803">
        <ele>954.2458496</ele>
        <time>2009-12-05T12:07:45Z</time>
      </trkpt>
      <trkpt lat="43.75804" lon="7.01744">
        <ele>954.2458496</ele>
        <time>2009-12-05T12:08:03Z</time>
      </trkpt>
      <trkpt lat="43.75813" lon="7.01699">
        <ele>957.6105957</ele>
        <time>2009-12-05T12:08:19Z</time>
      </trkpt>
      <trkpt lat="43.75798" lon="7.01652">
        <ele>958.5717773</ele>
        <time>2009-12-05T12:08:35Z</time>
      </trkpt>
      <trkpt lat="43.75793" lon="7.01615">
        <ele>958.5717773</ele>
        <time>2009-12-05T12:08:47Z</time>
      </trkpt>
      <trkpt lat="43.75808" lon="7.0158">
        <ele>958.5717773</ele>
        <time>2009-12-05T12:09:00Z</time>
      </trkpt>
      <trkpt lat="43.75853" lon="7.01538">
        <ele>957.1298828</ele>
        <time>2009-12-05T12:09:16Z</time>
      </trkpt>
      <trkpt lat="43.75861" lon="7.01533">
        <ele>956.168457</ele>
        <time>2009-12-05T12:09:18Z</time>
      </trkpt>
      <trkpt lat="43.75872" lon="7.01526">
        <ele>955.2070313</ele>
        <time>2009-12-05T12:09:21Z</time>
      </trkpt>
      <trkpt lat="43.75915" lon="7.01507">
        <ele>951.3618164</ele>
        <time>2009-12-05T12:09:31Z</time>
      </trkpt>
      <trkpt lat="43.75983" lon="7.01485">
        <ele>948.4777832</ele>
        <time>2009-12-05T12:09:45Z</time>
      </trkpt>
      <trkpt lat="43.76029" lon="7.01459">
        <ele>945.1132813</ele>
        <time>2009-12-05T12:09:56Z</time>
      </trkpt>
      <trkpt lat="43.76046" lon="7.01456">
        <ele>944.6325684</ele>
        <time>2009-12-05T12:10:00Z</time>
      </trkpt>
      <trkpt lat="43.76062" lon="7.01458">
        <ele>945.1132813</ele>
        <time>2009-12-05T12:10:04Z</time>
      </trkpt>
      <trkpt lat="43.76079" lon="7.01453">
        <ele>944.1520996</ele>
        <time>2009-12-05T12:10:08Z</time>
      </trkpt>
      <trkpt lat="43.76108" lon="7.01453">
        <ele>943.6713867</ele>
        <time>2009-12-05T12:10:14Z</time>
      </trkpt>
      <trkpt lat="43.76126" lon="7.01449">
        <ele>943.6713867</ele>
        <time>2009-12-05T12:10:18Z</time>
      </trkpt>
      <trkpt lat="43.76143" lon="7.01453">
        <ele>942.7102051</ele>
        <time>2009-12-05T12:10:22Z</time>
      </trkpt>
      <trkpt lat="43.76153" lon="7.01457">
        <ele>942.7102051</ele>
        <time>2009-12-05T12:10:25Z</time>
      </trkpt>
      <trkpt lat="43.76159" lon="7.01424">
        <ele>944.1520996</ele>
        <time>2009-12-05T12:10:36Z</time>
      </trkpt>
      <trkpt lat="43.76178" lon="7.01393">
        <ele>947.0358887</ele>
        <time>2009-12-05T12:10:50Z</time>
      </trkpt>
      <trkpt lat="43.76187" lon="7.01381">
        <ele>947.0358887</ele>
        <time>2009-12-05T12:10:56Z</time>
      </trkpt>
      <trkpt lat="43.76199" lon="7.01378">
        <ele>946.5554199</ele>
        <time>2009-12-05T12:11:01Z</time>
      </trkpt>
      <trkpt lat="43.76209" lon="7.01371">
        <ele>946.074707</ele>
        <time>2009-12-05T12:11:07Z</time>
      </trkpt>
      <trkpt lat="43.76204" lon="7.01339">
        <ele>947.0358887</ele>
        <time>2009-12-05T12:11:21Z</time>
      </trkpt>
      <trkpt lat="43.76223" lon="7.01313">
        <ele>945.5939941</ele>
        <time>2009-12-05T12:11:31Z</time>
      </trkpt>
      <trkpt lat="43.76259" lon="7.01299">
        <ele>946.074707</ele>
        <time>2009-12-05T12:11:43Z</time>
      </trkpt>
      <trkpt lat="43.76265" lon="7.01283">
        <ele>947.9973145</ele>
        <time>2009-12-05T12:11:50Z</time>
      </trkpt>
      <trkpt lat="43.76268" lon="7.01272">
        <ele>947.9973145</ele>
        <time>2009-12-05T12:11:54Z</time>
      </trkpt>
      <trkpt lat="43.76286" lon="7.01241">
        <ele>946.074707</ele>
        <time>2009-12-05T12:12:01Z</time>
      </trkpt>
      <trkpt lat="43.76308" lon="7.01219">
        <ele>945.5939941</ele>
        <time>2009-12-05T12:12:07Z</time>
      </trkpt>
      <trkpt lat="43.76305" lon="7.01166">
        <ele>948.4777832</ele>
        <time>2009-12-05T12:12:25Z</time>
      </trkpt>
      <trkpt lat="43.76312" lon="7.01135">
        <ele>948.9584961</ele>
        <time>2009-12-05T12:12:40Z</time>
      </trkpt>
      <trkpt lat="43.76314" lon="7.01136">
        <ele>949.439209</ele>
        <time>2009-12-05T12:12:53Z</time>
      </trkpt>
      <trkpt lat="43.76314" lon="7.01136">
        <ele>949.439209</ele>
        <time>2009-12-05T12:15:19Z</time>
      </trkpt>
      <trkpt lat="43.76304" lon="7.01157">
        <ele>949.439209</ele>
        <time>2009-12-05T12:15:32Z</time>
      </trkpt>
      <trkpt lat="43.76307" lon="7.01182">
        <ele>947.9973145</ele>
        <time>2009-12-05T12:15:37Z</time>
      </trkpt>
      <trkpt lat="43.76306" lon="7.01195">
        <ele>947.0358887</ele>
        <time>2009-12-05T12:15:39Z</time>
      </trkpt>
      <trkpt lat="43.76305" lon="7.01234">
        <ele>945.5939941</ele>
        <time>2009-12-05T12:15:46Z</time>
      </trkpt>
      <trkpt lat="43.76295" lon="7.01239">
        <ele>946.074707</ele>
        <time>2009-12-05T12:15:50Z</time>
      </trkpt>
      <trkpt lat="43.76272" lon="7.01264">
        <ele>947.9973145</ele>
        <time>2009-12-05T12:16:01Z</time>
      </trkpt>
      <trkpt lat="43.76262" lon="7.01292">
        <ele>947.9973145</ele>
        <time>2009-12-05T12:16:10Z</time>
      </trkpt>
      <trkpt lat="43.76245" lon="7.01307">
        <ele>946.5554199</ele>
        <time>2009-12-05T12:16:15Z</time>
      </trkpt>
      <trkpt lat="43.76212" lon="7.01323">
        <ele>947.5166016</ele>
        <time>2009-12-05T12:16:28Z</time>
      </trkpt>
      <trkpt lat="43.76208" lon="7.01362">
        <ele>946.074707</ele>
        <time>2009-12-05T12:16:41Z</time>
      </trkpt>
      <trkpt lat="43.76209" lon="7.01368">
        <ele>946.074707</ele>
        <time>2009-12-05T12:16:44Z</time>
      </trkpt>
      <trkpt lat="43.76195" lon="7.01381">
        <ele>946.5554199</ele>
        <time>2009-12-05T12:16:50Z</time>
      </trkpt>
      <trkpt lat="43.76189" lon="7.01382">
        <ele>946.5554199</ele>
        <time>2009-12-05T12:16:52Z</time>
      </trkpt>
      <trkpt lat="43.76179" lon="7.01395">
        <ele>946.5554199</ele>
        <time>2009-12-05T12:16:57Z</time>
      </trkpt>
      <trkpt lat="43.76159" lon="7.01419">
        <ele>945.1132813</ele>
        <time>2009-12-05T12:17:07Z</time>
      </trkpt>
      <trkpt lat="43.76156" lon="7.01438">
        <ele>943.1906738</ele>
        <time>2009-12-05T12:17:10Z</time>
      </trkpt>
      <trkpt lat="43.76155" lon="7.0145">
        <ele>942.7102051</ele>
        <time>2009-12-05T12:17:12Z</time>
      </trkpt>
      <trkpt lat="43.76146" lon="7.01454">
        <ele>942.7102051</ele>
        <time>2009-12-05T12:17:16Z</time>
      </trkpt>
      <trkpt lat="43.76105" lon="7.01453">
        <ele>943.1906738</ele>
        <time>2009-12-05T12:17:29Z</time>
      </trkpt>
      <trkpt lat="43.76059" lon="7.01457">
        <ele>945.1132813</ele>
        <time>2009-12-05T12:17:43Z</time>
      </trkpt>
      <trkpt lat="43.76024" lon="7.01462">
        <ele>944.6325684</ele>
        <time>2009-12-05T12:17:55Z</time>
      </trkpt>
      <trkpt lat="43.75998" lon="7.01478">
        <ele>947.0358887</ele>
        <time>2009-12-05T12:18:10Z</time>
      </trkpt>
      <trkpt lat="43.75977" lon="7.01488">
        <ele>947.9973145</ele>
        <time>2009-12-05T12:18:28Z</time>
      </trkpt>
      <trkpt lat="43.75977" lon="7.01488">
        <ele>947.5166016</ele>
        <time>2009-12-05T12:19:09Z</time>
      </trkpt>
      <trkpt lat="43.75949" lon="7.01497">
        <ele>949.9199219</ele>
        <time>2009-12-05T12:19:34Z</time>
      </trkpt>
      <trkpt lat="43.75942" lon="7.01498">
        <ele>950.4006348</ele>
        <time>2009-12-05T12:19:39Z</time>
      </trkpt>
      <trkpt lat="43.75895" lon="7.01513">
        <ele>952.8037109</ele>
        <time>2009-12-05T12:19:57Z</time>
      </trkpt>
      <trkpt lat="43.75864" lon="7.01531">
        <ele>955.2070313</ele>
        <time>2009-12-05T12:20:11Z</time>
      </trkpt>
      <trkpt lat="43.75829" lon="7.01554">
        <ele>957.6105957</ele>
        <time>2009-12-05T12:20:29Z</time>
      </trkpt>
      <trkpt lat="43.75829" lon="7.01554">
        <ele>957.6105957</ele>
        <time>2009-12-05T12:20:33Z</time>
      </trkpt>
      <trkpt lat="43.75823" lon="7.0156">
        <ele>957.6105957</ele>
        <time>2009-12-05T12:20:36Z</time>
      </trkpt>
      <trkpt lat="43.75811" lon="7.01576">
        <ele>957.6105957</ele>
        <time>2009-12-05T12:20:44Z</time>
      </trkpt>
      <trkpt lat="43.75801" lon="7.01574">
        <ele>957.6105957</ele>
        <time>2009-12-05T12:20:48Z</time>
      </trkpt>
      <trkpt lat="43.75797" lon="7.01571">
        <ele>957.6105957</ele>
        <time>2009-12-05T12:20:50Z</time>
      </trkpt>
      <trkpt lat="43.75794" lon="7.01569">
        <ele>957.1298828</ele>
        <time>2009-12-05T12:20:53Z</time>
      </trkpt>
      <trkpt lat="43.75813" lon="7.01561">
        <ele>957.1298828</ele>
        <time>2009-12-05T12:20:57Z</time>
      </trkpt>
      <trkpt lat="43.75819" lon="7.01544">
        <ele>953.2844238</ele>
        <time>2009-12-05T12:21:07Z</time>
      </trkpt>
      <trkpt lat="43.75819" lon="7.01544">
        <ele>952.322998</ele>
        <time>2009-12-05T12:21:32Z</time>
      </trkpt>
      <trkpt lat="43.75826" lon="7.0153">
        <ele>951.3618164</ele>
        <time>2009-12-05T12:21:34Z</time>
      </trkpt>
      <trkpt lat="43.75828" lon="7.01526">
        <ele>950.4006348</ele>
        <time>2009-12-05T12:21:36Z</time>
      </trkpt>
      <trkpt lat="43.75844" lon="7.01512">
        <ele>947.5166016</ele>
        <time>2009-12-05T12:21:48Z</time>
      </trkpt>
      <trkpt lat="43.75865" lon="7.01495">
        <ele>943.6713867</ele>
        <time>2009-12-05T12:21:58Z</time>
      </trkpt>
      <trkpt lat="43.75881" lon="7.01481">
        <ele>940.3068848</ele>
        <time>2009-12-05T12:22:06Z</time>
      </trkpt>
      <trkpt lat="43.75886" lon="7.01477">
        <ele>939.8259277</ele>
        <time>2009-12-05T12:22:08Z</time>
      </trkpt>
      <trkpt lat="43.75892" lon="7.01472">
        <ele>938.3840332</ele>
        <time>2009-12-05T12:22:11Z</time>
      </trkpt>
      <trkpt lat="43.75905" lon="7.01462">
        <ele>935.0195313</ele>
        <time>2009-12-05T12:22:16Z</time>
      </trkpt>
      <trkpt lat="43.75922" lon="7.01455">
        <ele>932.135498</ele>
        <time>2009-12-05T12:22:24Z</time>
      </trkpt>
      <trkpt lat="43.7594" lon="7.01447">
        <ele>928.2902832</ele>
        <time>2009-12-05T12:22:32Z</time>
      </trkpt>
      <trkpt lat="43.75962" lon="7.01435">
        <ele>925.8869629</ele>
        <time>2009-12-05T12:22:42Z</time>
      </trkpt>
      <trkpt lat="43.75986" lon="7.01418">
        <ele>922.5222168</ele>
        <time>2009-12-05T12:22:50Z</time>
      </trkpt>
      <trkpt lat="43.75987" lon="7.01417">
        <ele>922.5222168</ele>
        <time>2009-12-05T12:22:51Z</time>
      </trkpt>
      <trkpt lat="43.75995" lon="7.01409">
        <ele>921.0803223</ele>
        <time>2009-12-05T12:22:55Z</time>
      </trkpt>
      <trkpt lat="43.7601" lon="7.01386">
        <ele>916.7543945</ele>
        <time>2009-12-05T12:23:04Z</time>
      </trkpt>
      <trkpt lat="43.76015" lon="7.01378">
        <ele>915.3125</ele>
        <time>2009-12-05T12:23:07Z</time>
      </trkpt>
      <trkpt lat="43.76024" lon="7.01363">
        <ele>912.4284668</ele>
        <time>2009-12-05T12:23:13Z</time>
      </trkpt>
      <trkpt lat="43.76035" lon="7.01346">
        <ele>910.0251465</ele>
        <time>2009-12-05T12:23:19Z</time>
      </trkpt>
      <trkpt lat="43.76041" lon="7.0134">
        <ele>909.0639648</ele>
        <time>2009-12-05T12:23:21Z</time>
      </trkpt>
      <trkpt lat="43.76045" lon="7.01333">
        <ele>905.6992188</ele>
        <time>2009-12-05T12:23:29Z</time>
      </trkpt>
      <trkpt lat="43.76045" lon="7.01333">
        <ele>905.6992188</ele>
        <time>2009-12-05T12:23:40Z</time>
      </trkpt>
      <trkpt lat="43.76045" lon="7.01315">
        <ele>904.2573242</ele>
        <time>2009-12-05T12:23:43Z</time>
      </trkpt>
      <trkpt lat="43.76046" lon="7.013">
        <ele>902.8151855</ele>
        <time>2009-12-05T12:23:47Z</time>
      </trkpt>
      <trkpt lat="43.76055" lon="7.01277">
        <ele>901.373291</ele>
        <time>2009-12-05T12:23:55Z</time>
      </trkpt>
      <trkpt lat="43.76057" lon="7.01258">
        <ele>899.4506836</ele>
        <time>2009-12-05T12:24:02Z</time>
      </trkpt>
      <trkpt lat="43.76054" lon="7.01239">
        <ele>896.0861816</ele>
        <time>2009-12-05T12:24:08Z</time>
      </trkpt>
      <trkpt lat="43.76053" lon="7.01235">
        <ele>895.6054688</ele>
        <time>2009-12-05T12:24:09Z</time>
      </trkpt>
      <trkpt lat="43.76052" lon="7.01227">
        <ele>894.1635742</ele>
        <time>2009-12-05T12:24:11Z</time>
      </trkpt>
      <trkpt lat="43.7605" lon="7.01216">
        <ele>893.2021484</ele>
        <time>2009-12-05T12:24:13Z</time>
      </trkpt>
      <trkpt lat="43.7605" lon="7.01195">
        <ele>890.798584</ele>
        <time>2009-12-05T12:24:22Z</time>
      </trkpt>
      <trkpt lat="43.76058" lon="7.01169">
        <ele>891.2792969</ele>
        <time>2009-12-05T12:24:45Z</time>
      </trkpt>
      <trkpt lat="43.76062" lon="7.01157">
        <ele>892.2409668</ele>
        <time>2009-12-05T12:24:57Z</time>
      </trkpt>
      <trkpt lat="43.76062" lon="7.01157">
        <ele>892.7216797</ele>
        <time>2009-12-05T12:25:01Z</time>
      </trkpt>
      <trkpt lat="43.76078" lon="7.01122">
        <ele>892.2409668</ele>
        <time>2009-12-05T12:25:11Z</time>
      </trkpt>
      <trkpt lat="43.76081" lon="7.01117">
        <ele>893.2021484</ele>
        <time>2009-12-05T12:25:15Z</time>
      </trkpt>
      <trkpt lat="43.76088" lon="7.01072">
        <ele>890.798584</ele>
        <time>2009-12-05T12:25:28Z</time>
      </trkpt>
      <trkpt lat="43.76092" lon="7.01038">
        <ele>888.3955078</ele>
        <time>2009-12-05T12:25:39Z</time>
      </trkpt>
      <trkpt lat="43.76098" lon="7.00999">
        <ele>885.9921875</ele>
        <time>2009-12-05T12:25:50Z</time>
      </trkpt>
      <trkpt lat="43.76103" lon="7.00974">
        <ele>885.5114746</ele>
        <time>2009-12-05T12:26:02Z</time>
      </trkpt>
      <trkpt lat="43.76103" lon="7.00974">
        <ele>886.4729004</ele>
        <time>2009-12-05T12:26:18Z</time>
      </trkpt>
      <trkpt lat="43.7612" lon="7.00935">
        <ele>885.9921875</ele>
        <time>2009-12-05T12:26:31Z</time>
      </trkpt>
      <trkpt lat="43.7612" lon="7.00935">
        <ele>885.9921875</ele>
        <time>2009-12-05T12:26:44Z</time>
      </trkpt>
      <trkpt lat="43.7612" lon="7.00935">
        <ele>882.1469727</ele>
        <time>2009-12-05T12:27:01Z</time>
      </trkpt>
      <trkpt lat="43.76105" lon="7.00892">
        <ele>882.1469727</ele>
        <time>2009-12-05T12:27:17Z</time>
      </trkpt>
      <trkpt lat="43.76091" lon="7.00874">
        <ele>879.2629395</ele>
        <time>2009-12-05T12:27:25Z</time>
      </trkpt>
      <trkpt lat="43.76082" lon="7.00842">
        <ele>879.2629395</ele>
        <time>2009-12-05T12:27:37Z</time>
      </trkpt>
      <trkpt lat="43.76076" lon="7.00807">
        <ele>879.7436523</ele>
        <time>2009-12-05T12:27:48Z</time>
      </trkpt>
      <trkpt lat="43.76073" lon="7.00794">
        <ele>880.7050781</ele>
        <time>2009-12-05T12:27:54Z</time>
      </trkpt>
      <trkpt lat="43.76072" lon="7.00788">
        <ele>881.185791</ele>
        <time>2009-12-05T12:27:56Z</time>
      </trkpt>
      <trkpt lat="43.76066" lon="7.00751">
        <ele>881.185791</ele>
        <time>2009-12-05T12:28:08Z</time>
      </trkpt>
      <trkpt lat="43.76057" lon="7.00714">
        <ele>880.7050781</ele>
        <time>2009-12-05T12:28:21Z</time>
      </trkpt>
      <trkpt lat="43.76051" lon="7.00687">
        <ele>879.7436523</ele>
        <time>2009-12-05T12:28:31Z</time>
      </trkpt>
      <trkpt lat="43.76045" lon="7.00648">
        <ele>879.2629395</ele>
        <time>2009-12-05T12:28:41Z</time>
      </trkpt>
      <trkpt lat="43.76053" lon="7.00607">
        <ele>876.8598633</ele>
        <time>2009-12-05T12:28:50Z</time>
      </trkpt>
      <trkpt lat="43.76054" lon="7.00602">
        <ele>876.3791504</ele>
        <time>2009-12-05T12:28:53Z</time>
      </trkpt>
      <trkpt lat="43.76056" lon="7.00594">
        <ele>876.3791504</ele>
        <time>2009-12-05T12:28:56Z</time>
      </trkpt>
      <trkpt lat="43.76075" lon="7.00559">
        <ele>873.9755859</ele>
        <time>2009-12-05T12:29:05Z</time>
      </trkpt>
      <trkpt lat="43.76081" lon="7.00551">
        <ele>873.0144043</ele>
        <time>2009-12-05T12:29:07Z</time>
      </trkpt>
      <trkpt lat="43.76088" lon="7.0054">
        <ele>871.5722656</ele>
        <time>2009-12-05T12:29:10Z</time>
      </trkpt>
      <trkpt lat="43.76107" lon="7.00513">
        <ele>870.1303711</ele>
        <time>2009-12-05T12:29:17Z</time>
      </trkpt>
      <trkpt lat="43.7612" lon="7.00498">
        <ele>868.6884766</ele>
        <time>2009-12-05T12:29:21Z</time>
      </trkpt>
      <trkpt lat="43.76123" lon="7.00494">
        <ele>867.7270508</ele>
        <time>2009-12-05T12:29:22Z</time>
      </trkpt>
      <trkpt lat="43.76126" lon="7.00487">
        <ele>865.8046875</ele>
        <time>2009-12-05T12:29:25Z</time>
      </trkpt>
      <trkpt lat="43.76127" lon="7.00484">
        <ele>864.8432617</ele>
        <time>2009-12-05T12:29:27Z</time>
      </trkpt>
      <trkpt lat="43.76131" lon="7.00469">
        <ele>860.9980469</ele>
        <time>2009-12-05T12:29:33Z</time>
      </trkpt>
      <trkpt lat="43.76137" lon="7.00455">
        <ele>858.5944824</ele>
        <time>2009-12-05T12:29:38Z</time>
      </trkpt>
      <trkpt lat="43.76147" lon="7.00443">
        <ele>858.5944824</ele>
        <time>2009-12-05T12:29:43Z</time>
      </trkpt>
      <trkpt lat="43.76147" lon="7.00443">
        <ele>857.6333008</ele>
        <time>2009-12-05T12:29:46Z</time>
      </trkpt>
      <trkpt lat="43.76132" lon="7.00432">
        <ele>852.8266602</ele>
        <time>2009-12-05T12:29:54Z</time>
      </trkpt>
      <trkpt lat="43.76127" lon="7.00431">
        <ele>850.9040527</ele>
        <time>2009-12-05T12:29:59Z</time>
      </trkpt>
      <trkpt lat="43.76119" lon="7.00425">
        <ele>847.0588379</ele>
        <time>2009-12-05T12:30:08Z</time>
      </trkpt>
      <trkpt lat="43.76118" lon="7.00428">
        <ele>846.5783691</ele>
        <time>2009-12-05T12:31:11Z</time>
      </trkpt>
      <trkpt lat="43.76116" lon="7.00428">
        <ele>848.0202637</ele>
        <time>2009-12-05T12:32:28Z</time>
      </trkpt>
      <trkpt lat="43.76116" lon="7.00429">
        <ele>847.0588379</ele>
        <time>2009-12-05T12:33:03Z</time>
      </trkpt>
      <trkpt lat="43.76123" lon="7.00423">
        <ele>848.5007324</ele>
        <time>2009-12-05T12:37:58Z</time>
      </trkpt>
      <trkpt lat="43.76127" lon="7.00416">
        <ele>848.5007324</ele>
        <time>2009-12-05T12:38:01Z</time>
      </trkpt>
      <trkpt lat="43.76126" lon="7.00403">
        <ele>847.5395508</ele>
        <time>2009-12-05T12:38:05Z</time>
      </trkpt>
      <trkpt lat="43.76126" lon="7.00387">
        <ele>846.5783691</ele>
        <time>2009-12-05T12:38:08Z</time>
      </trkpt>
      <trkpt lat="43.7612" lon="7.00366">
        <ele>848.0202637</ele>
        <time>2009-12-05T12:38:15Z</time>
      </trkpt>
      <trkpt lat="43.76127" lon="7.0035">
        <ele>848.0202637</ele>
        <time>2009-12-05T12:38:20Z</time>
      </trkpt>
      <trkpt lat="43.7613" lon="7.00336">
        <ele>848.5007324</ele>
        <time>2009-12-05T12:38:26Z</time>
      </trkpt>
      <trkpt lat="43.76158" lon="7.00305">
        <ele>848.9814453</ele>
        <time>2009-12-05T12:38:39Z</time>
      </trkpt>
      <trkpt lat="43.76189" lon="7.00274">
        <ele>848.5007324</ele>
        <time>2009-12-05T12:38:53Z</time>
      </trkpt>
      <trkpt lat="43.76229" lon="7.00236">
        <ele>848.9814453</ele>
        <time>2009-12-05T12:39:08Z</time>
      </trkpt>
      <trkpt lat="43.76231" lon="7.00234">
        <ele>848.5007324</ele>
        <time>2009-12-05T12:39:11Z</time>
      </trkpt>
      <trkpt lat="43.76245" lon="7.0022">
        <ele>849.9428711</ele>
        <time>2009-12-05T12:39:23Z</time>
      </trkpt>
      <trkpt lat="43.76255" lon="7.00214">
        <ele>850.423584</ele>
        <time>2009-12-05T12:39:40Z</time>
      </trkpt>
      <trkpt lat="43.76256" lon="7.00213">
        <ele>850.9040527</ele>
        <time>2009-12-05T12:39:41Z</time>
      </trkpt>
      <trkpt lat="43.76258" lon="7.00209">
        <ele>850.423584</ele>
        <time>2009-12-05T12:39:44Z</time>
      </trkpt>
      <trkpt lat="43.76274" lon="7.00197">
        <ele>849.4621582</ele>
        <time>2009-12-05T12:40:03Z</time>
      </trkpt>
      <trkpt lat="43.76278" lon="7.00194">
        <ele>849.9428711</ele>
        <time>2009-12-05T12:40:07Z</time>
      </trkpt>
      <trkpt lat="43.76307" lon="7.00174">
        <ele>850.423584</ele>
        <time>2009-12-05T12:40:21Z</time>
      </trkpt>
      <trkpt lat="43.76334" lon="7.00153">
        <ele>849.9428711</ele>
        <time>2009-12-05T12:40:35Z</time>
      </trkpt>
      <trkpt lat="43.76351" lon="7.00139">
        <ele>850.9040527</ele>
        <time>2009-12-05T12:40:47Z</time>
      </trkpt>
      <trkpt lat="43.76364" lon="7.00129">
        <ele>852.3459473</ele>
        <time>2009-12-05T12:41:03Z</time>
      </trkpt>
      <trkpt lat="43.76375" lon="7.00119">
        <ele>854.7492676</ele>
        <time>2009-12-05T12:41:21Z</time>
      </trkpt>
      <trkpt lat="43.76387" lon="7.00104">
        <ele>856.1911621</ele>
        <time>2009-12-05T12:41:41Z</time>
      </trkpt>
      <trkpt lat="43.76388" lon="7.00101">
        <ele>856.1911621</ele>
        <time>2009-12-05T12:41:43Z</time>
      </trkpt>
      <trkpt lat="43.76398" lon="7.00093">
        <ele>857.1525879</ele>
        <time>2009-12-05T12:41:48Z</time>
      </trkpt>
      <trkpt lat="43.76403" lon="7.00085">
        <ele>858.1140137</ele>
        <time>2009-12-05T12:41:52Z</time>
      </trkpt>
      <trkpt lat="43.76403" lon="7.00076">
        <ele>860.517334</ele>
        <time>2009-12-05T12:41:56Z</time>
      </trkpt>
      <trkpt lat="43.76403" lon="7.00074">
        <ele>860.517334</ele>
        <time>2009-12-05T12:41:57Z</time>
      </trkpt>
      <trkpt lat="43.76404" lon="7.00054">
        <ele>862.4399414</ele>
        <time>2009-12-05T12:42:15Z</time>
      </trkpt>
      <trkpt lat="43.76409" lon="7.00035">
        <ele>864.3625488</ele>
        <time>2009-12-05T12:42:28Z</time>
      </trkpt>
      <trkpt lat="43.76414" lon="7.00003">
        <ele>866.2851563</ele>
        <time>2009-12-05T12:42:43Z</time>
      </trkpt>
      <trkpt lat="43.76416" lon="6.99994">
        <ele>866.2851563</ele>
        <time>2009-12-05T12:42:47Z</time>
      </trkpt>
      <trkpt lat="43.7642" lon="6.99974">
        <ele>867.246582</ele>
        <time>2009-12-05T12:42:55Z</time>
      </trkpt>
      <trkpt lat="43.76418" lon="6.99965">
        <ele>868.2077637</ele>
        <time>2009-12-05T12:42:59Z</time>
      </trkpt>
      <trkpt lat="43.76431" lon="6.99942">
        <ele>869.1691895</ele>
        <time>2009-12-05T12:43:12Z</time>
      </trkpt>
      <trkpt lat="43.76438" lon="6.9993">
        <ele>871.5722656</ele>
        <time>2009-12-05T12:43:28Z</time>
      </trkpt>
      <trkpt lat="43.76458" lon="6.99911">
        <ele>874.4562988</ele>
        <time>2009-12-05T12:43:50Z</time>
      </trkpt>
      <trkpt lat="43.76468" lon="6.99901">
        <ele>873.4951172</ele>
        <time>2009-12-05T12:44:07Z</time>
      </trkpt>
      <trkpt lat="43.76469" lon="6.99903">
        <ele>875.4174805</ele>
        <time>2009-12-05T12:44:10Z</time>
      </trkpt>
      <trkpt lat="43.76472" lon="6.9991">
        <ele>875.4174805</ele>
        <time>2009-12-05T12:44:17Z</time>
      </trkpt>
      <trkpt lat="43.76493" lon="6.99931">
        <ele>876.8598633</ele>
        <time>2009-12-05T12:44:31Z</time>
      </trkpt>
      <trkpt lat="43.76514" lon="6.9995">
        <ele>876.8598633</ele>
        <time>2009-12-05T12:44:44Z</time>
      </trkpt>
      <trkpt lat="43.76518" lon="6.99952">
        <ele>876.8598633</ele>
        <time>2009-12-05T12:44:45Z</time>
      </trkpt>
      <trkpt lat="43.76528" lon="6.99949">
        <ele>877.3405762</ele>
        <time>2009-12-05T12:44:56Z</time>
      </trkpt>
      <trkpt lat="43.7653" lon="6.9994">
        <ele>877.8210449</ele>
        <time>2009-12-05T12:45:08Z</time>
      </trkpt>
      <trkpt lat="43.76535" lon="6.99939">
        <ele>878.7824707</ele>
        <time>2009-12-05T12:45:12Z</time>
      </trkpt>
      <trkpt lat="43.76575" lon="6.99933">
        <ele>879.2629395</ele>
        <time>2009-12-05T12:45:28Z</time>
      </trkpt>
      <trkpt lat="43.76633" lon="6.99925">
        <ele>879.2629395</ele>
        <time>2009-12-05T12:45:45Z</time>
      </trkpt>
      <trkpt lat="43.7666" lon="6.99931">
        <ele>878.7824707</ele>
        <time>2009-12-05T12:45:52Z</time>
      </trkpt>
      <trkpt lat="43.76682" lon="6.99925">
        <ele>878.7824707</ele>
        <time>2009-12-05T12:45:57Z</time>
      </trkpt>
      <trkpt lat="43.76748" lon="6.99917">
        <ele>878.3017578</ele>
        <time>2009-12-05T12:46:13Z</time>
      </trkpt>
      <trkpt lat="43.76756" lon="6.99894">
        <ele>877.8210449</ele>
        <time>2009-12-05T12:46:17Z</time>
      </trkpt>
      <trkpt lat="43.76766" lon="6.99884">
        <ele>876.3791504</ele>
        <time>2009-12-05T12:46:20Z</time>
      </trkpt>
      <trkpt lat="43.76773" lon="6.99883">
        <ele>876.3791504</ele>
        <time>2009-12-05T12:46:22Z</time>
      </trkpt>
      <trkpt lat="43.76818" lon="6.99874">
        <ele>877.3405762</ele>
        <time>2009-12-05T12:46:39Z</time>
      </trkpt>
      <trkpt lat="43.76839" lon="6.99865">
        <ele>876.8598633</ele>
        <time>2009-12-05T12:46:44Z</time>
      </trkpt>
      <trkpt lat="43.76883" lon="6.99843">
        <ele>874.9370117</ele>
        <time>2009-12-05T12:46:55Z</time>
      </trkpt>
      <trkpt lat="43.76897" lon="6.99839">
        <ele>873.9755859</ele>
        <time>2009-12-05T12:46:58Z</time>
      </trkpt>
      <trkpt lat="43.76898" lon="6.99827">
        <ele>873.4951172</ele>
        <time>2009-12-05T12:47:02Z</time>
      </trkpt>
      <trkpt lat="43.76873" lon="6.99806">
        <ele>870.1303711</ele>
        <time>2009-12-05T12:47:10Z</time>
      </trkpt>
      <trkpt lat="43.76865" lon="6.99801">
        <ele>868.2077637</ele>
        <time>2009-12-05T12:47:12Z</time>
      </trkpt>
      <trkpt lat="43.76853" lon="6.99795">
        <ele>866.2851563</ele>
        <time>2009-12-05T12:47:15Z</time>
      </trkpt>
      <trkpt lat="43.76838" lon="6.99787">
        <ele>863.8818359</ele>
        <time>2009-12-05T12:47:19Z</time>
      </trkpt>
      <trkpt lat="43.76826" lon="6.99782">
        <ele>861.9594727</ele>
        <time>2009-12-05T12:47:22Z</time>
      </trkpt>
      <trkpt lat="43.76801" lon="6.99771">
        <ele>857.1525879</ele>
        <time>2009-12-05T12:47:29Z</time>
      </trkpt>
      <trkpt lat="43.76786" lon="6.99765">
        <ele>853.7880859</ele>
        <time>2009-12-05T12:47:33Z</time>
      </trkpt>
      <trkpt lat="43.76774" lon="6.99757">
        <ele>850.423584</ele>
        <time>2009-12-05T12:47:37Z</time>
      </trkpt>
      <trkpt lat="43.76765" lon="6.99746">
        <ele>846.5783691</ele>
        <time>2009-12-05T12:47:41Z</time>
      </trkpt>
      <trkpt lat="43.76761" lon="6.99742">
        <ele>846.5783691</ele>
        <time>2009-12-05T12:47:42Z</time>
      </trkpt>
      <trkpt lat="43.76744" lon="6.99743">
        <ele>843.2133789</ele>
        <time>2009-12-05T12:47:46Z</time>
      </trkpt>
      <trkpt lat="43.76736" lon="6.99743">
        <ele>842.2521973</ele>
        <time>2009-12-05T12:47:48Z</time>
      </trkpt>
      <trkpt lat="43.76727" lon="6.99739">
        <ele>840.8100586</ele>
        <time>2009-12-05T12:47:50Z</time>
      </trkpt>
      <trkpt lat="43.76713" lon="6.99731">
        <ele>836.484375</ele>
        <time>2009-12-05T12:47:55Z</time>
      </trkpt>
      <trkpt lat="43.76706" lon="6.99728">
        <ele>835.5229492</ele>
        <time>2009-12-05T12:47:57Z</time>
      </trkpt>
      <trkpt lat="43.76695" lon="6.99723">
        <ele>833.6003418</ele>
        <time>2009-12-05T12:48:00Z</time>
      </trkpt>
      <trkpt lat="43.76679" lon="6.99716">
        <ele>829.755127</ele>
        <time>2009-12-05T12:48:05Z</time>
      </trkpt>
      <trkpt lat="43.76665" lon="6.99711">
        <ele>827.3518066</ele>
        <time>2009-12-05T12:48:09Z</time>
      </trkpt>
      <trkpt lat="43.7666" lon="6.99709">
        <ele>826.3903809</ele>
        <time>2009-12-05T12:48:11Z</time>
      </trkpt>
      <trkpt lat="43.76646" lon="6.99705">
        <ele>823.0258789</ele>
        <time>2009-12-05T12:48:16Z</time>
      </trkpt>
      <trkpt lat="43.76642" lon="6.99701">
        <ele>822.0644531</ele>
        <time>2009-12-05T12:48:18Z</time>
      </trkpt>
      <trkpt lat="43.76634" lon="6.99694">
        <ele>819.1806641</ele>
        <time>2009-12-05T12:48:22Z</time>
      </trkpt>
      <trkpt lat="43.76623" lon="6.99685">
        <ele>816.2966309</ele>
        <time>2009-12-05T12:48:28Z</time>
      </trkpt>
      <trkpt lat="43.76616" lon="6.99678">
        <ele>814.3740234</ele>
        <time>2009-12-05T12:48:32Z</time>
      </trkpt>
      <trkpt lat="43.76609" lon="6.99666">
        <ele>811.4899902</ele>
        <time>2009-12-05T12:48:37Z</time>
      </trkpt>
      <trkpt lat="43.76606" lon="6.99659">
        <ele>809.0866699</ele>
        <time>2009-12-05T12:48:42Z</time>
      </trkpt>
      <trkpt lat="43.76605" lon="6.99653">
        <ele>807.6447754</ele>
        <time>2009-12-05T12:48:45Z</time>
      </trkpt>
      <trkpt lat="43.76587" lon="6.99623">
        <ele>804.7607422</ele>
        <time>2009-12-05T12:48:50Z</time>
      </trkpt>
      <trkpt lat="43.76576" lon="6.99621">
        <ele>803.3188477</ele>
        <time>2009-12-05T12:48:52Z</time>
      </trkpt>
      <trkpt lat="43.76559" lon="6.9962">
        <ele>800.4350586</ele>
        <time>2009-12-05T12:48:57Z</time>
      </trkpt>
      <trkpt lat="43.76543" lon="6.99616">
        <ele>797.5510254</ele>
        <time>2009-12-05T12:49:02Z</time>
      </trkpt>
      <trkpt lat="43.76539" lon="6.99608">
        <ele>796.1091309</ele>
        <time>2009-12-05T12:49:04Z</time>
      </trkpt>
      <trkpt lat="43.76539" lon="6.99604">
        <ele>795.6281738</ele>
        <time>2009-12-05T12:49:05Z</time>
      </trkpt>
      <trkpt lat="43.76533" lon="6.99579">
        <ele>791.782959</ele>
        <time>2009-12-05T12:49:11Z</time>
      </trkpt>
      <trkpt lat="43.76529" lon="6.99573">
        <ele>789.8603516</ele>
        <time>2009-12-05T12:49:15Z</time>
      </trkpt>
      <trkpt lat="43.76514" lon="6.9959">
        <ele>789.3796387</ele>
        <time>2009-12-05T12:49:17Z</time>
      </trkpt>
      <trkpt lat="43.76526" lon="6.99583">
        <ele>786.4958496</ele>
        <time>2009-12-05T12:49:24Z</time>
      </trkpt>
      <trkpt lat="43.76528" lon="6.99576">
        <ele>783.6118164</ele>
        <time>2009-12-05T12:49:32Z</time>
      </trkpt>
      <trkpt lat="43.7653" lon="6.9957">
        <ele>781.689209</ele>
        <time>2009-12-05T12:49:35Z</time>
      </trkpt>
      <trkpt lat="43.76531" lon="6.99569">
        <ele>781.689209</ele>
        <time>2009-12-05T12:49:36Z</time>
      </trkpt>
      <trkpt lat="43.76545" lon="6.99561">
        <ele>777.84375</ele>
        <time>2009-12-05T12:49:44Z</time>
      </trkpt>
      <trkpt lat="43.76549" lon="6.99559">
        <ele>777.3632813</ele>
        <time>2009-12-05T12:49:47Z</time>
      </trkpt>
      <trkpt lat="43.76551" lon="6.99557">
        <ele>776.4018555</ele>
        <time>2009-12-05T12:49:49Z</time>
      </trkpt>
      <trkpt lat="43.76551" lon="6.99555">
        <ele>776.4018555</ele>
        <time>2009-12-05T12:49:50Z</time>
      </trkpt>
      <trkpt lat="43.76556" lon="6.99549">
        <ele>774.9599609</ele>
        <time>2009-12-05T12:49:54Z</time>
      </trkpt>
      <trkpt lat="43.76561" lon="6.99546">
        <ele>773.0373535</ele>
        <time>2009-12-05T12:49:57Z</time>
      </trkpt>
      <trkpt lat="43.76561" lon="6.99542">
        <ele>772.0759277</ele>
        <time>2009-12-05T12:50:02Z</time>
      </trkpt>
      <trkpt lat="43.76553" lon="6.99541">
        <ele>770.6340332</ele>
        <time>2009-12-05T12:50:07Z</time>
      </trkpt>
      <trkpt lat="43.76539" lon="6.99531">
        <ele>767.2695313</ele>
        <time>2009-12-05T12:50:17Z</time>
      </trkpt>
      <trkpt lat="43.76538" lon="6.99529">
        <ele>766.3081055</ele>
        <time>2009-12-05T12:50:19Z</time>
      </trkpt>
      <trkpt lat="43.76535" lon="6.99516">
        <ele>761.5014648</ele>
        <time>2009-12-05T12:50:32Z</time>
      </trkpt>
      <trkpt lat="43.76535" lon="6.99515">
        <ele>761.5014648</ele>
        <time>2009-12-05T12:50:33Z</time>
      </trkpt>
      <trkpt lat="43.76528" lon="6.9951">
        <ele>759.0981445</ele>
        <time>2009-12-05T12:50:39Z</time>
      </trkpt>
      <trkpt lat="43.76525" lon="6.99508">
        <ele>755.7336426</ele>
        <time>2009-12-05T12:50:43Z</time>
      </trkpt>
      <trkpt lat="43.76525" lon="6.99506">
        <ele>759.0981445</ele>
        <time>2009-12-05T12:50:56Z</time>
      </trkpt>
      <trkpt lat="43.76521" lon="6.99504">
        <ele>755.7336426</ele>
        <time>2009-12-05T12:51:04Z</time>
      </trkpt>
      <trkpt lat="43.76516" lon="6.99497">
        <ele>753.3303223</ele>
        <time>2009-12-05T12:51:09Z</time>
      </trkpt>
      <trkpt lat="43.76508" lon="6.99489">
        <ele>750.927002</ele>
        <time>2009-12-05T12:51:14Z</time>
      </trkpt>
      <trkpt lat="43.76506" lon="6.99467">
        <ele>748.5236816</ele>
        <time>2009-12-05T12:51:26Z</time>
      </trkpt>
      <trkpt lat="43.76511" lon="6.9946">
        <ele>747.081543</ele>
        <time>2009-12-05T12:51:31Z</time>
      </trkpt>
      <trkpt lat="43.76513" lon="6.9946">
        <ele>746.6010742</ele>
        <time>2009-12-05T12:51:33Z</time>
      </trkpt>
      <trkpt lat="43.76523" lon="6.99451">
        <ele>743.2363281</ele>
        <time>2009-12-05T12:51:40Z</time>
      </trkpt>
      <trkpt lat="43.76532" lon="6.99442">
        <ele>739.8718262</ele>
        <time>2009-12-05T12:51:47Z</time>
      </trkpt>
      <trkpt lat="43.76549" lon="6.99426">
        <ele>736.5073242</ele>
        <time>2009-12-05T12:51:54Z</time>
      </trkpt>
      <trkpt lat="43.76569" lon="6.99423">
        <ele>732.6621094</ele>
        <time>2009-12-05T12:52:05Z</time>
      </trkpt>
      <trkpt lat="43.76565" lon="6.99422">
        <ele>731.7004395</ele>
        <time>2009-12-05T12:52:12Z</time>
      </trkpt>
      <trkpt lat="43.76555" lon="6.99423">
        <ele>731.2199707</ele>
        <time>2009-12-05T12:52:15Z</time>
      </trkpt>
      <trkpt lat="43.76535" lon="6.99421">
        <ele>727.8552246</ele>
        <time>2009-12-05T12:52:27Z</time>
      </trkpt>
      <trkpt lat="43.76531" lon="6.99421">
        <ele>726.894043</ele>
        <time>2009-12-05T12:52:30Z</time>
      </trkpt>
      <trkpt lat="43.76524" lon="6.99418">
        <ele>724.9714355</ele>
        <time>2009-12-05T12:52:33Z</time>
      </trkpt>
      <trkpt lat="43.76515" lon="6.99414">
        <ele>722.5681152</ele>
        <time>2009-12-05T12:52:38Z</time>
      </trkpt>
      <trkpt lat="43.7651" lon="6.9941">
        <ele>720.6455078</ele>
        <time>2009-12-05T12:52:41Z</time>
      </trkpt>
      <trkpt lat="43.76509" lon="6.99397">
        <ele>719.2036133</ele>
        <time>2009-12-05T12:52:47Z</time>
      </trkpt>
      <trkpt lat="43.76517" lon="6.99389">
        <ele>716.800293</ele>
        <time>2009-12-05T12:52:53Z</time>
      </trkpt>
      <trkpt lat="43.7652" lon="6.99385">
        <ele>714.8774414</ele>
        <time>2009-12-05T12:52:55Z</time>
      </trkpt>
      <trkpt lat="43.7653" lon="6.99368">
        <ele>710.0708008</ele>
        <time>2009-12-05T12:53:01Z</time>
      </trkpt>
      <trkpt lat="43.7654" lon="6.99358">
        <ele>708.1484375</ele>
        <time>2009-12-05T12:53:05Z</time>
      </trkpt>
      <trkpt lat="43.76545" lon="6.99355">
        <ele>706.7062988</ele>
        <time>2009-12-05T12:53:09Z</time>
      </trkpt>
      <trkpt lat="43.76544" lon="6.99356">
        <ele>706.2255859</ele>
        <time>2009-12-05T12:53:12Z</time>
      </trkpt>
      <trkpt lat="43.76541" lon="6.99355">
        <ele>703.3417969</ele>
        <time>2009-12-05T12:53:25Z</time>
      </trkpt>
      <trkpt lat="43.76548" lon="6.99346">
        <ele>702.3803711</ele>
        <time>2009-12-05T12:53:30Z</time>
      </trkpt>
      <trkpt lat="43.76552" lon="6.99342">
        <ele>700.9384766</ele>
        <time>2009-12-05T12:53:33Z</time>
      </trkpt>
      <trkpt lat="43.76566" lon="6.99342">
        <ele>698.0544434</ele>
        <time>2009-12-05T12:53:40Z</time>
      </trkpt>
      <trkpt lat="43.76568" lon="6.99342">
        <ele>695.1704102</ele>
        <time>2009-12-05T12:53:43Z</time>
      </trkpt>
      <trkpt lat="43.76567" lon="6.99342">
        <ele>698.5349121</ele>
        <time>2009-12-05T12:53:44Z</time>
      </trkpt>
      <trkpt lat="43.76564" lon="6.99344">
        <ele>696.6125488</ele>
        <time>2009-12-05T12:53:49Z</time>
      </trkpt>
      <trkpt lat="43.76552" lon="6.99338">
        <ele>695.651123</ele>
        <time>2009-12-05T12:53:55Z</time>
      </trkpt>
      <trkpt lat="43.76533" lon="6.99328">
        <ele>690.8444824</ele>
        <time>2009-12-05T12:54:04Z</time>
      </trkpt>
      <trkpt lat="43.76522" lon="6.99324">
        <ele>687.4799805</ele>
        <time>2009-12-05T12:54:10Z</time>
      </trkpt>
      <trkpt lat="43.76517" lon="6.99321">
        <ele>686.0380859</ele>
        <time>2009-12-05T12:54:13Z</time>
      </trkpt>
      <trkpt lat="43.76506" lon="6.99312">
        <ele>683.1538086</ele>
        <time>2009-12-05T12:54:18Z</time>
      </trkpt>
      <trkpt lat="43.76502" lon="6.99309">
        <ele>681.7119141</ele>
        <time>2009-12-05T12:54:20Z</time>
      </trkpt>
      <trkpt lat="43.76491" lon="6.99305">
        <ele>677.8666992</ele>
        <time>2009-12-05T12:54:26Z</time>
      </trkpt>
      <trkpt lat="43.76483" lon="6.99302">
        <ele>675.4633789</ele>
        <time>2009-12-05T12:54:31Z</time>
      </trkpt>
      <trkpt lat="43.7648" lon="6.99298">
        <ele>672.5795898</ele>
        <time>2009-12-05T12:54:36Z</time>
      </trkpt>
      <trkpt lat="43.76473" lon="6.99292">
        <ele>670.6569824</ele>
        <time>2009-12-05T12:54:40Z</time>
      </trkpt>
      <trkpt lat="43.76475" lon="6.99287">
        <ele>669.6958008</ele>
        <time>2009-12-05T12:54:42Z</time>
      </trkpt>
      <trkpt lat="43.76477" lon="6.99281">
        <ele>668.2536621</ele>
        <time>2009-12-05T12:54:45Z</time>
      </trkpt>
      <trkpt lat="43.76481" lon="6.99275">
        <ele>666.3308105</ele>
        <time>2009-12-05T12:54:48Z</time>
      </trkpt>
      <trkpt lat="43.76482" lon="6.99271">
        <ele>665.8503418</ele>
        <time>2009-12-05T12:54:50Z</time>
      </trkpt>
      <trkpt lat="43.76482" lon="6.99263">
        <ele>662.4855957</ele>
        <time>2009-12-05T12:54:54Z</time>
      </trkpt>
      <trkpt lat="43.76482" lon="6.99261">
        <ele>661.0437012</ele>
        <time>2009-12-05T12:55:10Z</time>
      </trkpt>
      <trkpt lat="43.76478" lon="6.99258">
        <ele>657.6791992</ele>
        <time>2009-12-05T12:55:34Z</time>
      </trkpt>
      <trkpt lat="43.76463" lon="6.99254">
        <ele>653.8339844</ele>
        <time>2009-12-05T12:55:41Z</time>
      </trkpt>
      <trkpt lat="43.76458" lon="6.99244">
        <ele>652.3918457</ele>
        <time>2009-12-05T12:55:45Z</time>
      </trkpt>
      <trkpt lat="43.76462" lon="6.99233">
        <ele>650.4692383</ele>
        <time>2009-12-05T12:55:48Z</time>
      </trkpt>
      <trkpt lat="43.76468" lon="6.99217">
        <ele>646.6240234</ele>
        <time>2009-12-05T12:55:55Z</time>
      </trkpt>
      <trkpt lat="43.76469" lon="6.99212">
        <ele>645.1818848</ele>
        <time>2009-12-05T12:55:58Z</time>
      </trkpt>
      <trkpt lat="43.76476" lon="6.99205">
        <ele>642.7788086</ele>
        <time>2009-12-05T12:56:01Z</time>
      </trkpt>
      <trkpt lat="43.76475" lon="6.99195">
        <ele>639.4140625</ele>
        <time>2009-12-05T12:56:07Z</time>
      </trkpt>
      <trkpt lat="43.76473" lon="6.99186">
        <ele>634.6074219</ele>
        <time>2009-12-05T12:56:12Z</time>
      </trkpt>
      <trkpt lat="43.76471" lon="6.99181">
        <ele>631.2429199</ele>
        <time>2009-12-05T12:56:15Z</time>
      </trkpt>
      <trkpt lat="43.76469" lon="6.9917">
        <ele>627.3977051</ele>
        <time>2009-12-05T12:56:19Z</time>
      </trkpt>
      <trkpt lat="43.76478" lon="6.99142">
        <ele>624.5136719</ele>
        <time>2009-12-05T12:56:23Z</time>
      </trkpt>
      <trkpt lat="43.76481" lon="6.99126">
        <ele>623.0717773</ele>
        <time>2009-12-05T12:56:38Z</time>
      </trkpt>
      <trkpt lat="43.76483" lon="6.99122">
        <ele>621.6296387</ele>
        <time>2009-12-05T12:56:42Z</time>
      </trkpt>
      <trkpt lat="43.76481" lon="6.9912">
        <ele>621.1491699</ele>
        <time>2009-12-05T12:56:43Z</time>
      </trkpt>
      <trkpt lat="43.76469" lon="6.99117">
        <ele>618.2648926</ele>
        <time>2009-12-05T12:56:48Z</time>
      </trkpt>
      <trkpt lat="43.76463" lon="6.99116">
        <ele>617.3037109</ele>
        <time>2009-12-05T12:56:52Z</time>
      </trkpt>
      <trkpt lat="43.76457" lon="6.99115">
        <ele>614.9003906</ele>
        <time>2009-12-05T12:56:56Z</time>
      </trkpt>
      <trkpt lat="43.76447" lon="6.99118">
        <ele>612.0166016</ele>
        <time>2009-12-05T12:57:01Z</time>
      </trkpt>
      <trkpt lat="43.76442" lon="6.99121">
        <ele>610.5744629</ele>
        <time>2009-12-05T12:57:04Z</time>
      </trkpt>
      <trkpt lat="43.76437" lon="6.99122">
        <ele>608.6518555</ele>
        <time>2009-12-05T12:57:07Z</time>
      </trkpt>
      <trkpt lat="43.76434" lon="6.99122">
        <ele>607.6906738</ele>
        <time>2009-12-05T12:57:10Z</time>
      </trkpt>
      <trkpt lat="43.76429" lon="6.99123">
        <ele>606.2485352</ele>
        <time>2009-12-05T12:57:13Z</time>
      </trkpt>
      <trkpt lat="43.76426" lon="6.99115">
        <ele>603.8452148</ele>
        <time>2009-12-05T12:57:17Z</time>
      </trkpt>
      <trkpt lat="43.76425" lon="6.99108">
        <ele>602.4030762</ele>
        <time>2009-12-05T12:57:20Z</time>
      </trkpt>
      <trkpt lat="43.76424" lon="6.99105">
        <ele>600.4807129</ele>
        <time>2009-12-05T12:57:23Z</time>
      </trkpt>
      <trkpt lat="43.7642" lon="6.99094">
        <ele>597.5966797</ele>
        <time>2009-12-05T12:57:28Z</time>
      </trkpt>
      <trkpt lat="43.76426" lon="6.99085">
        <ele>596.1547852</ele>
        <time>2009-12-05T12:57:31Z</time>
      </trkpt>
      <trkpt lat="43.76429" lon="6.99079">
        <ele>594.7126465</ele>
        <time>2009-12-05T12:57:33Z</time>
      </trkpt>
      <trkpt lat="43.76422" lon="6.99075">
        <ele>592.3095703</ele>
        <time>2009-12-05T12:57:37Z</time>
      </trkpt>
      <trkpt lat="43.76426" lon="6.99046">
        <ele>587.5026855</ele>
        <time>2009-12-05T12:57:43Z</time>
      </trkpt>
      <trkpt lat="43.76431" lon="6.99037">
        <ele>586.060791</ele>
        <time>2009-12-05T12:57:46Z</time>
      </trkpt>
      <trkpt lat="43.76434" lon="6.99034">
        <ele>585.0996094</ele>
        <time>2009-12-05T12:58:10Z</time>
      </trkpt>
      <trkpt lat="43.7643" lon="6.99036">
        <ele>583.6574707</ele>
        <time>2009-12-05T12:58:14Z</time>
      </trkpt>
      <trkpt lat="43.76423" lon="6.99038">
        <ele>582.2155762</ele>
        <time>2009-12-05T12:58:18Z</time>
      </trkpt>
      <trkpt lat="43.76414" lon="6.99039">
        <ele>578.3703613</ele>
        <time>2009-12-05T12:58:26Z</time>
      </trkpt>
      <trkpt lat="43.76408" lon="6.99041">
        <ele>576.9284668</ele>
        <time>2009-12-05T12:58:29Z</time>
      </trkpt>
      <trkpt lat="43.76406" lon="6.99041">
        <ele>575.967041</ele>
        <time>2009-12-05T12:58:30Z</time>
      </trkpt>
      <trkpt lat="43.76403" lon="6.99044">
        <ele>575.0058594</ele>
        <time>2009-12-05T12:58:32Z</time>
      </trkpt>
      <trkpt lat="43.76399" lon="6.99048">
        <ele>572.1218262</ele>
        <time>2009-12-05T12:58:36Z</time>
      </trkpt>
      <trkpt lat="43.7639" lon="6.99052">
        <ele>569.7185059</ele>
        <time>2009-12-05T12:58:41Z</time>
      </trkpt>
      <trkpt lat="43.76384" lon="6.99052">
        <ele>568.2763672</ele>
        <time>2009-12-05T12:58:44Z</time>
      </trkpt>
      <trkpt lat="43.76382" lon="6.99049">
        <ele>567.3151855</ele>
        <time>2009-12-05T12:58:46Z</time>
      </trkpt>
      <trkpt lat="43.76381" lon="6.99038">
        <ele>564.4311523</ele>
        <time>2009-12-05T12:58:50Z</time>
      </trkpt>
      <trkpt lat="43.76379" lon="6.99031">
        <ele>562.0280762</ele>
        <time>2009-12-05T12:58:54Z</time>
      </trkpt>
      <trkpt lat="43.7638" lon="6.99018">
        <ele>559.144043</ele>
        <time>2009-12-05T12:59:09Z</time>
      </trkpt>
      <trkpt lat="43.76382" lon="6.99015">
        <ele>557.7021484</ele>
        <time>2009-12-05T12:59:12Z</time>
      </trkpt>
      <trkpt lat="43.76382" lon="6.99007">
        <ele>556.2600098</ele>
        <time>2009-12-05T12:59:17Z</time>
      </trkpt>
      <trkpt lat="43.76371" lon="6.99004">
        <ele>552.8952637</ele>
        <time>2009-12-05T12:59:34Z</time>
      </trkpt>
      <trkpt lat="43.76362" lon="6.99001">
        <ele>549.5307617</ele>
        <time>2009-12-05T12:59:48Z</time>
      </trkpt>
      <trkpt lat="43.76363" lon="6.99">
        <ele>549.0500488</ele>
        <time>2009-12-05T12:59:49Z</time>
      </trkpt>
      <trkpt lat="43.76355" lon="6.99">
        <ele>546.1662598</ele>
        <time>2009-12-05T13:00:02Z</time>
      </trkpt>
      <trkpt lat="43.76349" lon="6.98997">
        <ele>542.8015137</ele>
        <time>2009-12-05T13:00:15Z</time>
      </trkpt>
      <trkpt lat="43.76348" lon="6.98998">
        <ele>542.8015137</ele>
        <time>2009-12-05T13:00:16Z</time>
      </trkpt>
      <trkpt lat="43.76341" lon="6.99008">
        <ele>539.4368896</ele>
        <time>2009-12-05T13:00:24Z</time>
      </trkpt>
      <trkpt lat="43.7634" lon="6.9901">
        <ele>538.9562988</ele>
        <time>2009-12-05T13:00:25Z</time>
      </trkpt>
      <trkpt lat="43.76325" lon="6.99009">
        <ele>536.0723877</ele>
        <time>2009-12-05T13:00:39Z</time>
      </trkpt>
      <trkpt lat="43.76324" lon="6.99009">
        <ele>536.0723877</ele>
        <time>2009-12-05T13:00:40Z</time>
      </trkpt>
      <trkpt lat="43.76318" lon="6.99009">
        <ele>534.6303711</ele>
        <time>2009-12-05T13:01:02Z</time>
      </trkpt>
      <trkpt lat="43.76334" lon="6.99008">
        <ele>535.5915527</ele>
        <time>2009-12-05T13:01:42Z</time>
      </trkpt>
      <trkpt lat="43.76323" lon="6.99004">
        <ele>535.5915527</ele>
        <time>2009-12-05T13:02:19Z</time>
      </trkpt>
      <trkpt lat="43.76319" lon="6.99023">
        <ele>536.0723877</ele>
        <time>2009-12-05T13:02:49Z</time>
      </trkpt>
      <trkpt lat="43.76328" lon="6.98997">
        <ele>536.5531006</ele>
        <time>2009-12-05T13:03:31Z</time>
      </trkpt>
      <trkpt lat="43.76323" lon="6.99007">
        <ele>537.5142822</ele>
        <time>2009-12-05T13:04:15Z</time>
      </trkpt>
      <trkpt lat="43.76324" lon="6.99006">
        <ele>538.475708</ele>
        <time>2009-12-05T13:05:24Z</time>
      </trkpt>
      <trkpt lat="43.7633" lon="6.99006">
        <ele>537.9949951</ele>
        <time>2009-12-05T13:07:31Z</time>
      </trkpt>
      <trkpt lat="43.76319" lon="6.99037">
        <ele>533.6689453</ele>
        <time>2009-12-05T13:07:37Z</time>
      </trkpt>
      <trkpt lat="43.76316" lon="6.99046">
        <ele>533.6689453</ele>
        <time>2009-12-05T13:07:38Z</time>
      </trkpt>
      <trkpt lat="43.76303" lon="6.9907">
        <ele>529.8237305</ele>
        <time>2009-12-05T13:07:42Z</time>
      </trkpt>
      <trkpt lat="43.7629" lon="6.99076">
        <ele>525.9783936</ele>
        <time>2009-12-05T13:07:46Z</time>
      </trkpt>
      <trkpt lat="43.76242" lon="6.99095">
        <ele>521.6525879</ele>
        <time>2009-12-05T13:07:50Z</time>
      </trkpt>
      <trkpt lat="43.76213" lon="6.99117">
        <ele>517.807251</ele>
        <time>2009-12-05T13:07:56Z</time>
      </trkpt>
      <trkpt lat="43.76204" lon="6.99129">
        <ele>516.8459473</ele>
        <time>2009-12-05T13:08:00Z</time>
      </trkpt>
      <trkpt lat="43.76199" lon="6.99134">
        <ele>516.3652344</ele>
        <time>2009-12-05T13:08:02Z</time>
      </trkpt>
      <trkpt lat="43.76194" lon="6.99136">
        <ele>514.9233398</ele>
        <time>2009-12-05T13:08:07Z</time>
      </trkpt>
      <trkpt lat="43.76205" lon="6.99128">
        <ele>512.5200195</ele>
        <time>2009-12-05T13:08:12Z</time>
      </trkpt>
      <trkpt lat="43.76204" lon="6.99128">
        <ele>508.6746826</ele>
        <time>2009-12-05T13:08:17Z</time>
      </trkpt>
      <trkpt lat="43.76227" lon="6.99014">
        <ele>506.2714844</ele>
        <time>2009-12-05T13:08:21Z</time>
      </trkpt>
      <trkpt lat="43.76229" lon="6.98999">
        <ele>504.8294678</ele>
        <time>2009-12-05T13:08:23Z</time>
      </trkpt>
      <trkpt lat="43.76218" lon="6.98966">
        <ele>501.4648438</ele>
        <time>2009-12-05T13:08:27Z</time>
      </trkpt>
      <trkpt lat="43.76203" lon="6.98942">
        <ele>497.6196289</ele>
        <time>2009-12-05T13:08:30Z</time>
      </trkpt>
      <trkpt lat="43.76195" lon="6.98927">
        <ele>495.6968994</ele>
        <time>2009-12-05T13:08:32Z</time>
      </trkpt>
      <trkpt lat="43.76188" lon="6.98894">
        <ele>491.8516846</ele>
        <time>2009-12-05T13:08:36Z</time>
      </trkpt>
      <trkpt lat="43.7619" lon="6.98873">
        <ele>489.9290771</ele>
        <time>2009-12-05T13:08:38Z</time>
      </trkpt>
      <trkpt lat="43.76198" lon="6.98848">
        <ele>486.0837402</ele>
        <time>2009-12-05T13:08:41Z</time>
      </trkpt>
      <trkpt lat="43.76222" lon="6.98805">
        <ele>482.7192383</ele>
        <time>2009-12-05T13:08:45Z</time>
      </trkpt>
      <trkpt lat="43.76247" lon="6.98791">
        <ele>480.315918</ele>
        <time>2009-12-05T13:08:48Z</time>
      </trkpt>
      <trkpt lat="43.76262" lon="6.98768">
        <ele>478.3931885</ele>
        <time>2009-12-05T13:08:51Z</time>
      </trkpt>
      <trkpt lat="43.76262" lon="6.98767">
        <ele>477.9124756</ele>
        <time>2009-12-05T13:08:52Z</time>
      </trkpt>
      <trkpt lat="43.76247" lon="6.98778">
        <ele>477.9124756</ele>
        <time>2009-12-05T13:08:57Z</time>
      </trkpt>
      <trkpt lat="43.76212" lon="6.98797">
        <ele>476.9512939</ele>
        <time>2009-12-05T13:09:05Z</time>
      </trkpt>
      <trkpt lat="43.7619" lon="6.98819">
        <ele>475.9898682</ele>
        <time>2009-12-05T13:09:11Z</time>
      </trkpt>
      <trkpt lat="43.76188" lon="6.98902">
        <ele>472.6253662</ele>
        <time>2009-12-05T13:09:23Z</time>
      </trkpt>
      <trkpt lat="43.76144" lon="6.98897">
        <ele>472.1446533</ele>
        <time>2009-12-05T13:09:32Z</time>
      </trkpt>
      <trkpt lat="43.76144" lon="6.98897">
        <ele>472.6253662</ele>
        <time>2009-12-05T13:10:39Z</time>
      </trkpt>
      <trkpt lat="43.76144" lon="6.98897">
        <ele>472.6253662</ele>
        <time>2009-12-05T13:11:06Z</time>
      </trkpt>
      <trkpt lat="43.76144" lon="6.98897">
        <ele>474.5479736</ele>
        <time>2009-12-05T13:12:46Z</time>
      </trkpt>
      <trkpt lat="43.76144" lon="6.98897">
        <ele>475.0286865</ele>
        <time>2009-12-05T13:13:15Z</time>
      </trkpt>
      <trkpt lat="43.76144" lon="6.98897">
        <ele>475.0286865</ele>
        <time>2009-12-05T13:15:20Z</time>
      </trkpt>
      <trkpt lat="43.76144" lon="6.98897">
        <ele>475.0286865</ele>
        <time>2009-12-05T13:16:01Z</time>
      </trkpt>
      <trkpt lat="43.76142" lon="6.989">
        <ele>475.0286865</ele>
        <time>2009-12-05T13:16:09Z</time>
      </trkpt>
      <trkpt lat="43.76142" lon="6.989">
        <ele>475.0286865</ele>
        <time>2009-12-05T13:16:33Z</time>
      </trkpt>
      <trkpt lat="43.76142" lon="6.989">
        <ele>475.0286865</ele>
        <time>2009-12-05T13:17:17Z</time>
      </trkpt>
      <trkpt lat="43.76142" lon="6.989">
        <ele>475.0286865</ele>
        <time>2009-12-05T13:18:56Z</time>
      </trkpt>
      <trkpt lat="43.76142" lon="6.989">
        <ele>475.0286865</ele>
        <time>2009-12-05T13:20:46Z</time>
      </trkpt>
      <trkpt lat="43.76142" lon="6.989">
        <ele>474.5479736</ele>
        <time>2009-12-05T13:23:42Z</time>
      </trkpt>
      <trkpt lat="43.76142" lon="6.989">
        <ele>475.0286865</ele>
        <time>2009-12-05T13:25:36Z</time>
      </trkpt>
      <trkpt lat="43.76142" lon="6.989">
        <ele>475.5092773</ele>
        <time>2009-12-05T13:27:10Z</time>
      </trkpt>
      <trkpt lat="43.76142" lon="6.989">
        <ele>475.9898682</ele>
        <time>2009-12-05T13:28:17Z</time>
      </trkpt>
      <trkpt lat="43.76142" lon="6.989">
        <ele>476.4705811</ele>
        <time>2009-12-05T13:29:15Z</time>
      </trkpt>
      <trkpt lat="43.76142" lon="6.989">
        <ele>476.4705811</ele>
        <time>2009-12-05T13:30:14Z</time>
      </trkpt>
      <trkpt lat="43.76142" lon="6.989">
        <ele>476.4705811</ele>
        <time>2009-12-05T13:31:07Z</time>
      </trkpt>
      <trkpt lat="43.76142" lon="6.989">
        <ele>476.4705811</ele>
        <time>2009-12-05T13:31:33Z</time>
      </trkpt>
      <trkpt lat="43.76142" lon="6.989">
        <ele>476.4705811</ele>
        <time>2009-12-05T13:31:57Z</time>
      </trkpt>
      <trkpt lat="43.76142" lon="6.989">
        <ele>476.9512939</ele>
        <time>2009-12-05T13:32:17Z</time>
      </trkpt>
      <trkpt lat="43.76142" lon="6.989">
        <ele>476.9512939</ele>
        <time>2009-12-05T13:33:14Z</time>
      </trkpt>
      <trkpt lat="43.76142" lon="6.989">
        <ele>476.9512939</ele>
        <time>2009-12-05T13:33:19Z</time>
      </trkpt>
      <trkpt lat="43.76138" lon="6.98899">
        <ele>476.9512939</ele>
        <time>2009-12-05T13:33:22Z</time>
      </trkpt>
      <trkpt lat="43.76101" lon="6.98887">
        <ele>477.9124756</ele>
        <time>2009-12-05T13:33:36Z</time>
      </trkpt>
      <trkpt lat="43.7607" lon="6.98933">
        <ele>478.8739014</ele>
        <time>2009-12-05T13:33:46Z</time>
      </trkpt>
      <trkpt lat="43.76047" lon="6.98973">
        <ele>481.7578125</ele>
        <time>2009-12-05T13:34:02Z</time>
      </trkpt>
      <trkpt lat="43.76014" lon="6.98994">
        <ele>484.6418457</ele>
        <time>2009-12-05T13:34:18Z</time>
      </trkpt>
      <trkpt lat="43.75969" lon="6.99004">
        <ele>487.0450439</ele>
        <time>2009-12-05T13:34:34Z</time>
      </trkpt>
      <trkpt lat="43.75925" lon="6.98992">
        <ele>489.9290771</ele>
        <time>2009-12-05T13:34:52Z</time>
      </trkpt>
      <trkpt lat="43.75873" lon="6.98986">
        <ele>492.8129883</ele>
        <time>2009-12-05T13:35:13Z</time>
      </trkpt>
      <trkpt lat="43.75831" lon="6.98988">
        <ele>495.2161865</ele>
        <time>2009-12-05T13:35:30Z</time>
      </trkpt>
      <trkpt lat="43.7578" lon="6.98963">
        <ele>498.5809326</ele>
        <time>2009-12-05T13:35:52Z</time>
      </trkpt>
      <trkpt lat="43.75729" lon="6.98949">
        <ele>501.4648438</ele>
        <time>2009-12-05T13:36:13Z</time>
      </trkpt>
      <trkpt lat="43.75679" lon="6.9894">
        <ele>504.8294678</ele>
        <time>2009-12-05T13:36:33Z</time>
      </trkpt>
      <trkpt lat="43.75626" lon="6.98926">
        <ele>507.713501</ele>
        <time>2009-12-05T13:36:55Z</time>
      </trkpt>
      <trkpt lat="43.75576" lon="6.98929">
        <ele>511.0780029</ele>
        <time>2009-12-05T13:37:15Z</time>
      </trkpt>
      <trkpt lat="43.75524" lon="6.98926">
        <ele>513.9620361</ele>
        <time>2009-12-05T13:37:36Z</time>
      </trkpt>
      <trkpt lat="43.75474" lon="6.98936">
        <ele>516.8459473</ele>
        <time>2009-12-05T13:37:56Z</time>
      </trkpt>
      <trkpt lat="43.7542" lon="6.98947">
        <ele>520.2105713</ele>
        <time>2009-12-05T13:38:17Z</time>
      </trkpt>
      <trkpt lat="43.7537" lon="6.98956">
        <ele>523.0946045</ele>
        <time>2009-12-05T13:38:37Z</time>
      </trkpt>
      <trkpt lat="43.75322" lon="6.98983">
        <ele>526.4591064</ele>
        <time>2009-12-05T13:38:58Z</time>
      </trkpt>
      <trkpt lat="43.7528" lon="6.99003">
        <ele>528.8625488</ele>
        <time>2009-12-05T13:39:16Z</time>
      </trkpt>
      <trkpt lat="43.75231" lon="6.99037">
        <ele>531.7463379</ele>
        <time>2009-12-05T13:39:37Z</time>
      </trkpt>
      <trkpt lat="43.75185" lon="6.99046">
        <ele>534.6303711</ele>
        <time>2009-12-05T13:39:55Z</time>
      </trkpt>
      <trkpt lat="43.75133" lon="6.99046">
        <ele>537.9949951</ele>
        <time>2009-12-05T13:40:15Z</time>
      </trkpt>
      <trkpt lat="43.75089" lon="6.99094">
        <ele>540.8789063</ele>
        <time>2009-12-05T13:40:36Z</time>
      </trkpt>
      <trkpt lat="43.75046" lon="6.99123">
        <ele>544.2436523</ele>
        <time>2009-12-05T13:40:55Z</time>
      </trkpt>
      <trkpt lat="43.74996" lon="6.9911">
        <ele>547.1274414</ele>
        <time>2009-12-05T13:41:16Z</time>
      </trkpt>
      <trkpt lat="43.74953" lon="6.99083">
        <ele>550.4921875</ele>
        <time>2009-12-05T13:41:35Z</time>
      </trkpt>
      <trkpt lat="43.74908" lon="6.99043">
        <ele>553.8566895</ele>
        <time>2009-12-05T13:41:56Z</time>
      </trkpt>
      <trkpt lat="43.7486" lon="6.99058">
        <ele>556.2600098</ele>
        <time>2009-12-05T13:42:16Z</time>
      </trkpt>
      <trkpt lat="43.74815" lon="6.99105">
        <ele>559.144043</ele>
        <time>2009-12-05T13:42:38Z</time>
      </trkpt>
      <trkpt lat="43.74778" lon="6.99146">
        <ele>562.0280762</ele>
        <time>2009-12-05T13:42:56Z</time>
      </trkpt>
      <trkpt lat="43.74737" lon="6.99176">
        <ele>564.9118652</ele>
        <time>2009-12-05T13:43:15Z</time>
      </trkpt>
      <trkpt lat="43.74686" lon="6.99184">
        <ele>567.7956543</ele>
        <time>2009-12-05T13:43:34Z</time>
      </trkpt>
      <trkpt lat="43.74638" lon="6.99173">
        <ele>571.1604004</ele>
        <time>2009-12-05T13:43:53Z</time>
      </trkpt>
      <trkpt lat="43.74594" lon="6.99143">
        <ele>574.0444336</ele>
        <time>2009-12-05T13:44:12Z</time>
      </trkpt>
      <trkpt lat="43.74562" lon="6.99117">
        <ele>576.4477539</ele>
        <time>2009-12-05T13:44:27Z</time>
      </trkpt>
      <trkpt lat="43.7453" lon="6.99144">
        <ele>577.4091797</ele>
        <time>2009-12-05T13:44:41Z</time>
      </trkpt>
      <trkpt lat="43.74517" lon="6.99204">
        <ele>579.8122559</ele>
        <time>2009-12-05T13:44:56Z</time>
      </trkpt>
      <trkpt lat="43.74487" lon="6.99254">
        <ele>582.6962891</ele>
        <time>2009-12-05T13:45:12Z</time>
      </trkpt>
      <trkpt lat="43.74432" lon="6.99283">
        <ele>585.5800781</ele>
        <time>2009-12-05T13:45:35Z</time>
      </trkpt>
      <trkpt lat="43.74381" lon="6.99319">
        <ele>588.9450684</ele>
        <time>2009-12-05T13:45:57Z</time>
      </trkpt>
      <trkpt lat="43.74335" lon="6.9935">
        <ele>591.8288574</ele>
        <time>2009-12-05T13:46:17Z</time>
      </trkpt>
      <trkpt lat="43.74281" lon="6.99365">
        <ele>594.7126465</ele>
        <time>2009-12-05T13:46:38Z</time>
      </trkpt>
      <trkpt lat="43.74223" lon="6.99393">
        <ele>598.0773926</ele>
        <time>2009-12-05T13:47:01Z</time>
      </trkpt>
      <trkpt lat="43.74169" lon="6.99417">
        <ele>601.4418945</ele>
        <time>2009-12-05T13:47:22Z</time>
      </trkpt>
      <trkpt lat="43.7412" lon="6.99439">
        <ele>604.3261719</ele>
        <time>2009-12-05T13:47:42Z</time>
      </trkpt>
      <trkpt lat="43.74073" lon="6.99465">
        <ele>607.6906738</ele>
        <time>2009-12-05T13:48:02Z</time>
      </trkpt>
      <trkpt lat="43.74027" lon="6.99493">
        <ele>610.5744629</ele>
        <time>2009-12-05T13:48:21Z</time>
      </trkpt>
      <trkpt lat="43.73976" lon="6.99501">
        <ele>613.9389648</ele>
        <time>2009-12-05T13:48:40Z</time>
      </trkpt>
      <trkpt lat="43.73955" lon="6.99507">
        <ele>614.9003906</ele>
        <time>2009-12-05T13:48:48Z</time>
      </trkpt>
      <trkpt lat="43.73956" lon="6.99532">
        <ele>615.8618164</ele>
        <time>2009-12-05T13:48:55Z</time>
      </trkpt>
      <trkpt lat="43.73981" lon="6.99573">
        <ele>616.822998</ele>
        <time>2009-12-05T13:49:06Z</time>
      </trkpt>
      <trkpt lat="43.73959" lon="6.99594">
        <ele>618.2648926</ele>
        <time>2009-12-05T13:49:14Z</time>
      </trkpt>
      <trkpt lat="43.73956" lon="6.99592">
        <ele>618.2648926</ele>
        <time>2009-12-05T13:49:15Z</time>
      </trkpt>
      <trkpt lat="43.73908" lon="6.99527">
        <ele>620.668457</ele>
        <time>2009-12-05T13:49:35Z</time>
      </trkpt>
      <trkpt lat="43.73919" lon="6.99486">
        <ele>622.5910645</ele>
        <time>2009-12-05T13:49:46Z</time>
      </trkpt>
      <trkpt lat="43.73948" lon="6.99479">
        <ele>624.032959</ele>
        <time>2009-12-05T13:49:56Z</time>
      </trkpt>
      <trkpt lat="43.7398" lon="6.99472">
        <ele>625.9555664</ele>
        <time>2009-12-05T13:50:10Z</time>
      </trkpt>
      <trkpt lat="43.74019" lon="6.99453">
        <ele>628.3588867</ele>
        <time>2009-12-05T13:50:26Z</time>
      </trkpt>
      <trkpt lat="43.74058" lon="6.99406">
        <ele>630.762207</ele>
        <time>2009-12-05T13:50:43Z</time>
      </trkpt>
      <trkpt lat="43.7407" lon="6.99358">
        <ele>633.1652832</ele>
        <time>2009-12-05T13:50:57Z</time>
      </trkpt>
      <trkpt lat="43.74056" lon="6.99359">
        <ele>633.6459961</ele>
        <time>2009-12-05T13:51:03Z</time>
      </trkpt>
      <trkpt lat="43.74039" lon="6.99404">
        <ele>635.5686035</ele>
        <time>2009-12-05T13:51:15Z</time>
      </trkpt>
      <trkpt lat="43.74002" lon="6.99429">
        <ele>637.972168</ele>
        <time>2009-12-05T13:51:32Z</time>
      </trkpt>
      <trkpt lat="43.73952" lon="6.99435">
        <ele>641.3366699</ele>
        <time>2009-12-05T13:51:51Z</time>
      </trkpt>
      <trkpt lat="43.73908" lon="6.99437">
        <ele>644.2207031</ele>
        <time>2009-12-05T13:52:08Z</time>
      </trkpt>
      <trkpt lat="43.73856" lon="6.99444">
        <ele>647.5852051</ele>
        <time>2009-12-05T13:52:28Z</time>
      </trkpt>
      <trkpt lat="43.73809" lon="6.99456">
        <ele>650.4692383</ele>
        <time>2009-12-05T13:52:46Z</time>
      </trkpt>
      <trkpt lat="43.73764" lon="6.99452">
        <ele>652.8725586</ele>
        <time>2009-12-05T13:53:04Z</time>
      </trkpt>
      <trkpt lat="43.73716" lon="6.99489">
        <ele>655.7565918</ele>
        <time>2009-12-05T13:53:25Z</time>
      </trkpt>
      <trkpt lat="43.73667" lon="6.99529">
        <ele>659.1210938</ele>
        <time>2009-12-05T13:53:46Z</time>
      </trkpt>
      <trkpt lat="43.73658" lon="6.99495">
        <ele>660.5629883</ele>
        <time>2009-12-05T13:53:55Z</time>
      </trkpt>
      <trkpt lat="43.73691" lon="6.99441">
        <ele>663.4470215</ele>
        <time>2009-12-05T13:54:14Z</time>
      </trkpt>
      <trkpt lat="43.73728" lon="6.99418">
        <ele>665.8503418</ele>
        <time>2009-12-05T13:54:30Z</time>
      </trkpt>
      <trkpt lat="43.73777" lon="6.99407">
        <ele>668.734375</ele>
        <time>2009-12-05T13:54:49Z</time>
      </trkpt>
      <trkpt lat="43.73822" lon="6.99407">
        <ele>671.1376953</ele>
        <time>2009-12-05T13:55:06Z</time>
      </trkpt>
      <trkpt lat="43.73865" lon="6.99386">
        <ele>674.0214844</ele>
        <time>2009-12-05T13:55:23Z</time>
      </trkpt>
      <trkpt lat="43.73911" lon="6.99358">
        <ele>676.4248047</ele>
        <time>2009-12-05T13:55:42Z</time>
      </trkpt>
      <trkpt lat="43.73953" lon="6.99325">
        <ele>679.3085938</ele>
        <time>2009-12-05T13:56:01Z</time>
      </trkpt>
      <trkpt lat="43.73976" lon="6.99288">
        <ele>681.7119141</ele>
        <time>2009-12-05T13:56:16Z</time>
      </trkpt>
      <trkpt lat="43.73956" lon="6.9929">
        <ele>682.192627</ele>
        <time>2009-12-05T13:56:25Z</time>
      </trkpt>
      <trkpt lat="43.73923" lon="6.99329">
        <ele>684.1154785</ele>
        <time>2009-12-05T13:56:41Z</time>
      </trkpt>
      <trkpt lat="43.73871" lon="6.99344">
        <ele>687.4799805</ele>
        <time>2009-12-05T13:57:01Z</time>
      </trkpt>
      <trkpt lat="43.73825" lon="6.99359">
        <ele>690.3640137</ele>
        <time>2009-12-05T13:57:19Z</time>
      </trkpt>
      <trkpt lat="43.73771" lon="6.99356">
        <ele>693.7285156</ele>
        <time>2009-12-05T13:57:41Z</time>
      </trkpt>
      <trkpt lat="43.73714" lon="6.99349">
        <ele>696.6125488</ele>
        <time>2009-12-05T13:58:03Z</time>
      </trkpt>
      <trkpt lat="43.73657" lon="6.99345">
        <ele>699.9770508</ele>
        <time>2009-12-05T13:58:25Z</time>
      </trkpt>
      <trkpt lat="43.736" lon="6.99345">
        <ele>702.861084</ele>
        <time>2009-12-05T13:58:46Z</time>
      </trkpt>
      <trkpt lat="43.73551" lon="6.99331">
        <ele>706.2255859</ele>
        <time>2009-12-05T13:59:05Z</time>
      </trkpt>
      <trkpt lat="43.73485" lon="6.99327">
        <ele>709.1096191</ele>
        <time>2009-12-05T13:59:29Z</time>
      </trkpt>
      <trkpt lat="43.73404" lon="6.99339">
        <ele>712.4741211</ele>
        <time>2009-12-05T13:59:57Z</time>
      </trkpt>
      <trkpt lat="43.73354" lon="6.99306">
        <ele>713.4355469</ele>
        <time>2009-12-05T14:00:13Z</time>
      </trkpt>
      <trkpt lat="43.73351" lon="6.99227">
        <ele>715.3581543</ele>
        <time>2009-12-05T14:00:28Z</time>
      </trkpt>
      <trkpt lat="43.73333" lon="6.99143">
        <ele>717.2810059</ele>
        <time>2009-12-05T14:00:47Z</time>
      </trkpt>
      <trkpt lat="43.73293" lon="6.99048">
        <ele>720.1647949</ele>
        <time>2009-12-05T14:01:10Z</time>
      </trkpt>
      <trkpt lat="43.7326" lon="6.99003">
        <ele>722.0874023</ele>
        <time>2009-12-05T14:01:26Z</time>
      </trkpt>
      <trkpt lat="43.73227" lon="6.9893">
        <ele>724.0100098</ele>
        <time>2009-12-05T14:01:48Z</time>
      </trkpt>
      <trkpt lat="43.73189" lon="6.98873">
        <ele>726.4133301</ele>
        <time>2009-12-05T14:02:08Z</time>
      </trkpt>
      <trkpt lat="43.73141" lon="6.98829">
        <ele>727.8552246</ele>
        <time>2009-12-05T14:02:28Z</time>
      </trkpt>
      <trkpt lat="43.73063" lon="6.98792">
        <ele>730.7392578</ele>
        <time>2009-12-05T14:02:53Z</time>
      </trkpt>
      <trkpt lat="43.72978" lon="6.98789">
        <ele>733.1425781</ele>
        <time>2009-12-05T14:03:16Z</time>
      </trkpt>
      <trkpt lat="43.72894" lon="6.98765">
        <ele>736.0266113</ele>
        <time>2009-12-05T14:03:38Z</time>
      </trkpt>
      <trkpt lat="43.72825" lon="6.98749">
        <ele>738.4299316</ele>
        <time>2009-12-05T14:03:58Z</time>
      </trkpt>
      <trkpt lat="43.7275" lon="6.98707">
        <ele>741.3137207</ele>
        <time>2009-12-05T14:04:20Z</time>
      </trkpt>
      <trkpt lat="43.72699" lon="6.98647">
        <ele>744.1977539</ele>
        <time>2009-12-05T14:04:37Z</time>
      </trkpt>
      <trkpt lat="43.72682" lon="6.98611">
        <ele>746.1203613</ele>
        <time>2009-12-05T14:04:45Z</time>
      </trkpt>
      <trkpt lat="43.72613" lon="6.98548">
        <ele>746.1203613</ele>
        <time>2009-12-05T14:05:03Z</time>
      </trkpt>
      <trkpt lat="43.72598" lon="6.98525">
        <ele>746.1203613</ele>
        <time>2009-12-05T14:05:07Z</time>
      </trkpt>
      <trkpt lat="43.72575" lon="6.98366">
        <ele>746.1203613</ele>
        <time>2009-12-05T14:05:26Z</time>
      </trkpt>
      <trkpt lat="43.72567" lon="6.98334">
        <ele>746.1203613</ele>
        <time>2009-12-05T14:05:30Z</time>
      </trkpt>
      <trkpt lat="43.72531" lon="6.98287">
        <ele>745.6396484</ele>
        <time>2009-12-05T14:05:38Z</time>
      </trkpt>
      <trkpt lat="43.72509" lon="6.98274">
        <ele>745.6396484</ele>
        <time>2009-12-05T14:05:42Z</time>
      </trkpt>
      <trkpt lat="43.72437" lon="6.98203">
        <ele>745.6396484</ele>
        <time>2009-12-05T14:05:56Z</time>
      </trkpt>
      <trkpt lat="43.72341" lon="6.98085">
        <ele>745.1589355</ele>
        <time>2009-12-05T14:06:16Z</time>
      </trkpt>
      <trkpt lat="43.72246" lon="6.97939">
        <ele>744.6782227</ele>
        <time>2009-12-05T14:06:37Z</time>
      </trkpt>
      <trkpt lat="43.72236" lon="6.97871">
        <ele>744.6782227</ele>
        <time>2009-12-05T14:06:44Z</time>
      </trkpt>
      <trkpt lat="43.72208" lon="6.97797">
        <ele>744.6782227</ele>
        <time>2009-12-05T14:06:53Z</time>
      </trkpt>
      <trkpt lat="43.72141" lon="6.97717">
        <ele>743.717041</ele>
        <time>2009-12-05T14:07:10Z</time>
      </trkpt>
      <trkpt lat="43.72138" lon="6.97713">
        <ele>743.717041</ele>
        <time>2009-12-05T14:07:11Z</time>
      </trkpt>
      <trkpt lat="43.72132" lon="6.97698">
        <ele>744.1977539</ele>
        <time>2009-12-05T14:07:16Z</time>
      </trkpt>
      <trkpt lat="43.72164" lon="6.97639">
        <ele>747.5622559</ele>
        <time>2009-12-05T14:07:33Z</time>
      </trkpt>
      <trkpt lat="43.72175" lon="6.97594">
        <ele>750.4465332</ele>
        <time>2009-12-05T14:07:47Z</time>
      </trkpt>
      <trkpt lat="43.7217" lon="6.97541">
        <ele>753.8110352</ele>
        <time>2009-12-05T14:08:02Z</time>
      </trkpt>
      <trkpt lat="43.72146" lon="6.97485">
        <ele>757.1755371</ele>
        <time>2009-12-05T14:08:20Z</time>
      </trkpt>
      <trkpt lat="43.72151" lon="6.97424">
        <ele>760.0593262</ele>
        <time>2009-12-05T14:08:35Z</time>
      </trkpt>
      <trkpt lat="43.72195" lon="6.97397">
        <ele>762.9433594</ele>
        <time>2009-12-05T14:08:52Z</time>
      </trkpt>
      <trkpt lat="43.72248" lon="6.97375">
        <ele>762.9433594</ele>
        <time>2009-12-05T14:09:10Z</time>
      </trkpt>
      <trkpt lat="43.72279" lon="6.97313">
        <ele>763.4240723</ele>
        <time>2009-12-05T14:09:22Z</time>
      </trkpt>
      <trkpt lat="43.72253" lon="6.97259">
        <ele>763.904541</ele>
        <time>2009-12-05T14:09:31Z</time>
      </trkpt>
      <trkpt lat="43.72253" lon="6.97219">
        <ele>764.385498</ele>
        <time>2009-12-05T14:09:37Z</time>
      </trkpt>
      <trkpt lat="43.72269" lon="6.97124">
        <ele>767.2695313</ele>
        <time>2009-12-05T14:09:56Z</time>
      </trkpt>
      <trkpt lat="43.72269" lon="6.97011">
        <ele>770.6340332</ele>
        <time>2009-12-05T14:10:20Z</time>
      </trkpt>
      <trkpt lat="43.7226" lon="6.96948">
        <ele>771.1147461</ele>
        <time>2009-12-05T14:10:32Z</time>
      </trkpt>
      <trkpt lat="43.72258" lon="6.96884">
        <ele>774.479248</ele>
        <time>2009-12-05T14:10:45Z</time>
      </trkpt>
      <trkpt lat="43.72249" lon="6.96787">
        <ele>775.4404297</ele>
        <time>2009-12-05T14:11:04Z</time>
      </trkpt>
      <trkpt lat="43.72226" lon="6.96667">
        <ele>773.0373535</ele>
        <time>2009-12-05T14:11:20Z</time>
      </trkpt>
      <trkpt lat="43.72233" lon="6.96621">
        <ele>770.1533203</ele>
        <time>2009-12-05T14:11:25Z</time>
      </trkpt>
      <trkpt lat="43.7222" lon="6.96543">
        <ele>764.8662109</ele>
        <time>2009-12-05T14:11:32Z</time>
      </trkpt>
      <trkpt lat="43.72217" lon="6.96532">
        <ele>764.385498</ele>
        <time>2009-12-05T14:11:33Z</time>
      </trkpt>
      <trkpt lat="43.72215" lon="6.9652">
        <ele>764.385498</ele>
        <time>2009-12-05T14:11:34Z</time>
      </trkpt>
      <trkpt lat="43.72207" lon="6.96495">
        <ele>762.9433594</ele>
        <time>2009-12-05T14:11:37Z</time>
      </trkpt>
      <trkpt lat="43.72176" lon="6.96494">
        <ele>763.4240723</ele>
        <time>2009-12-05T14:11:44Z</time>
      </trkpt>
      <trkpt lat="43.72173" lon="6.96495">
        <ele>763.4240723</ele>
        <time>2009-12-05T14:11:45Z</time>
      </trkpt>
      <trkpt lat="43.72165" lon="6.96501">
        <ele>763.904541</ele>
        <time>2009-12-05T14:11:47Z</time>
      </trkpt>
      <trkpt lat="43.72118" lon="6.9654">
        <ele>765.8276367</ele>
        <time>2009-12-05T14:12:01Z</time>
      </trkpt>
      <trkpt lat="43.72101" lon="6.96546">
        <ele>765.8276367</ele>
        <time>2009-12-05T14:12:05Z</time>
      </trkpt>
      <trkpt lat="43.72083" lon="6.96552">
        <ele>765.3469238</ele>
        <time>2009-12-05T14:12:09Z</time>
      </trkpt>
      <trkpt lat="43.72059" lon="6.96523">
        <ele>762.4626465</ele>
        <time>2009-12-05T14:12:15Z</time>
      </trkpt>
      <trkpt lat="43.72051" lon="6.96435">
        <ele>759.0981445</ele>
        <time>2009-12-05T14:12:25Z</time>
      </trkpt>
      <trkpt lat="43.72046" lon="6.96408">
        <ele>758.1369629</ele>
        <time>2009-12-05T14:12:29Z</time>
      </trkpt>
      <trkpt lat="43.72033" lon="6.9637">
        <ele>759.0981445</ele>
        <time>2009-12-05T14:12:39Z</time>
      </trkpt>
      <trkpt lat="43.72032" lon="6.96361">
        <ele>759.5788574</ele>
        <time>2009-12-05T14:12:42Z</time>
      </trkpt>
      <trkpt lat="43.72026" lon="6.9632">
        <ele>762.4626465</ele>
        <time>2009-12-05T14:12:56Z</time>
      </trkpt>
      <trkpt lat="43.72018" lon="6.96277">
        <ele>765.8276367</ele>
        <time>2009-12-05T14:13:12Z</time>
      </trkpt>
      <trkpt lat="43.72006" lon="6.96231">
        <ele>768.7114258</ele>
        <time>2009-12-05T14:13:29Z</time>
      </trkpt>
      <trkpt lat="43.72005" lon="6.96221">
        <ele>769.1921387</ele>
        <time>2009-12-05T14:13:38Z</time>
      </trkpt>
      <trkpt lat="43.72005" lon="6.96221">
        <ele>769.1921387</ele>
        <time>2009-12-05T14:13:56Z</time>
      </trkpt>
      <trkpt lat="43.72005" lon="6.96221">
        <ele>768.7114258</ele>
        <time>2009-12-05T14:14:39Z</time>
      </trkpt>
      <trkpt lat="43.72005" lon="6.96221">
        <ele>768.7114258</ele>
        <time>2009-12-05T14:18:55Z</time>
      </trkpt>
      <trkpt lat="43.72005" lon="6.96221">
        <ele>768.7114258</ele>
        <time>2009-12-05T14:19:24Z</time>
      </trkpt>
      <trkpt lat="43.71999" lon="6.96202">
        <ele>768.7114258</ele>
        <time>2009-12-05T14:19:30Z</time>
      </trkpt>
      <trkpt lat="43.7198" lon="6.96191">
        <ele>767.75</ele>
        <time>2009-12-05T14:19:37Z</time>
      </trkpt>
      <trkpt lat="43.71957" lon="6.96172">
        <ele>765.8276367</ele>
        <time>2009-12-05T14:19:42Z</time>
      </trkpt>
      <trkpt lat="43.71944" lon="6.96171">
        <ele>764.8662109</ele>
        <time>2009-12-05T14:19:44Z</time>
      </trkpt>
      <trkpt lat="43.71924" lon="6.96174">
        <ele>764.385498</ele>
        <time>2009-12-05T14:19:48Z</time>
      </trkpt>
      <trkpt lat="43.71863" lon="6.96189">
        <ele>766.7888184</ele>
        <time>2009-12-05T14:20:05Z</time>
      </trkpt>
      <trkpt lat="43.71857" lon="6.96193">
        <ele>766.7888184</ele>
        <time>2009-12-05T14:20:07Z</time>
      </trkpt>
      <trkpt lat="43.71845" lon="6.96204">
        <ele>766.7888184</ele>
        <time>2009-12-05T14:20:11Z</time>
      </trkpt>
      <trkpt lat="43.7181" lon="6.96257">
        <ele>766.7888184</ele>
        <time>2009-12-05T14:20:25Z</time>
      </trkpt>
      <trkpt lat="43.71793" lon="6.96321">
        <ele>768.2307129</ele>
        <time>2009-12-05T14:20:40Z</time>
      </trkpt>
      <trkpt lat="43.71782" lon="6.96369">
        <ele>771.1147461</ele>
        <time>2009-12-05T14:20:55Z</time>
      </trkpt>
      <trkpt lat="43.71767" lon="6.96409">
        <ele>774.479248</ele>
        <time>2009-12-05T14:21:10Z</time>
      </trkpt>
      <trkpt lat="43.71729" lon="6.96449">
        <ele>777.3632813</ele>
        <time>2009-12-05T14:21:31Z</time>
      </trkpt>
      <trkpt lat="43.71704" lon="6.96483">
        <ele>778.3244629</ele>
        <time>2009-12-05T14:21:45Z</time>
      </trkpt>
      <trkpt lat="43.71683" lon="6.96526">
        <ele>778.3244629</ele>
        <time>2009-12-05T14:21:59Z</time>
      </trkpt>
      <trkpt lat="43.71665" lon="6.96538">
        <ele>777.3632813</ele>
        <time>2009-12-05T14:22:03Z</time>
      </trkpt>
      <trkpt lat="43.71655" lon="6.96546">
        <ele>776.4018555</ele>
        <time>2009-12-05T14:22:05Z</time>
      </trkpt>
      <trkpt lat="43.7165" lon="6.96551">
        <ele>776.4018555</ele>
        <time>2009-12-05T14:22:06Z</time>
      </trkpt>
      <trkpt lat="43.71635" lon="6.96574">
        <ele>775.9211426</ele>
        <time>2009-12-05T14:22:11Z</time>
      </trkpt>
      <trkpt lat="43.7163" lon="6.96583">
        <ele>775.4404297</ele>
        <time>2009-12-05T14:22:13Z</time>
      </trkpt>
      <trkpt lat="43.71598" lon="6.96644">
        <ele>777.3632813</ele>
        <time>2009-12-05T14:22:29Z</time>
      </trkpt>
      <trkpt lat="43.71579" lon="6.96688">
        <ele>780.2473145</ele>
        <time>2009-12-05T14:22:44Z</time>
      </trkpt>
      <trkpt lat="43.71575" lon="6.96696">
        <ele>780.7280273</ele>
        <time>2009-12-05T14:22:47Z</time>
      </trkpt>
      <trkpt lat="43.71555" lon="6.96736">
        <ele>784.5732422</ele>
        <time>2009-12-05T14:23:03Z</time>
      </trkpt>
      <trkpt lat="43.71513" lon="6.96752">
        <ele>787.4570313</ele>
        <time>2009-12-05T14:23:23Z</time>
      </trkpt>
      <trkpt lat="43.71491" lon="6.96747">
        <ele>787.9377441</ele>
        <time>2009-12-05T14:23:31Z</time>
      </trkpt>
      <trkpt lat="43.71447" lon="6.96657">
        <ele>788.8991699</ele>
        <time>2009-12-05T14:23:53Z</time>
      </trkpt>
      <trkpt lat="43.71442" lon="6.96589">
        <ele>789.3796387</ele>
        <time>2009-12-05T14:24:05Z</time>
      </trkpt>
      <trkpt lat="43.71427" lon="6.96529">
        <ele>789.8603516</ele>
        <time>2009-12-05T14:24:17Z</time>
      </trkpt>
      <trkpt lat="43.7143" lon="6.96456">
        <ele>790.3410645</ele>
        <time>2009-12-05T14:24:30Z</time>
      </trkpt>
      <trkpt lat="43.71427" lon="6.9644">
        <ele>790.8215332</ele>
        <time>2009-12-05T14:24:33Z</time>
      </trkpt>
      <trkpt lat="43.71406" lon="6.96394">
        <ele>790.8215332</ele>
        <time>2009-12-05T14:24:43Z</time>
      </trkpt>
      <trkpt lat="43.71384" lon="6.96357">
        <ele>790.8215332</ele>
        <time>2009-12-05T14:24:51Z</time>
      </trkpt>
      <trkpt lat="43.71376" lon="6.96343">
        <ele>790.8215332</ele>
        <time>2009-12-05T14:24:54Z</time>
      </trkpt>
      <trkpt lat="43.71366" lon="6.96327">
        <ele>790.8215332</ele>
        <time>2009-12-05T14:24:58Z</time>
      </trkpt>
      <trkpt lat="43.7132" lon="6.96303">
        <ele>791.3022461</ele>
        <time>2009-12-05T14:25:10Z</time>
      </trkpt>
      <trkpt lat="43.71309" lon="6.96296">
        <ele>791.3022461</ele>
        <time>2009-12-05T14:25:13Z</time>
      </trkpt>
      <trkpt lat="43.71294" lon="6.96278">
        <ele>791.3022461</ele>
        <time>2009-12-05T14:25:18Z</time>
      </trkpt>
      <trkpt lat="43.71278" lon="6.96274">
        <ele>791.3022461</ele>
        <time>2009-12-05T14:25:22Z</time>
      </trkpt>
      <trkpt lat="43.7127" lon="6.96277">
        <ele>791.3022461</ele>
        <time>2009-12-05T14:25:24Z</time>
      </trkpt>
      <trkpt lat="43.71234" lon="6.96282">
        <ele>791.3022461</ele>
        <time>2009-12-05T14:25:32Z</time>
      </trkpt>
      <trkpt lat="43.71214" lon="6.96288">
        <ele>790.8215332</ele>
        <time>2009-12-05T14:25:36Z</time>
      </trkpt>
      <trkpt lat="43.71204" lon="6.96289">
        <ele>790.8215332</ele>
        <time>2009-12-05T14:25:38Z</time>
      </trkpt>
      <trkpt lat="43.7118" lon="6.96274">
        <ele>789.3796387</ele>
        <time>2009-12-05T14:25:43Z</time>
      </trkpt>
      <trkpt lat="43.71164" lon="6.96285">
        <ele>786.9763184</ele>
        <time>2009-12-05T14:25:51Z</time>
      </trkpt>
      <trkpt lat="43.71164" lon="6.9633">
        <ele>785.0539551</ele>
        <time>2009-12-05T14:25:57Z</time>
      </trkpt>
      <trkpt lat="43.71173" lon="6.96365">
        <ele>782.6506348</ele>
        <time>2009-12-05T14:26:01Z</time>
      </trkpt>
      <trkpt lat="43.71204" lon="6.96427">
        <ele>780.2473145</ele>
        <time>2009-12-05T14:26:09Z</time>
      </trkpt>
      <trkpt lat="43.71215" lon="6.96453">
        <ele>779.7663574</ele>
        <time>2009-12-05T14:26:13Z</time>
      </trkpt>
      <trkpt lat="43.71217" lon="6.96486">
        <ele>779.2856445</ele>
        <time>2009-12-05T14:26:19Z</time>
      </trkpt>
      <trkpt lat="43.71212" lon="6.96492">
        <ele>778.8051758</ele>
        <time>2009-12-05T14:26:23Z</time>
      </trkpt>
      <trkpt lat="43.71138" lon="6.96492">
        <ele>775.9211426</ele>
        <time>2009-12-05T14:26:35Z</time>
      </trkpt>
      <trkpt lat="43.71132" lon="6.96474">
        <ele>773.9985352</ele>
        <time>2009-12-05T14:26:41Z</time>
      </trkpt>
      <trkpt lat="43.7114" lon="6.96463">
        <ele>773.0373535</ele>
        <time>2009-12-05T14:26:43Z</time>
      </trkpt>
      <trkpt lat="43.71126" lon="6.9646">
        <ele>772.0759277</ele>
        <time>2009-12-05T14:26:48Z</time>
      </trkpt>
      <trkpt lat="43.71124" lon="6.96453">
        <ele>772.5566406</ele>
        <time>2009-12-05T14:26:50Z</time>
      </trkpt>
      <trkpt lat="43.71114" lon="6.96414">
        <ele>772.5566406</ele>
        <time>2009-12-05T14:27:00Z</time>
      </trkpt>
      <trkpt lat="43.71096" lon="6.96411">
        <ele>772.5566406</ele>
        <time>2009-12-05T14:27:07Z</time>
      </trkpt>
      <trkpt lat="43.71092" lon="6.96414">
        <ele>773.0373535</ele>
        <time>2009-12-05T14:27:09Z</time>
      </trkpt>
      <trkpt lat="43.7108" lon="6.9641">
        <ele>773.9985352</ele>
        <time>2009-12-05T14:27:14Z</time>
      </trkpt>
      <trkpt lat="43.71047" lon="6.96381">
        <ele>776.4018555</ele>
        <time>2009-12-05T14:27:30Z</time>
      </trkpt>
      <trkpt lat="43.71039" lon="6.96335">
        <ele>776.4018555</ele>
        <time>2009-12-05T14:27:42Z</time>
      </trkpt>
      <trkpt lat="43.71037" lon="6.9632">
        <ele>775.9211426</ele>
        <time>2009-12-05T14:27:45Z</time>
      </trkpt>
      <trkpt lat="43.71032" lon="6.96309">
        <ele>776.8825684</ele>
        <time>2009-12-05T14:27:49Z</time>
      </trkpt>
      <trkpt lat="43.71027" lon="6.96302">
        <ele>776.8825684</ele>
        <time>2009-12-05T14:27:52Z</time>
      </trkpt>
      <trkpt lat="43.71024" lon="6.96286">
        <ele>778.8051758</ele>
        <time>2009-12-05T14:28:04Z</time>
      </trkpt>
      <trkpt lat="43.71015" lon="6.96269">
        <ele>781.689209</ele>
        <time>2009-12-05T14:28:22Z</time>
      </trkpt>
      <trkpt lat="43.71015" lon="6.96268">
        <ele>782.1699219</ele>
        <time>2009-12-05T14:28:23Z</time>
      </trkpt>
      <trkpt lat="43.71014" lon="6.96266">
        <ele>782.6506348</ele>
        <time>2009-12-05T14:28:25Z</time>
      </trkpt>
      <trkpt lat="43.71015" lon="6.9625">
        <ele>783.6118164</ele>
        <time>2009-12-05T14:28:40Z</time>
      </trkpt>
      <trkpt lat="43.71017" lon="6.96225">
        <ele>785.0539551</ele>
        <time>2009-12-05T14:28:51Z</time>
      </trkpt>
      <trkpt lat="43.70998" lon="6.96174">
        <ele>786.9763184</ele>
        <time>2009-12-05T14:29:10Z</time>
      </trkpt>
      <trkpt lat="43.70997" lon="6.96171">
        <ele>786.9763184</ele>
        <time>2009-12-05T14:29:11Z</time>
      </trkpt>
      <trkpt lat="43.70994" lon="6.96159">
        <ele>788.418457</ele>
        <time>2009-12-05T14:29:15Z</time>
      </trkpt>
      <trkpt lat="43.70989" lon="6.96155">
        <ele>789.8603516</ele>
        <time>2009-12-05T14:29:19Z</time>
      </trkpt>
      <trkpt lat="43.7098" lon="6.96147">
        <ele>791.782959</ele>
        <time>2009-12-05T14:29:34Z</time>
      </trkpt>
      <trkpt lat="43.7097" lon="6.96132">
        <ele>794.1862793</ele>
        <time>2009-12-05T14:29:50Z</time>
      </trkpt>
      <trkpt lat="43.70961" lon="6.96118">
        <ele>797.5510254</ele>
        <time>2009-12-05T14:30:04Z</time>
      </trkpt>
      <trkpt lat="43.7096" lon="6.96118">
        <ele>798.0317383</ele>
        <time>2009-12-05T14:30:06Z</time>
      </trkpt>
      <trkpt lat="43.70958" lon="6.96115">
        <ele>798.0317383</ele>
        <time>2009-12-05T14:30:09Z</time>
      </trkpt>
      <trkpt lat="43.70949" lon="6.96088">
        <ele>800.9155273</ele>
        <time>2009-12-05T14:30:27Z</time>
      </trkpt>
      <trkpt lat="43.70948" lon="6.96071">
        <ele>801.8769531</ele>
        <time>2009-12-05T14:30:42Z</time>
      </trkpt>
      <trkpt lat="43.70944" lon="6.96031">
        <ele>804.2802734</ele>
        <time>2009-12-05T14:30:57Z</time>
      </trkpt>
      <trkpt lat="43.70949" lon="6.96003">
        <ele>805.722168</ele>
        <time>2009-12-05T14:31:08Z</time>
      </trkpt>
      <trkpt lat="43.70931" lon="6.95969">
        <ele>807.1640625</ele>
        <time>2009-12-05T14:31:22Z</time>
      </trkpt>
      <trkpt lat="43.70916" lon="6.95959">
        <ele>806.6833496</ele>
        <time>2009-12-05T14:31:29Z</time>
      </trkpt>
      <trkpt lat="43.7089" lon="6.9593">
        <ele>806.6833496</ele>
        <time>2009-12-05T14:31:42Z</time>
      </trkpt>
      <trkpt lat="43.70861" lon="6.95895">
        <ele>809.5673828</ele>
        <time>2009-12-05T14:31:59Z</time>
      </trkpt>
      <trkpt lat="43.70837" lon="6.95868">
        <ele>812.451416</ele>
        <time>2009-12-05T14:32:13Z</time>
      </trkpt>
      <trkpt lat="43.70808" lon="6.95849">
        <ele>813.8933105</ele>
        <time>2009-12-05T14:32:28Z</time>
      </trkpt>
      <trkpt lat="43.70801" lon="6.95841">
        <ele>813.8933105</ele>
        <time>2009-12-05T14:32:32Z</time>
      </trkpt>
      <trkpt lat="43.70798" lon="6.95837">
        <ele>813.4128418</ele>
        <time>2009-12-05T14:32:48Z</time>
      </trkpt>
      <trkpt lat="43.70798" lon="6.95836">
        <ele>813.4128418</ele>
        <time>2009-12-05T14:32:56Z</time>
      </trkpt>
      <trkpt lat="43.70783" lon="6.95839">
        <ele>813.4128418</ele>
        <time>2009-12-05T14:33:07Z</time>
      </trkpt>
      <trkpt lat="43.70778" lon="6.9585">
        <ele>811.9707031</ele>
        <time>2009-12-05T14:33:10Z</time>
      </trkpt>
      <trkpt lat="43.70766" lon="6.95858">
        <ele>811.4899902</ele>
        <time>2009-12-05T14:33:14Z</time>
      </trkpt>
      <trkpt lat="43.70718" lon="6.95817">
        <ele>808.1254883</ele>
        <time>2009-12-05T14:33:21Z</time>
      </trkpt>
      <trkpt lat="43.70736" lon="6.95886">
        <ele>806.2026367</ele>
        <time>2009-12-05T14:33:25Z</time>
      </trkpt>
      <trkpt lat="43.70729" lon="6.95894">
        <ele>805.722168</ele>
        <time>2009-12-05T14:33:28Z</time>
      </trkpt>
      <trkpt lat="43.70683" lon="6.95879">
        <ele>804.7607422</ele>
        <time>2009-12-05T14:33:32Z</time>
      </trkpt>
      <trkpt lat="43.70676" lon="6.9589">
        <ele>802.3574219</ele>
        <time>2009-12-05T14:33:40Z</time>
      </trkpt>
      <trkpt lat="43.70672" lon="6.95897">
        <ele>799.9543457</ele>
        <time>2009-12-05T14:33:44Z</time>
      </trkpt>
      <trkpt lat="43.70662" lon="6.95904">
        <ele>798.0317383</ele>
        <time>2009-12-05T14:33:49Z</time>
      </trkpt>
      <trkpt lat="43.70646" lon="6.95916">
        <ele>797.0703125</ele>
        <time>2009-12-05T14:33:54Z</time>
      </trkpt>
      <trkpt lat="43.70635" lon="6.95925">
        <ele>795.1474609</ele>
        <time>2009-12-05T14:33:57Z</time>
      </trkpt>
      <trkpt lat="43.70624" lon="6.95934">
        <ele>794.1862793</ele>
        <time>2009-12-05T14:34:01Z</time>
      </trkpt>
      <trkpt lat="43.7065" lon="6.96017">
        <ele>794.1862793</ele>
        <time>2009-12-05T14:34:10Z</time>
      </trkpt>
      <trkpt lat="43.70652" lon="6.96039">
        <ele>793.7055664</ele>
        <time>2009-12-05T14:34:14Z</time>
      </trkpt>
      <trkpt lat="43.70666" lon="6.96096">
        <ele>792.7443848</ele>
        <time>2009-12-05T14:34:25Z</time>
      </trkpt>
      <trkpt lat="43.70677" lon="6.96107">
        <ele>792.7443848</ele>
        <time>2009-12-05T14:34:29Z</time>
      </trkpt>
      <trkpt lat="43.70695" lon="6.96149">
        <ele>793.7055664</ele>
        <time>2009-12-05T14:34:39Z</time>
      </trkpt>
      <trkpt lat="43.70701" lon="6.96169">
        <ele>792.7443848</ele>
        <time>2009-12-05T14:34:43Z</time>
      </trkpt>
      <trkpt lat="43.70708" lon="6.96179">
        <ele>792.7443848</ele>
        <time>2009-12-05T14:34:46Z</time>
      </trkpt>
      <trkpt lat="43.70708" lon="6.96203">
        <ele>791.3022461</ele>
        <time>2009-12-05T14:34:50Z</time>
      </trkpt>
      <trkpt lat="43.70706" lon="6.96214">
        <ele>789.3796387</ele>
        <time>2009-12-05T14:34:52Z</time>
      </trkpt>
      <trkpt lat="43.70713" lon="6.96234">
        <ele>788.418457</ele>
        <time>2009-12-05T14:34:56Z</time>
      </trkpt>
      <trkpt lat="43.70715" lon="6.9625">
        <ele>787.9377441</ele>
        <time>2009-12-05T14:34:59Z</time>
      </trkpt>
      <trkpt lat="43.70724" lon="6.96264">
        <ele>787.9377441</ele>
        <time>2009-12-05T14:35:03Z</time>
      </trkpt>
      <trkpt lat="43.70734" lon="6.96309">
        <ele>787.4570313</ele>
        <time>2009-12-05T14:35:13Z</time>
      </trkpt>
      <trkpt lat="43.70732" lon="6.9634">
        <ele>785.0539551</ele>
        <time>2009-12-05T14:35:17Z</time>
      </trkpt>
      <trkpt lat="43.70723" lon="6.96359">
        <ele>784.0925293</ele>
        <time>2009-12-05T14:35:20Z</time>
      </trkpt>
      <trkpt lat="43.70721" lon="6.96364">
        <ele>783.6118164</ele>
        <time>2009-12-05T14:35:21Z</time>
      </trkpt>
      <trkpt lat="43.70719" lon="6.96389">
        <ele>782.6506348</ele>
        <time>2009-12-05T14:35:25Z</time>
      </trkpt>
      <trkpt lat="43.70713" lon="6.96408">
        <ele>781.689209</ele>
        <time>2009-12-05T14:35:28Z</time>
      </trkpt>
      <trkpt lat="43.70718" lon="6.96428">
        <ele>780.7280273</ele>
        <time>2009-12-05T14:35:32Z</time>
      </trkpt>
      <trkpt lat="43.70721" lon="6.9645">
        <ele>779.2856445</ele>
        <time>2009-12-05T14:35:36Z</time>
      </trkpt>
      <trkpt lat="43.70717" lon="6.96466">
        <ele>778.3244629</ele>
        <time>2009-12-05T14:35:39Z</time>
      </trkpt>
      <trkpt lat="43.70731" lon="6.96488">
        <ele>776.4018555</ele>
        <time>2009-12-05T14:35:46Z</time>
      </trkpt>
      <trkpt lat="43.70735" lon="6.96497">
        <ele>775.9211426</ele>
        <time>2009-12-05T14:35:48Z</time>
      </trkpt>
      <trkpt lat="43.70749" lon="6.96516">
        <ele>774.479248</ele>
        <time>2009-12-05T14:35:53Z</time>
      </trkpt>
      <trkpt lat="43.70751" lon="6.96569">
        <ele>775.4404297</ele>
        <time>2009-12-05T14:36:04Z</time>
      </trkpt>
      <trkpt lat="43.70754" lon="6.96578">
        <ele>775.4404297</ele>
        <time>2009-12-05T14:36:06Z</time>
      </trkpt>
      <trkpt lat="43.70755" lon="6.96597">
        <ele>775.4404297</ele>
        <time>2009-12-05T14:36:10Z</time>
      </trkpt>
      <trkpt lat="43.70774" lon="6.96636">
        <ele>773.5180664</ele>
        <time>2009-12-05T14:36:20Z</time>
      </trkpt>
      <trkpt lat="43.70779" lon="6.96651">
        <ele>772.0759277</ele>
        <time>2009-12-05T14:36:23Z</time>
      </trkpt>
      <trkpt lat="43.70794" lon="6.96666">
        <ele>768.2307129</ele>
        <time>2009-12-05T14:36:28Z</time>
      </trkpt>
      <trkpt lat="43.70802" lon="6.96676">
        <ele>765.3469238</ele>
        <time>2009-12-05T14:36:31Z</time>
      </trkpt>
      <trkpt lat="43.70811" lon="6.96709">
        <ele>761.9821777</ele>
        <time>2009-12-05T14:36:38Z</time>
      </trkpt>
      <trkpt lat="43.70818" lon="6.96726">
        <ele>758.6174316</ele>
        <time>2009-12-05T14:36:42Z</time>
      </trkpt>
      <trkpt lat="43.7082" lon="6.96733">
        <ele>757.1755371</ele>
        <time>2009-12-05T14:36:44Z</time>
      </trkpt>
      <trkpt lat="43.70831" lon="6.96749">
        <ele>752.8496094</ele>
        <time>2009-12-05T14:36:50Z</time>
      </trkpt>
      <trkpt lat="43.70841" lon="6.96758">
        <ele>749.4851074</ele>
        <time>2009-12-05T14:36:55Z</time>
      </trkpt>
      <trkpt lat="43.70851" lon="6.96767">
        <ele>746.6010742</ele>
        <time>2009-12-05T14:37:00Z</time>
      </trkpt>
      <trkpt lat="43.70862" lon="6.96775">
        <ele>743.2363281</ele>
        <time>2009-12-05T14:37:05Z</time>
      </trkpt>
      <trkpt lat="43.70871" lon="6.9678">
        <ele>740.3525391</ele>
        <time>2009-12-05T14:37:09Z</time>
      </trkpt>
      <trkpt lat="43.70887" lon="6.96776">
        <ele>736.5073242</ele>
        <time>2009-12-05T14:37:15Z</time>
      </trkpt>
      <trkpt lat="43.70892" lon="6.96776">
        <ele>735.5458984</ele>
        <time>2009-12-05T14:37:17Z</time>
      </trkpt>
      <trkpt lat="43.70903" lon="6.96794">
        <ele>731.7004395</ele>
        <time>2009-12-05T14:37:24Z</time>
      </trkpt>
      <trkpt lat="43.70906" lon="6.96801">
        <ele>730.2585449</ele>
        <time>2009-12-05T14:37:26Z</time>
      </trkpt>
      <trkpt lat="43.70906" lon="6.96808">
        <ele>729.777832</ele>
        <time>2009-12-05T14:37:28Z</time>
      </trkpt>
      <trkpt lat="43.70914" lon="6.96831">
        <ele>725.9326172</ele>
        <time>2009-12-05T14:37:35Z</time>
      </trkpt>
      <trkpt lat="43.70915" lon="6.96834">
        <ele>725.4519043</ele>
        <time>2009-12-05T14:37:36Z</time>
      </trkpt>
      <trkpt lat="43.70923" lon="6.96841">
        <ele>723.0488281</ele>
        <time>2009-12-05T14:37:40Z</time>
      </trkpt>
      <trkpt lat="43.70926" lon="6.96863">
        <ele>721.1262207</ele>
        <time>2009-12-05T14:37:45Z</time>
      </trkpt>
      <trkpt lat="43.70924" lon="6.96871">
        <ele>720.6455078</ele>
        <time>2009-12-05T14:37:47Z</time>
      </trkpt>
      <trkpt lat="43.70925" lon="6.96889">
        <ele>719.2036133</ele>
        <time>2009-12-05T14:37:51Z</time>
      </trkpt>
      <trkpt lat="43.70931" lon="6.96916">
        <ele>715.8388672</ele>
        <time>2009-12-05T14:37:59Z</time>
      </trkpt>
      <trkpt lat="43.70931" lon="6.96918">
        <ele>715.3581543</ele>
        <time>2009-12-05T14:38:18Z</time>
      </trkpt>
      <trkpt lat="43.70932" lon="6.96929">
        <ele>713.9160156</ele>
        <time>2009-12-05T14:38:29Z</time>
      </trkpt>
      <trkpt lat="43.70932" lon="6.96943">
        <ele>712.954834</ele>
        <time>2009-12-05T14:38:39Z</time>
      </trkpt>
      <trkpt lat="43.70931" lon="6.96976">
        <ele>710.5515137</ele>
        <time>2009-12-05T14:38:52Z</time>
      </trkpt>
      <trkpt lat="43.70921" lon="6.97019">
        <ele>707.1870117</ele>
        <time>2009-12-05T14:39:05Z</time>
      </trkpt>
      <trkpt lat="43.70915" lon="6.97036">
        <ele>705.2644043</ele>
        <time>2009-12-05T14:39:11Z</time>
      </trkpt>
      <trkpt lat="43.70897" lon="6.97067">
        <ele>701.8999023</ele>
        <time>2009-12-05T14:39:23Z</time>
      </trkpt>
      <trkpt lat="43.70893" lon="6.97075">
        <ele>700.9384766</ele>
        <time>2009-12-05T14:39:35Z</time>
      </trkpt>
      <trkpt lat="43.70894" lon="6.97074">
        <ele>700.9384766</ele>
        <time>2009-12-05T14:41:46Z</time>
      </trkpt>
      <trkpt lat="43.70901" lon="6.9708">
        <ele>699.9770508</ele>
        <time>2009-12-05T14:41:52Z</time>
      </trkpt>
      <trkpt lat="43.70899" lon="6.97098">
        <ele>698.5349121</ele>
        <time>2009-12-05T14:41:59Z</time>
      </trkpt>
      <trkpt lat="43.70896" lon="6.97102">
        <ele>697.5737305</ele>
        <time>2009-12-05T14:42:01Z</time>
      </trkpt>
      <trkpt lat="43.70895" lon="6.97113">
        <ele>696.1318359</ele>
        <time>2009-12-05T14:42:06Z</time>
      </trkpt>
      <trkpt lat="43.70907" lon="6.97127">
        <ele>694.2092285</ele>
        <time>2009-12-05T14:42:12Z</time>
      </trkpt>
      <trkpt lat="43.70885" lon="6.9718">
        <ele>690.8444824</ele>
        <time>2009-12-05T14:42:21Z</time>
      </trkpt>
      <trkpt lat="43.70883" lon="6.97188">
        <ele>690.3640137</ele>
        <time>2009-12-05T14:42:22Z</time>
      </trkpt>
      <trkpt lat="43.70863" lon="6.97215">
        <ele>688.4414063</ele>
        <time>2009-12-05T14:42:26Z</time>
      </trkpt>
      <trkpt lat="43.70837" lon="6.97243">
        <ele>685.0769043</ele>
        <time>2009-12-05T14:42:30Z</time>
      </trkpt>
      <trkpt lat="43.70815" lon="6.97279">
        <ele>680.7507324</ele>
        <time>2009-12-05T14:42:34Z</time>
      </trkpt>
      <trkpt lat="43.70803" lon="6.9731">
        <ele>676.9055176</ele>
        <time>2009-12-05T14:42:37Z</time>
      </trkpt>
      <trkpt lat="43.70797" lon="6.97336">
        <ele>674.5021973</ele>
        <time>2009-12-05T14:42:40Z</time>
      </trkpt>
      <trkpt lat="43.70793" lon="6.97356">
        <ele>672.5795898</ele>
        <time>2009-12-05T14:42:44Z</time>
      </trkpt>
      <trkpt lat="43.70786" lon="6.97372">
        <ele>670.6569824</ele>
        <time>2009-12-05T14:42:49Z</time>
      </trkpt>
      <trkpt lat="43.70777" lon="6.97422">
        <ele>670.1762695</ele>
        <time>2009-12-05T14:43:03Z</time>
      </trkpt>
      <trkpt lat="43.70769" lon="6.9743">
        <ele>668.734375</ele>
        <time>2009-12-05T14:43:10Z</time>
      </trkpt>
      <trkpt lat="43.70747" lon="6.97466">
        <ele>666.3308105</ele>
        <time>2009-12-05T14:43:16Z</time>
      </trkpt>
      <trkpt lat="43.70731" lon="6.9749">
        <ele>663.9274902</ele>
        <time>2009-12-05T14:43:20Z</time>
      </trkpt>
      <trkpt lat="43.707" lon="6.97515">
        <ele>660.0822754</ele>
        <time>2009-12-05T14:43:27Z</time>
      </trkpt>
      <trkpt lat="43.7069" lon="6.97521">
        <ele>659.1210938</ele>
        <time>2009-12-05T14:43:29Z</time>
      </trkpt>
      <trkpt lat="43.70679" lon="6.97527">
        <ele>658.1599121</ele>
        <time>2009-12-05T14:43:31Z</time>
      </trkpt>
      <trkpt lat="43.70663" lon="6.97534">
        <ele>656.7177734</ele>
        <time>2009-12-05T14:43:34Z</time>
      </trkpt>
      <trkpt lat="43.70658" lon="6.97535">
        <ele>656.2370605</ele>
        <time>2009-12-05T14:43:35Z</time>
      </trkpt>
      <trkpt lat="43.70634" lon="6.97557">
        <ele>656.2370605</ele>
        <time>2009-12-05T14:43:44Z</time>
      </trkpt>
      <trkpt lat="43.7061" lon="6.97561">
        <ele>655.2758789</ele>
        <time>2009-12-05T14:43:56Z</time>
      </trkpt>
      <trkpt lat="43.70603" lon="6.97561">
        <ele>654.795166</ele>
        <time>2009-12-05T14:44:00Z</time>
      </trkpt>
      <trkpt lat="43.70627" lon="6.97572">
        <ele>654.3146973</ele>
        <time>2009-12-05T14:44:02Z</time>
      </trkpt>
      <trkpt lat="43.70592" lon="6.97548">
        <ele>652.3918457</ele>
        <time>2009-12-05T14:44:10Z</time>
      </trkpt>
      <trkpt lat="43.70587" lon="6.97536">
        <ele>650.4692383</ele>
        <time>2009-12-05T14:44:15Z</time>
      </trkpt>
      <trkpt lat="43.7059" lon="6.97526">
        <ele>650.4692383</ele>
        <time>2009-12-05T14:44:18Z</time>
      </trkpt>
      <trkpt lat="43.70591" lon="6.97518">
        <ele>648.065918</ele>
        <time>2009-12-05T14:44:23Z</time>
      </trkpt>
      <trkpt lat="43.70589" lon="6.97516">
        <ele>645.6625977</ele>
        <time>2009-12-05T14:44:36Z</time>
      </trkpt>
      <trkpt lat="43.70589" lon="6.97516">
        <ele>644.7011719</ele>
        <time>2009-12-05T14:44:45Z</time>
      </trkpt>
      <trkpt lat="43.7058" lon="6.97498">
        <ele>642.7788086</ele>
        <time>2009-12-05T14:44:50Z</time>
      </trkpt>
      <trkpt lat="43.7058" lon="6.97495">
        <ele>642.2980957</ele>
        <time>2009-12-05T14:44:52Z</time>
      </trkpt>
      <trkpt lat="43.70572" lon="6.97474">
        <ele>638.4528809</ele>
        <time>2009-12-05T14:45:00Z</time>
      </trkpt>
      <trkpt lat="43.70571" lon="6.97472">
        <ele>637.972168</ele>
        <time>2009-12-05T14:45:01Z</time>
      </trkpt>
      <trkpt lat="43.70548" lon="6.97473">
        <ele>635.0881348</ele>
        <time>2009-12-05T14:45:11Z</time>
      </trkpt>
      <trkpt lat="43.70547" lon="6.97473">
        <ele>633.6459961</ele>
        <time>2009-12-05T14:45:24Z</time>
      </trkpt>
      <trkpt lat="43.70547" lon="6.97473">
        <ele>633.6459961</ele>
        <time>2009-12-05T14:45:32Z</time>
      </trkpt>
      <trkpt lat="43.70534" lon="6.97471">
        <ele>631.7233887</ele>
        <time>2009-12-05T14:45:39Z</time>
      </trkpt>
      <trkpt lat="43.70534" lon="6.97471">
        <ele>629.8007813</ele>
        <time>2009-12-05T14:45:47Z</time>
      </trkpt>
      <trkpt lat="43.70534" lon="6.97471">
        <ele>629.3200684</ele>
        <time>2009-12-05T14:45:56Z</time>
      </trkpt>
      <trkpt lat="43.70507" lon="6.97455">
        <ele>626.4362793</ele>
        <time>2009-12-05T14:46:08Z</time>
      </trkpt>
      <trkpt lat="43.70505" lon="6.97452">
        <ele>624.032959</ele>
        <time>2009-12-05T14:46:17Z</time>
      </trkpt>
      <trkpt lat="43.70483" lon="6.97433">
        <ele>621.6296387</ele>
        <time>2009-12-05T14:46:28Z</time>
      </trkpt>
      <trkpt lat="43.70467" lon="6.97426">
        <ele>619.2263184</ele>
        <time>2009-12-05T14:46:41Z</time>
      </trkpt>
      <trkpt lat="43.70467" lon="6.97426">
        <ele>618.2648926</ele>
        <time>2009-12-05T14:46:46Z</time>
      </trkpt>
      <trkpt lat="43.70459" lon="6.97438">
        <ele>616.822998</ele>
        <time>2009-12-05T14:46:54Z</time>
      </trkpt>
      <trkpt lat="43.70447" lon="6.97429">
        <ele>613.9389648</ele>
        <time>2009-12-05T14:47:04Z</time>
      </trkpt>
      <trkpt lat="43.70444" lon="6.97413">
        <ele>611.5358887</ele>
        <time>2009-12-05T14:47:14Z</time>
      </trkpt>
      <trkpt lat="43.70444" lon="6.97412">
        <ele>611.5358887</ele>
        <time>2009-12-05T14:47:15Z</time>
      </trkpt>
      <trkpt lat="43.70441" lon="6.9741">
        <ele>611.0551758</ele>
        <time>2009-12-05T14:47:26Z</time>
      </trkpt>
      <trkpt lat="43.70442" lon="6.97408">
        <ele>611.0551758</ele>
        <time>2009-12-05T14:47:58Z</time>
      </trkpt>
      <trkpt lat="43.70443" lon="6.97407">
        <ele>611.0551758</ele>
        <time>2009-12-05T14:48:22Z</time>
      </trkpt>
      <trkpt lat="43.70443" lon="6.97407">
        <ele>611.5358887</ele>
        <time>2009-12-05T14:48:32Z</time>
      </trkpt>
      <trkpt lat="43.70444" lon="6.97398">
        <ele>611.5358887</ele>
        <time>2009-12-05T14:48:37Z</time>
      </trkpt>
      <trkpt lat="43.70444" lon="6.97388">
        <ele>611.5358887</ele>
        <time>2009-12-05T14:48:41Z</time>
      </trkpt>
      <trkpt lat="43.70443" lon="6.97382">
        <ele>611.5358887</ele>
        <time>2009-12-05T14:48:47Z</time>
      </trkpt>
      <trkpt lat="43.70444" lon="6.97406">
        <ele>611.5358887</ele>
        <time>2009-12-05T14:48:57Z</time>
      </trkpt>
      <trkpt lat="43.7044" lon="6.97408">
        <ele>610.5744629</ele>
        <time>2009-12-05T14:49:04Z</time>
      </trkpt>
      <trkpt lat="43.70434" lon="6.9741">
        <ele>608.6518555</ele>
        <time>2009-12-05T14:49:12Z</time>
      </trkpt>
      <trkpt lat="43.70425" lon="6.97414">
        <ele>607.2099609</ele>
        <time>2009-12-05T14:49:23Z</time>
      </trkpt>
      <trkpt lat="43.70419" lon="6.97412">
        <ele>604.8066406</ele>
        <time>2009-12-05T14:49:34Z</time>
      </trkpt>
      <trkpt lat="43.70415" lon="6.97408">
        <ele>603.8452148</ele>
        <time>2009-12-05T14:49:45Z</time>
      </trkpt>
      <trkpt lat="43.70414" lon="6.97408">
        <ele>603.364502</ele>
        <time>2009-12-05T14:49:58Z</time>
      </trkpt>
      <trkpt lat="43.70405" lon="6.97401">
        <ele>603.364502</ele>
        <time>2009-12-05T14:50:03Z</time>
      </trkpt>
      <trkpt lat="43.70393" lon="6.97397">
        <ele>603.364502</ele>
        <time>2009-12-05T14:50:08Z</time>
      </trkpt>
      <trkpt lat="43.70389" lon="6.97397">
        <ele>602.4030762</ele>
        <time>2009-12-05T14:50:11Z</time>
      </trkpt>
      <trkpt lat="43.70387" lon="6.97399">
        <ele>602.4030762</ele>
        <time>2009-12-05T14:50:13Z</time>
      </trkpt>
      <trkpt lat="43.70379" lon="6.97397">
        <ele>601.4418945</ele>
        <time>2009-12-05T14:50:24Z</time>
      </trkpt>
      <trkpt lat="43.70374" lon="6.97403">
        <ele>599.0385742</ele>
        <time>2009-12-05T14:50:37Z</time>
      </trkpt>
      <trkpt lat="43.70361" lon="6.97413">
        <ele>595.1933594</ele>
        <time>2009-12-05T14:50:48Z</time>
      </trkpt>
      <trkpt lat="43.70354" lon="6.9742">
        <ele>594.7126465</ele>
        <time>2009-12-05T14:50:57Z</time>
      </trkpt>
      <trkpt lat="43.70349" lon="6.97427">
        <ele>593.270752</ele>
        <time>2009-12-05T14:51:10Z</time>
      </trkpt>
      <trkpt lat="43.70342" lon="6.9743">
        <ele>591.8288574</ele>
        <time>2009-12-05T14:51:22Z</time>
      </trkpt>
      <trkpt lat="43.7034" lon="6.97432">
        <ele>591.3481445</ele>
        <time>2009-12-05T14:51:24Z</time>
      </trkpt>
      <trkpt lat="43.70335" lon="6.9743">
        <ele>589.90625</ele>
        <time>2009-12-05T14:51:36Z</time>
      </trkpt>
      <trkpt lat="43.70329" lon="6.97426">
        <ele>589.4255371</ele>
        <time>2009-12-05T14:51:40Z</time>
      </trkpt>
      <trkpt lat="43.7029" lon="6.9741">
        <ele>588.9450684</ele>
        <time>2009-12-05T14:51:53Z</time>
      </trkpt>
      <trkpt lat="43.70269" lon="6.97388">
        <ele>585.0996094</ele>
        <time>2009-12-05T14:51:58Z</time>
      </trkpt>
      <trkpt lat="43.70267" lon="6.97368">
        <ele>583.1767578</ele>
        <time>2009-12-05T14:52:00Z</time>
      </trkpt>
      <trkpt lat="43.70268" lon="6.97317">
        <ele>578.8510742</ele>
        <time>2009-12-05T14:52:05Z</time>
      </trkpt>
      <trkpt lat="43.70269" lon="6.97285">
        <ele>575.4863281</ele>
        <time>2009-12-05T14:52:09Z</time>
      </trkpt>
      <trkpt lat="43.70269" lon="6.97278">
        <ele>574.5251465</ele>
        <time>2009-12-05T14:52:10Z</time>
      </trkpt>
      <trkpt lat="43.70269" lon="6.97256">
        <ele>570.6796875</ele>
        <time>2009-12-05T14:52:14Z</time>
      </trkpt>
      <trkpt lat="43.70269" lon="6.97252">
        <ele>569.7185059</ele>
        <time>2009-12-05T14:52:16Z</time>
      </trkpt>
      <trkpt lat="43.70269" lon="6.97252">
        <ele>568.2763672</ele>
        <time>2009-12-05T14:52:19Z</time>
      </trkpt>
      <trkpt lat="43.70262" lon="6.97204">
        <ele>565.873291</ele>
        <time>2009-12-05T14:52:23Z</time>
      </trkpt>
      <trkpt lat="43.70256" lon="6.97174">
        <ele>562.0280762</ele>
        <time>2009-12-05T14:52:28Z</time>
      </trkpt>
      <trkpt lat="43.70253" lon="6.9716">
        <ele>560.1052246</ele>
        <time>2009-12-05T14:52:31Z</time>
      </trkpt>
      <trkpt lat="43.70251" lon="6.97168">
        <ele>558.6633301</ele>
        <time>2009-12-05T14:52:36Z</time>
      </trkpt>
      <trkpt lat="43.70245" lon="6.972">
        <ele>553.3759766</ele>
        <time>2009-12-05T14:52:41Z</time>
      </trkpt>
      <trkpt lat="43.70237" lon="6.97241">
        <ele>549.0500488</ele>
        <time>2009-12-05T14:52:46Z</time>
      </trkpt>
      <trkpt lat="43.70234" lon="6.9727">
        <ele>546.1662598</ele>
        <time>2009-12-05T14:52:50Z</time>
      </trkpt>
      <trkpt lat="43.70232" lon="6.97285">
        <ele>544.7242432</ele>
        <time>2009-12-05T14:52:53Z</time>
      </trkpt>
      <trkpt lat="43.70269" lon="6.97282">
        <ele>543.2821045</ele>
        <time>2009-12-05T14:52:58Z</time>
      </trkpt>
      <trkpt lat="43.70237" lon="6.97244">
        <ele>539.4368896</ele>
        <time>2009-12-05T14:53:06Z</time>
      </trkpt>
      <trkpt lat="43.70237" lon="6.97248">
        <ele>538.475708</ele>
        <time>2009-12-05T14:53:07Z</time>
      </trkpt>
      <trkpt lat="43.70235" lon="6.97267">
        <ele>535.1109619</ele>
        <time>2009-12-05T14:53:11Z</time>
      </trkpt>
      <trkpt lat="43.70233" lon="6.9728">
        <ele>531.2657471</ele>
        <time>2009-12-05T14:53:14Z</time>
      </trkpt>
      <trkpt lat="43.70213" lon="6.97179">
        <ele>528.3818359</ele>
        <time>2009-12-05T14:53:19Z</time>
      </trkpt>
      <trkpt lat="43.70213" lon="6.9721">
        <ele>527.901001</ele>
        <time>2009-12-05T14:53:25Z</time>
      </trkpt>
      <trkpt lat="43.70213" lon="6.97224">
        <ele>526.9398193</ele>
        <time>2009-12-05T14:53:28Z</time>
      </trkpt>
      <trkpt lat="43.70209" lon="6.97263">
        <ele>523.0946045</ele>
        <time>2009-12-05T14:53:34Z</time>
      </trkpt>
      <trkpt lat="43.70205" lon="6.97274">
        <ele>521.1719971</ele>
        <time>2009-12-05T14:53:36Z</time>
      </trkpt>
      <trkpt lat="43.70197" lon="6.97296">
        <ele>516.8459473</ele>
        <time>2009-12-05T14:53:40Z</time>
      </trkpt>
      <trkpt lat="43.70181" lon="6.97322">
        <ele>511.0780029</ele>
        <time>2009-12-05T14:53:45Z</time>
      </trkpt>
      <trkpt lat="43.70173" lon="6.97334">
        <ele>507.2327881</ele>
        <time>2009-12-05T14:53:48Z</time>
      </trkpt>
      <trkpt lat="43.70163" lon="6.97349">
        <ele>503.8681641</ele>
        <time>2009-12-05T14:53:52Z</time>
      </trkpt>
      <trkpt lat="43.70156" lon="6.97367">
        <ele>500.50354</ele>
        <time>2009-12-05T14:53:59Z</time>
      </trkpt>
      <trkpt lat="43.70153" lon="6.97379">
        <ele>499.5422363</ele>
        <time>2009-12-05T14:54:30Z</time>
      </trkpt>
      <trkpt lat="43.70146" lon="6.97403">
        <ele>496.1777344</ele>
        <time>2009-12-05T14:54:36Z</time>
      </trkpt>
      <trkpt lat="43.70144" lon="6.97407">
        <ele>495.2161865</ele>
        <time>2009-12-05T14:54:37Z</time>
      </trkpt>
      <trkpt lat="43.70142" lon="6.97415">
        <ele>493.2935791</ele>
        <time>2009-12-05T14:54:39Z</time>
      </trkpt>
      <trkpt lat="43.70137" lon="6.9743">
        <ele>490.8903809</ele>
        <time>2009-12-05T14:54:43Z</time>
      </trkpt>
      <trkpt lat="43.70133" lon="6.97437">
        <ele>489.9290771</ele>
        <time>2009-12-05T14:54:45Z</time>
      </trkpt>
      <trkpt lat="43.70128" lon="6.97445">
        <ele>487.5256348</ele>
        <time>2009-12-05T14:54:48Z</time>
      </trkpt>
      <trkpt lat="43.70116" lon="6.97464">
        <ele>483.6804199</ele>
        <time>2009-12-05T14:54:54Z</time>
      </trkpt>
      <trkpt lat="43.70108" lon="6.97476">
        <ele>480.7966309</ele>
        <time>2009-12-05T14:54:59Z</time>
      </trkpt>
      <trkpt lat="43.70102" lon="6.97491">
        <ele>477.4318848</ele>
        <time>2009-12-05T14:55:06Z</time>
      </trkpt>
      <trkpt lat="43.70094" lon="6.97474">
        <ele>474.0672607</ele>
        <time>2009-12-05T14:55:12Z</time>
      </trkpt>
      <trkpt lat="43.7009" lon="6.97472">
        <ele>473.1060791</ele>
        <time>2009-12-05T14:55:14Z</time>
      </trkpt>
      <trkpt lat="43.70086" lon="6.9747">
        <ele>472.1446533</ele>
        <time>2009-12-05T14:55:16Z</time>
      </trkpt>
      <trkpt lat="43.70077" lon="6.97472">
        <ele>468.7800293</ele>
        <time>2009-12-05T14:55:23Z</time>
      </trkpt>
      <trkpt lat="43.70075" lon="6.97473">
        <ele>467.3381348</ele>
        <time>2009-12-05T14:55:25Z</time>
      </trkpt>
      <trkpt lat="43.70062" lon="6.9749">
        <ele>463.9733887</ele>
        <time>2009-12-05T14:55:33Z</time>
      </trkpt>
      <trkpt lat="43.70061" lon="6.97506">
        <ele>462.0507813</ele>
        <time>2009-12-05T14:55:37Z</time>
      </trkpt>
      <trkpt lat="43.70061" lon="6.97514">
        <ele>461.0894775</ele>
        <time>2009-12-05T14:55:40Z</time>
      </trkpt>
      <trkpt lat="43.70056" lon="6.97531">
        <ele>458.6861572</ele>
        <time>2009-12-05T14:55:44Z</time>
      </trkpt>
      <trkpt lat="43.70046" lon="6.97562">
        <ele>454.3602295</ele>
        <time>2009-12-05T14:55:51Z</time>
      </trkpt>
      <trkpt lat="43.70044" lon="6.97571">
        <ele>453.8796387</ele>
        <time>2009-12-05T14:55:53Z</time>
      </trkpt>
      <trkpt lat="43.70043" lon="6.97577">
        <ele>452.9182129</ele>
        <time>2009-12-05T14:55:55Z</time>
      </trkpt>
      <trkpt lat="43.70042" lon="6.97585">
        <ele>451.4763184</ele>
        <time>2009-12-05T14:55:58Z</time>
      </trkpt>
      <trkpt lat="43.70039" lon="6.97604">
        <ele>448.1118164</ele>
        <time>2009-12-05T14:56:04Z</time>
      </trkpt>
      <trkpt lat="43.70036" lon="6.97621">
        <ele>444.7470703</ele>
        <time>2009-12-05T14:56:10Z</time>
      </trkpt>
      <trkpt lat="43.70032" lon="6.97632">
        <ele>441.8631592</ele>
        <time>2009-12-05T14:56:16Z</time>
      </trkpt>
      <trkpt lat="43.70029" lon="6.97659">
        <ele>437.5371094</ele>
        <time>2009-12-05T14:56:23Z</time>
      </trkpt>
      <trkpt lat="43.70029" lon="6.97664">
        <ele>437.0565186</ele>
        <time>2009-12-05T14:56:25Z</time>
      </trkpt>
      <trkpt lat="43.70034" lon="6.97706">
        <ele>434.1726074</ele>
        <time>2009-12-05T14:56:33Z</time>
      </trkpt>
      <trkpt lat="43.70036" lon="6.97721">
        <ele>433.6918945</ele>
        <time>2009-12-05T14:56:35Z</time>
      </trkpt>
      <trkpt lat="43.70041" lon="6.97745">
        <ele>431.769165</ele>
        <time>2009-12-05T14:56:40Z</time>
      </trkpt>
      <trkpt lat="43.70038" lon="6.97771">
        <ele>427.4433594</ele>
        <time>2009-12-05T14:56:45Z</time>
      </trkpt>
      <trkpt lat="43.70037" lon="6.97782">
        <ele>423.5980225</ele>
        <time>2009-12-05T14:56:49Z</time>
      </trkpt>
      <trkpt lat="43.70037" lon="6.97782">
        <ele>422.1560059</ele>
        <time>2009-12-05T14:57:01Z</time>
      </trkpt>
      <trkpt lat="43.70037" lon="6.97782">
        <ele>423.1174316</ele>
        <time>2009-12-05T14:57:31Z</time>
      </trkpt>
      <trkpt lat="43.70037" lon="6.97782">
        <ele>423.1174316</ele>
        <time>2009-12-05T14:58:13Z</time>
      </trkpt>
      <trkpt lat="43.7004" lon="6.97752">
        <ele>422.6367188</ele>
        <time>2009-12-05T14:58:26Z</time>
      </trkpt>
      <trkpt lat="43.70009" lon="6.97696">
        <ele>423.1174316</ele>
        <time>2009-12-05T14:58:39Z</time>
      </trkpt>
      <trkpt lat="43.69997" lon="6.97642">
        <ele>423.1174316</ele>
        <time>2009-12-05T14:58:52Z</time>
      </trkpt>
      <trkpt lat="43.69978" lon="6.97578">
        <ele>423.5980225</ele>
        <time>2009-12-05T14:59:08Z</time>
      </trkpt>
      <trkpt lat="43.69946" lon="6.97491">
        <ele>423.1174316</ele>
        <time>2009-12-05T14:59:27Z</time>
      </trkpt>
      <trkpt lat="43.69954" lon="6.97442">
        <ele>422.6367188</ele>
        <time>2009-12-05T14:59:37Z</time>
      </trkpt>
      <trkpt lat="43.69956" lon="6.97433">
        <ele>422.6367188</ele>
        <time>2009-12-05T14:59:39Z</time>
      </trkpt>
      <trkpt lat="43.69934" lon="6.9738">
        <ele>422.6367188</ele>
        <time>2009-12-05T14:59:51Z</time>
      </trkpt>
      <trkpt lat="43.69934" lon="6.97371">
        <ele>422.6367188</ele>
        <time>2009-12-05T14:59:53Z</time>
      </trkpt>
      <trkpt lat="43.69939" lon="6.97321">
        <ele>423.1174316</ele>
        <time>2009-12-05T15:00:03Z</time>
      </trkpt>
      <trkpt lat="43.69961" lon="6.97266">
        <ele>422.6367188</ele>
        <time>2009-12-05T15:00:15Z</time>
      </trkpt>
      <trkpt lat="43.69963" lon="6.972">
        <ele>422.6367188</ele>
        <time>2009-12-05T15:00:28Z</time>
      </trkpt>
      <trkpt lat="43.69961" lon="6.97181">
        <ele>422.6367188</ele>
        <time>2009-12-05T15:00:32Z</time>
      </trkpt>
      <trkpt lat="43.69931" lon="6.97172">
        <ele>420.2333984</ele>
        <time>2009-12-05T15:00:42Z</time>
      </trkpt>
      <trkpt lat="43.69927" lon="6.97171">
        <ele>419.2722168</ele>
        <time>2009-12-05T15:00:45Z</time>
      </trkpt>
      <trkpt lat="43.69932" lon="6.97168">
        <ele>418.7915039</ele>
        <time>2009-12-05T15:00:55Z</time>
      </trkpt>
      <trkpt lat="43.6994" lon="6.97149">
        <ele>419.2722168</ele>
        <time>2009-12-05T15:01:09Z</time>
      </trkpt>
      <trkpt lat="43.69936" lon="6.97123">
        <ele>419.2722168</ele>
        <time>2009-12-05T15:01:23Z</time>
      </trkpt>
      <trkpt lat="43.69936" lon="6.97123">
        <ele>418.310791</ele>
        <time>2009-12-05T15:01:32Z</time>
      </trkpt>
      <trkpt lat="43.69936" lon="6.97123">
        <ele>419.2722168</ele>
        <time>2009-12-05T15:01:53Z</time>
      </trkpt>
      <trkpt lat="43.69936" lon="6.97123">
        <ele>419.7528076</ele>
        <time>2009-12-05T15:01:55Z</time>
      </trkpt>
      <trkpt lat="43.69943" lon="6.9711">
        <ele>419.7528076</ele>
        <time>2009-12-05T15:01:59Z</time>
      </trkpt>
      <trkpt lat="43.69935" lon="6.97117">
        <ele>420.2333984</ele>
        <time>2009-12-05T15:02:03Z</time>
      </trkpt>
      <trkpt lat="43.69928" lon="6.97132">
        <ele>419.2722168</ele>
        <time>2009-12-05T15:02:08Z</time>
      </trkpt>
      <trkpt lat="43.69901" lon="6.97158">
        <ele>418.7915039</ele>
        <time>2009-12-05T15:02:19Z</time>
      </trkpt>
      <trkpt lat="43.69899" lon="6.97163">
        <ele>421.675415</ele>
        <time>2009-12-05T15:02:31Z</time>
      </trkpt>
      <trkpt lat="43.69888" lon="6.97168">
        <ele>423.5980225</ele>
        <time>2009-12-05T15:02:41Z</time>
      </trkpt>
      <trkpt lat="43.69874" lon="6.9717">
        <ele>425.520752</ele>
        <time>2009-12-05T15:02:53Z</time>
      </trkpt>
      <trkpt lat="43.69863" lon="6.97174">
        <ele>425.520752</ele>
        <time>2009-12-05T15:03:08Z</time>
      </trkpt>
      <trkpt lat="43.69849" lon="6.97175">
        <ele>428.4046631</ele>
        <time>2009-12-05T15:03:18Z</time>
      </trkpt>
      <trkpt lat="43.69845" lon="6.97183">
        <ele>428.4046631</ele>
        <time>2009-12-05T15:03:21Z</time>
      </trkpt>
      <trkpt lat="43.69832" lon="6.9718">
        <ele>429.3659668</ele>
        <time>2009-12-05T15:03:26Z</time>
      </trkpt>
      <trkpt lat="43.69814" lon="6.97149">
        <ele>431.2885742</ele>
        <time>2009-12-05T15:03:38Z</time>
      </trkpt>
      <trkpt lat="43.69811" lon="6.97146">
        <ele>430.8079834</ele>
        <time>2009-12-05T15:03:41Z</time>
      </trkpt>
      <trkpt lat="43.69808" lon="6.97151">
        <ele>429.3659668</ele>
        <time>2009-12-05T15:03:45Z</time>
      </trkpt>
      <trkpt lat="43.69807" lon="6.97158">
        <ele>426.9627686</ele>
        <time>2009-12-05T15:03:48Z</time>
      </trkpt>
      <trkpt lat="43.69802" lon="6.97163">
        <ele>425.520752</ele>
        <time>2009-12-05T15:03:51Z</time>
      </trkpt>
      <trkpt lat="43.69801" lon="6.97172">
        <ele>423.1174316</ele>
        <time>2009-12-05T15:03:55Z</time>
      </trkpt>
      <trkpt lat="43.69797" lon="6.97176">
        <ele>421.675415</ele>
        <time>2009-12-05T15:03:58Z</time>
      </trkpt>
      <trkpt lat="43.6979" lon="6.97174">
        <ele>421.1948242</ele>
        <time>2009-12-05T15:04:01Z</time>
      </trkpt>
      <trkpt lat="43.69784" lon="6.97166">
        <ele>421.675415</ele>
        <time>2009-12-05T15:04:04Z</time>
      </trkpt>
      <trkpt lat="43.69773" lon="6.97161">
        <ele>421.675415</ele>
        <time>2009-12-05T15:04:10Z</time>
      </trkpt>
      <trkpt lat="43.69771" lon="6.97168">
        <ele>421.675415</ele>
        <time>2009-12-05T15:04:14Z</time>
      </trkpt>
      <trkpt lat="43.69745" lon="6.97186">
        <ele>421.675415</ele>
        <time>2009-12-05T15:04:23Z</time>
      </trkpt>
      <trkpt lat="43.69721" lon="6.97203">
        <ele>420.7141113</ele>
        <time>2009-12-05T15:04:34Z</time>
      </trkpt>
      <trkpt lat="43.69711" lon="6.97203">
        <ele>420.2333984</ele>
        <time>2009-12-05T15:04:43Z</time>
      </trkpt>
      <trkpt lat="43.6971" lon="6.97203">
        <ele>420.7141113</ele>
        <time>2009-12-05T15:04:49Z</time>
      </trkpt>
      <trkpt lat="43.69704" lon="6.97203">
        <ele>423.5980225</ele>
        <time>2009-12-05T15:05:03Z</time>
      </trkpt>
      <trkpt lat="43.69683" lon="6.9722">
        <ele>424.5594482</ele>
        <time>2009-12-05T15:05:07Z</time>
      </trkpt>
      <trkpt lat="43.69683" lon="6.9722">
        <ele>426.9627686</ele>
        <time>2009-12-05T15:05:21Z</time>
      </trkpt>
      <trkpt lat="43.69683" lon="6.9722">
        <ele>429.8465576</ele>
        <time>2009-12-05T15:05:34Z</time>
      </trkpt>
      <trkpt lat="43.69683" lon="6.9722">
        <ele>432.25</ele>
        <time>2009-12-05T15:05:49Z</time>
      </trkpt>
      <trkpt lat="43.69666" lon="6.9727">
        <ele>428.885376</ele>
        <time>2009-12-05T15:05:57Z</time>
      </trkpt>
      <trkpt lat="43.69666" lon="6.9727">
        <ele>429.3659668</ele>
        <time>2009-12-05T15:06:01Z</time>
      </trkpt>
      <trkpt lat="43.6967" lon="6.97319">
        <ele>428.885376</ele>
        <time>2009-12-05T15:06:14Z</time>
      </trkpt>
      <trkpt lat="43.69665" lon="6.97336">
        <ele>424.5594482</ele>
        <time>2009-12-05T15:06:19Z</time>
      </trkpt>
      <trkpt lat="43.6966" lon="6.97341">
        <ele>422.1560059</ele>
        <time>2009-12-05T15:06:21Z</time>
      </trkpt>
      <trkpt lat="43.69654" lon="6.97352">
        <ele>421.1948242</ele>
        <time>2009-12-05T15:06:23Z</time>
      </trkpt>
      <trkpt lat="43.69633" lon="6.97377">
        <ele>419.2722168</ele>
        <time>2009-12-05T15:06:29Z</time>
      </trkpt>
      <trkpt lat="43.69619" lon="6.97403">
        <ele>418.310791</ele>
        <time>2009-12-05T15:06:40Z</time>
      </trkpt>
      <trkpt lat="43.69607" lon="6.97414">
        <ele>418.310791</ele>
        <time>2009-12-05T15:08:29Z</time>
      </trkpt>
      <trkpt lat="43.69593" lon="6.9742">
        <ele>415.9074707</ele>
        <time>2009-12-05T15:08:33Z</time>
      </trkpt>
      <trkpt lat="43.69583" lon="6.97425">
        <ele>415.4268799</ele>
        <time>2009-12-05T15:08:35Z</time>
      </trkpt>
      <trkpt lat="43.69572" lon="6.97431">
        <ele>414.946167</ele>
        <time>2009-12-05T15:08:37Z</time>
      </trkpt>
      <trkpt lat="43.69558" lon="6.97438">
        <ele>414.4654541</ele>
        <time>2009-12-05T15:08:40Z</time>
      </trkpt>
      <trkpt lat="43.69547" lon="6.97446">
        <ele>414.4654541</ele>
        <time>2009-12-05T15:08:43Z</time>
      </trkpt>
      <trkpt lat="43.69532" lon="6.97458">
        <ele>414.4654541</ele>
        <time>2009-12-05T15:08:47Z</time>
      </trkpt>
      <trkpt lat="43.69518" lon="6.97469">
        <ele>414.4654541</ele>
        <time>2009-12-05T15:08:50Z</time>
      </trkpt>
      <trkpt lat="43.69482" lon="6.97494">
        <ele>413.0235596</ele>
        <time>2009-12-05T15:08:57Z</time>
      </trkpt>
      <trkpt lat="43.69428" lon="6.9753">
        <ele>412.0622559</ele>
        <time>2009-12-05T15:09:07Z</time>
      </trkpt>
      <trkpt lat="43.69406" lon="6.97542">
        <ele>410.6202393</ele>
        <time>2009-12-05T15:09:11Z</time>
      </trkpt>
      <trkpt lat="43.69395" lon="6.97547">
        <ele>408.6976318</ele>
        <time>2009-12-05T15:09:14Z</time>
      </trkpt>
      <trkpt lat="43.69385" lon="6.97575">
        <ele>403.4104004</ele>
        <time>2009-12-05T15:09:18Z</time>
      </trkpt>
      <trkpt lat="43.69381" lon="6.97585">
        <ele>401.0070801</ele>
        <time>2009-12-05T15:09:20Z</time>
      </trkpt>
      <trkpt lat="43.69368" lon="6.97611">
        <ele>396.2005615</ele>
        <time>2009-12-05T15:09:24Z</time>
      </trkpt>
      <trkpt lat="43.69365" lon="6.97618">
        <ele>395.2391357</ele>
        <time>2009-12-05T15:09:25Z</time>
      </trkpt>
      <trkpt lat="43.69361" lon="6.9765">
        <ele>393.3165283</ele>
        <time>2009-12-05T15:09:28Z</time>
      </trkpt>
      <trkpt lat="43.69361" lon="6.97681">
        <ele>390.4326172</ele>
        <time>2009-12-05T15:09:32Z</time>
      </trkpt>
      <trkpt lat="43.69355" lon="6.97718">
        <ele>387.548584</ele>
        <time>2009-12-05T15:09:37Z</time>
      </trkpt>
      <trkpt lat="43.69338" lon="6.97754">
        <ele>384.6647949</ele>
        <time>2009-12-05T15:09:42Z</time>
      </trkpt>
      <trkpt lat="43.69338" lon="6.97754">
        <ele>382.7420654</ele>
        <time>2009-12-05T15:09:45Z</time>
      </trkpt>
      <trkpt lat="43.69312" lon="6.97789">
        <ele>381.7806396</ele>
        <time>2009-12-05T15:09:47Z</time>
      </trkpt>
      <trkpt lat="43.69305" lon="6.9781">
        <ele>379.8580322</ele>
        <time>2009-12-05T15:09:49Z</time>
      </trkpt>
      <trkpt lat="43.69301" lon="6.97836">
        <ele>376.9742432</ele>
        <time>2009-12-05T15:09:52Z</time>
      </trkpt>
      <trkpt lat="43.69297" lon="6.97858">
        <ele>373.6094971</ele>
        <time>2009-12-05T15:09:55Z</time>
      </trkpt>
      <trkpt lat="43.69286" lon="6.97876">
        <ele>371.2062988</ele>
        <time>2009-12-05T15:10:04Z</time>
      </trkpt>
      <trkpt lat="43.69276" lon="6.97879">
        <ele>373.1289063</ele>
        <time>2009-12-05T15:11:25Z</time>
      </trkpt>
      <trkpt lat="43.69269" lon="6.97881">
        <ele>373.6094971</ele>
        <time>2009-12-05T15:11:31Z</time>
      </trkpt>
      <trkpt lat="43.69263" lon="6.9788">
        <ele>373.6094971</ele>
        <time>2009-12-05T15:11:39Z</time>
      </trkpt>
      <trkpt lat="43.69275" lon="6.97879">
        <ele>373.1289063</ele>
        <time>2009-12-05T15:11:45Z</time>
      </trkpt>
      <trkpt lat="43.69287" lon="6.97876">
        <ele>372.1674805</ele>
        <time>2009-12-05T15:11:48Z</time>
      </trkpt>
      <trkpt lat="43.69316" lon="6.97863">
        <ele>368.8029785</ele>
        <time>2009-12-05T15:11:54Z</time>
      </trkpt>
      <trkpt lat="43.69344" lon="6.97853">
        <ele>364.4769287</ele>
        <time>2009-12-05T15:11:59Z</time>
      </trkpt>
      <trkpt lat="43.69369" lon="6.9785">
        <ele>361.5931396</ele>
        <time>2009-12-05T15:12:03Z</time>
      </trkpt>
      <trkpt lat="43.69381" lon="6.97849">
        <ele>359.6704102</ele>
        <time>2009-12-05T15:12:05Z</time>
      </trkpt>
      <trkpt lat="43.69399" lon="6.97855">
        <ele>357.7478027</ele>
        <time>2009-12-05T15:12:08Z</time>
      </trkpt>
      <trkpt lat="43.69416" lon="6.97865">
        <ele>356.786377</ele>
        <time>2009-12-05T15:12:11Z</time>
      </trkpt>
      <trkpt lat="43.69438" lon="6.97868">
        <ele>354.8637695</ele>
        <time>2009-12-05T15:12:15Z</time>
      </trkpt>
      <trkpt lat="43.69449" lon="6.97864">
        <ele>354.3831787</ele>
        <time>2009-12-05T15:12:17Z</time>
      </trkpt>
      <trkpt lat="43.6947" lon="6.97856">
        <ele>351.0184326</ele>
        <time>2009-12-05T15:12:21Z</time>
      </trkpt>
      <trkpt lat="43.69492" lon="6.97866">
        <ele>350.057251</ele>
        <time>2009-12-05T15:12:23Z</time>
      </trkpt>
      <trkpt lat="43.69467" lon="6.97862">
        <ele>349.5765381</ele>
        <time>2009-12-05T15:12:26Z</time>
      </trkpt>
      <trkpt lat="43.69457" lon="6.9788">
        <ele>348.1346436</ele>
        <time>2009-12-05T15:12:34Z</time>
      </trkpt>
      <trkpt lat="43.69421" lon="6.97886">
        <ele>349.5765381</ele>
        <time>2009-12-05T15:12:45Z</time>
      </trkpt>
      <trkpt lat="43.69368" lon="6.97896">
        <ele>351.9798584</ele>
        <time>2009-12-05T15:13:00Z</time>
      </trkpt>
      <trkpt lat="43.69319" lon="6.97932">
        <ele>353.9025879</ele>
        <time>2009-12-05T15:13:15Z</time>
      </trkpt>
      <trkpt lat="43.69263" lon="6.97955">
        <ele>356.786377</ele>
        <time>2009-12-05T15:13:31Z</time>
      </trkpt>
      <trkpt lat="43.69228" lon="6.97995">
        <ele>358.2283936</ele>
        <time>2009-12-05T15:13:44Z</time>
      </trkpt>
      <trkpt lat="43.6918" lon="6.98017">
        <ele>360.6317139</ele>
        <time>2009-12-05T15:13:58Z</time>
      </trkpt>
      <trkpt lat="43.69113" lon="6.97992">
        <ele>363.9963379</ele>
        <time>2009-12-05T15:14:18Z</time>
      </trkpt>
      <trkpt lat="43.6904" lon="6.97963">
        <ele>366.880249</ele>
        <time>2009-12-05T15:14:39Z</time>
      </trkpt>
      <trkpt lat="43.68962" lon="6.97952">
        <ele>369.7642822</ele>
        <time>2009-12-05T15:15:01Z</time>
      </trkpt>
      <trkpt lat="43.68896" lon="6.97938">
        <ele>372.6481934</ele>
        <time>2009-12-05T15:15:20Z</time>
      </trkpt>
      <trkpt lat="43.68817" lon="6.9789">
        <ele>375.5321045</ele>
        <time>2009-12-05T15:15:45Z</time>
      </trkpt>
      <trkpt lat="43.68748" lon="6.97888">
        <ele>378.4161377</ele>
        <time>2009-12-05T15:16:05Z</time>
      </trkpt>
      <trkpt lat="43.68681" lon="6.97885">
        <ele>381.3000488</ele>
        <time>2009-12-05T15:16:24Z</time>
      </trkpt>
      <trkpt lat="43.68609" lon="6.97843">
        <ele>384.184082</ele>
        <time>2009-12-05T15:16:46Z</time>
      </trkpt>
      <trkpt lat="43.6856" lon="6.97782">
        <ele>387.548584</ele>
        <time>2009-12-05T15:17:05Z</time>
      </trkpt>
      <trkpt lat="43.68507" lon="6.97726">
        <ele>389.9519043</ele>
        <time>2009-12-05T15:17:25Z</time>
      </trkpt>
      <trkpt lat="43.68459" lon="6.97682">
        <ele>392.3553467</ele>
        <time>2009-12-05T15:17:42Z</time>
      </trkpt>
      <trkpt lat="43.6841" lon="6.97626">
        <ele>395.2391357</ele>
        <time>2009-12-05T15:18:01Z</time>
      </trkpt>
      <trkpt lat="43.68353" lon="6.97585">
        <ele>398.1231689</ele>
        <time>2009-12-05T15:18:20Z</time>
      </trkpt>
      <trkpt lat="43.68301" lon="6.9752">
        <ele>401.487793</ele>
        <time>2009-12-05T15:18:41Z</time>
      </trkpt>
      <trkpt lat="43.68268" lon="6.97446">
        <ele>403.8911133</ele>
        <time>2009-12-05T15:18:59Z</time>
      </trkpt>
      <trkpt lat="43.68239" lon="6.97365">
        <ele>406.2943115</ele>
        <time>2009-12-05T15:19:19Z</time>
      </trkpt>
      <trkpt lat="43.6821" lon="6.97291">
        <ele>409.1783447</ele>
        <time>2009-12-05T15:19:37Z</time>
      </trkpt>
      <trkpt lat="43.68179" lon="6.972">
        <ele>412.5428467</ele>
        <time>2009-12-05T15:19:58Z</time>
      </trkpt>
      <trkpt lat="43.68147" lon="6.97174">
        <ele>413.9848633</ele>
        <time>2009-12-05T15:20:10Z</time>
      </trkpt>
      <trkpt lat="43.68107" lon="6.97192">
        <ele>415.4268799</ele>
        <time>2009-12-05T15:20:22Z</time>
      </trkpt>
      <trkpt lat="43.68092" lon="6.97194">
        <ele>416.3881836</ele>
        <time>2009-12-05T15:20:26Z</time>
      </trkpt>
      <trkpt lat="43.68055" lon="6.97162">
        <ele>416.3881836</ele>
        <time>2009-12-05T15:20:37Z</time>
      </trkpt>
      <trkpt lat="43.68022" lon="6.97154">
        <ele>414.946167</ele>
        <time>2009-12-05T15:20:44Z</time>
      </trkpt>
      <trkpt lat="43.68017" lon="6.9716">
        <ele>414.946167</ele>
        <time>2009-12-05T15:20:45Z</time>
      </trkpt>
      <trkpt lat="43.6795" lon="6.97259">
        <ele>411.1009521</ele>
        <time>2009-12-05T15:20:58Z</time>
      </trkpt>
      <trkpt lat="43.67933" lon="6.97282">
        <ele>410.6202393</ele>
        <time>2009-12-05T15:21:01Z</time>
      </trkpt>
      <trkpt lat="43.67897" lon="6.97301">
        <ele>410.1396484</ele>
        <time>2009-12-05T15:21:06Z</time>
      </trkpt>
      <trkpt lat="43.679" lon="6.97344">
        <ele>409.6590576</ele>
        <time>2009-12-05T15:21:11Z</time>
      </trkpt>
      <trkpt lat="43.67877" lon="6.97385">
        <ele>409.1783447</ele>
        <time>2009-12-05T15:21:16Z</time>
      </trkpt>
      <trkpt lat="43.67864" lon="6.97393">
        <ele>408.6976318</ele>
        <time>2009-12-05T15:21:18Z</time>
      </trkpt>
      <trkpt lat="43.67763" lon="6.97522">
        <ele>407.2556152</ele>
        <time>2009-12-05T15:21:37Z</time>
      </trkpt>
      <trkpt lat="43.67736" lon="6.97569">
        <ele>406.2943115</ele>
        <time>2009-12-05T15:21:43Z</time>
      </trkpt>
      <trkpt lat="43.67714" lon="6.97686">
        <ele>404.8522949</ele>
        <time>2009-12-05T15:21:55Z</time>
      </trkpt>
      <trkpt lat="43.67732" lon="6.97742">
        <ele>404.3717041</ele>
        <time>2009-12-05T15:22:01Z</time>
      </trkpt>
      <trkpt lat="43.67765" lon="6.97804">
        <ele>402.4490967</ele>
        <time>2009-12-05T15:22:08Z</time>
      </trkpt>
      <trkpt lat="43.67771" lon="6.97848">
        <ele>401.0070801</ele>
        <time>2009-12-05T15:22:12Z</time>
      </trkpt>
      <trkpt lat="43.6777" lon="6.97886">
        <ele>400.0458984</ele>
        <time>2009-12-05T15:22:15Z</time>
      </trkpt>
      <trkpt lat="43.67767" lon="6.97952">
        <ele>398.1231689</ele>
        <time>2009-12-05T15:22:20Z</time>
      </trkpt>
      <trkpt lat="43.67731" lon="6.9806">
        <ele>395.2391357</ele>
        <time>2009-12-05T15:22:29Z</time>
      </trkpt>
      <trkpt lat="43.67703" lon="6.9813">
        <ele>392.8359375</ele>
        <time>2009-12-05T15:22:35Z</time>
      </trkpt>
      <trkpt lat="43.67676" lon="6.98202">
        <ele>390.913208</ele>
        <time>2009-12-05T15:22:41Z</time>
      </trkpt>
      <trkpt lat="43.6766" lon="6.98267">
        <ele>389.4711914</ele>
        <time>2009-12-05T15:22:46Z</time>
      </trkpt>
      <trkpt lat="43.67623" lon="6.9837">
        <ele>386.1066895</ele>
        <time>2009-12-05T15:22:54Z</time>
      </trkpt>
      <trkpt lat="43.6755" lon="6.98467">
        <ele>382.7420654</ele>
        <time>2009-12-05T15:23:04Z</time>
      </trkpt>
      <trkpt lat="43.67529" lon="6.98538">
        <ele>380.3387451</ele>
        <time>2009-12-05T15:23:10Z</time>
      </trkpt>
      <trkpt lat="43.67524" lon="6.98663">
        <ele>376.4935303</ele>
        <time>2009-12-05T15:23:20Z</time>
      </trkpt>
      <trkpt lat="43.67504" lon="6.98736">
        <ele>374.5708008</ele>
        <time>2009-12-05T15:23:26Z</time>
      </trkpt>
      <trkpt lat="43.67453" lon="6.98827">
        <ele>371.2062988</ele>
        <time>2009-12-05T15:23:35Z</time>
      </trkpt>
      <trkpt lat="43.67406" lon="6.98894">
        <ele>369.7642822</ele>
        <time>2009-12-05T15:23:42Z</time>
      </trkpt>
      <trkpt lat="43.67391" lon="6.9894">
        <ele>368.8029785</ele>
        <time>2009-12-05T15:23:46Z</time>
      </trkpt>
      <trkpt lat="43.67381" lon="6.98991">
        <ele>366.880249</ele>
        <time>2009-12-05T15:23:50Z</time>
      </trkpt>
      <trkpt lat="43.67344" lon="6.99087">
        <ele>363.5157471</ele>
        <time>2009-12-05T15:23:59Z</time>
      </trkpt>
      <trkpt lat="43.67333" lon="6.99106">
        <ele>362.5543213</ele>
        <time>2009-12-05T15:24:01Z</time>
      </trkpt>
      <trkpt lat="43.67291" lon="6.99185">
        <ele>360.6317139</ele>
        <time>2009-12-05T15:24:09Z</time>
      </trkpt>
      <trkpt lat="43.67288" lon="6.99262">
        <ele>358.7089844</ele>
        <time>2009-12-05T15:24:15Z</time>
      </trkpt>
      <trkpt lat="43.67313" lon="6.9939">
        <ele>355.3444824</ele>
        <time>2009-12-05T15:24:25Z</time>
      </trkpt>
      <trkpt lat="43.67323" lon="6.99481">
        <ele>352.4605713</ele>
        <time>2009-12-05T15:24:33Z</time>
      </trkpt>
      <trkpt lat="43.67323" lon="6.99544">
        <ele>351.4991455</ele>
        <time>2009-12-05T15:24:38Z</time>
      </trkpt>
      <trkpt lat="43.67314" lon="6.99661">
        <ele>346.692627</ele>
        <time>2009-12-05T15:24:47Z</time>
      </trkpt>
      <trkpt lat="43.67311" lon="6.9969">
        <ele>345.7313232</ele>
        <time>2009-12-05T15:24:49Z</time>
      </trkpt>
      <trkpt lat="43.67307" lon="6.99751">
        <ele>342.84729</ele>
        <time>2009-12-05T15:24:53Z</time>
      </trkpt>
      <trkpt lat="43.67306" lon="6.99814">
        <ele>339.9633789</ele>
        <time>2009-12-05T15:24:57Z</time>
      </trkpt>
      <trkpt lat="43.67315" lon="6.99892">
        <ele>336.1181641</ele>
        <time>2009-12-05T15:25:02Z</time>
      </trkpt>
      <trkpt lat="43.67325" lon="6.99955">
        <ele>333.2341309</ele>
        <time>2009-12-05T15:25:06Z</time>
      </trkpt>
      <trkpt lat="43.67338" lon="7.00019">
        <ele>329.8695068</ele>
        <time>2009-12-05T15:25:10Z</time>
      </trkpt>
      <trkpt lat="43.67344" lon="7.00049">
        <ele>328.9083252</ele>
        <time>2009-12-05T15:25:12Z</time>
      </trkpt>
      <trkpt lat="43.67353" lon="7.0011">
        <ele>325.0629883</ele>
        <time>2009-12-05T15:25:16Z</time>
      </trkpt>
      <trkpt lat="43.67354" lon="7.00125">
        <ele>325.0629883</ele>
        <time>2009-12-05T15:25:17Z</time>
      </trkpt>
      <trkpt lat="43.6735" lon="7.002">
        <ele>321.2177734</ele>
        <time>2009-12-05T15:25:22Z</time>
      </trkpt>
      <trkpt lat="43.67341" lon="7.00258">
        <ele>319.2950439</ele>
        <time>2009-12-05T15:25:26Z</time>
      </trkpt>
      <trkpt lat="43.67338" lon="7.00301">
        <ele>319.2950439</ele>
        <time>2009-12-05T15:25:29Z</time>
      </trkpt>
      <trkpt lat="43.67353" lon="7.00391">
        <ele>318.3336182</ele>
        <time>2009-12-05T15:25:36Z</time>
      </trkpt>
      <trkpt lat="43.67392" lon="7.00468">
        <ele>314.4884033</ele>
        <time>2009-12-05T15:25:43Z</time>
      </trkpt>
      <trkpt lat="43.6741" lon="7.005">
        <ele>313.0465088</ele>
        <time>2009-12-05T15:25:46Z</time>
      </trkpt>
      <trkpt lat="43.67418" lon="7.00523">
        <ele>312.0852051</ele>
        <time>2009-12-05T15:25:48Z</time>
      </trkpt>
      <trkpt lat="43.67419" lon="7.00543">
        <ele>309.6818848</ele>
        <time>2009-12-05T15:25:50Z</time>
      </trkpt>
      <trkpt lat="43.67419" lon="7.00556">
        <ele>308.720459</ele>
        <time>2009-12-05T15:25:52Z</time>
      </trkpt>
      <trkpt lat="43.67417" lon="7.00581">
        <ele>308.2398682</ele>
        <time>2009-12-05T15:25:56Z</time>
      </trkpt>
      <trkpt lat="43.67451" lon="7.00626">
        <ele>308.720459</ele>
        <time>2009-12-05T15:26:02Z</time>
      </trkpt>
      <trkpt lat="43.67471" lon="7.00631">
        <ele>309.2011719</ele>
        <time>2009-12-05T15:26:07Z</time>
      </trkpt>
      <trkpt lat="43.67474" lon="7.00628">
        <ele>309.6818848</ele>
        <time>2009-12-05T15:26:09Z</time>
      </trkpt>
      <trkpt lat="43.67498" lon="7.00661">
        <ele>310.6430664</ele>
        <time>2009-12-05T15:26:17Z</time>
      </trkpt>
      <trkpt lat="43.675" lon="7.00679">
        <ele>310.6430664</ele>
        <time>2009-12-05T15:26:20Z</time>
      </trkpt>
      <trkpt lat="43.67537" lon="7.00759">
        <ele>312.0852051</ele>
        <time>2009-12-05T15:26:35Z</time>
      </trkpt>
      <trkpt lat="43.67567" lon="7.00826">
        <ele>312.5657959</ele>
        <time>2009-12-05T15:26:47Z</time>
      </trkpt>
      <trkpt lat="43.67579" lon="7.00838">
        <ele>313.0465088</ele>
        <time>2009-12-05T15:26:50Z</time>
      </trkpt>
      <trkpt lat="43.67595" lon="7.0084">
        <ele>313.5272217</ele>
        <time>2009-12-05T15:26:54Z</time>
      </trkpt>
      <trkpt lat="43.67634" lon="7.00893">
        <ele>313.0465088</ele>
        <time>2009-12-05T15:27:06Z</time>
      </trkpt>
      <trkpt lat="43.67672" lon="7.00931">
        <ele>311.6044922</ele>
        <time>2009-12-05T15:27:15Z</time>
      </trkpt>
      <trkpt lat="43.67697" lon="7.00952">
        <ele>308.720459</ele>
        <time>2009-12-05T15:27:20Z</time>
      </trkpt>
      <trkpt lat="43.67726" lon="7.01032">
        <ele>305.355957</ele>
        <time>2009-12-05T15:27:31Z</time>
      </trkpt>
      <trkpt lat="43.67728" lon="7.01039">
        <ele>303.9139404</ele>
        <time>2009-12-05T15:27:32Z</time>
      </trkpt>
      <trkpt lat="43.67729" lon="7.01084">
        <ele>299.1072998</ele>
        <time>2009-12-05T15:27:36Z</time>
      </trkpt>
      <trkpt lat="43.67728" lon="7.01107">
        <ele>296.2235107</ele>
        <time>2009-12-05T15:27:38Z</time>
      </trkpt>
      <trkpt lat="43.67727" lon="7.01126">
        <ele>293.3393555</ele>
        <time>2009-12-05T15:27:40Z</time>
      </trkpt>
      <trkpt lat="43.67726" lon="7.01129">
        <ele>292.3781738</ele>
        <time>2009-12-05T15:27:42Z</time>
      </trkpt>
      <trkpt lat="43.67746" lon="7.01167">
        <ele>289.0135498</ele>
        <time>2009-12-05T15:27:45Z</time>
      </trkpt>
      <trkpt lat="43.67761" lon="7.0119">
        <ele>285.1682129</ele>
        <time>2009-12-05T15:27:48Z</time>
      </trkpt>
      <trkpt lat="43.67759" lon="7.01237">
        <ele>282.7650146</ele>
        <time>2009-12-05T15:27:53Z</time>
      </trkpt>
      <trkpt lat="43.67764" lon="7.01306">
        <ele>281.322998</ele>
        <time>2009-12-05T15:28:00Z</time>
      </trkpt>
      <trkpt lat="43.67765" lon="7.01362">
        <ele>280.3616943</ele>
        <time>2009-12-05T15:28:06Z</time>
      </trkpt>
      <trkpt lat="43.67773" lon="7.01463">
        <ele>277.4776611</ele>
        <time>2009-12-05T15:28:17Z</time>
      </trkpt>
      <trkpt lat="43.67799" lon="7.01482">
        <ele>276.9970703</ele>
        <time>2009-12-05T15:28:22Z</time>
      </trkpt>
      <trkpt lat="43.67817" lon="7.01505">
        <ele>277.4776611</ele>
        <time>2009-12-05T15:28:26Z</time>
      </trkpt>
      <trkpt lat="43.67826" lon="7.01512">
        <ele>277.958252</ele>
        <time>2009-12-05T15:28:28Z</time>
      </trkpt>
      <trkpt lat="43.6783" lon="7.0159">
        <ele>276.0356445</ele>
        <time>2009-12-05T15:28:37Z</time>
      </trkpt>
      <trkpt lat="43.6783" lon="7.01628">
        <ele>275.0744629</ele>
        <time>2009-12-05T15:28:41Z</time>
      </trkpt>
      <trkpt lat="43.67822" lon="7.01673">
        <ele>274.1130371</ele>
        <time>2009-12-05T15:28:46Z</time>
      </trkpt>
      <trkpt lat="43.67833" lon="7.01789">
        <ele>270.7484131</ele>
        <time>2009-12-05T15:28:58Z</time>
      </trkpt>
      <trkpt lat="43.67842" lon="7.01825">
        <ele>269.7871094</ele>
        <time>2009-12-05T15:29:02Z</time>
      </trkpt>
      <trkpt lat="43.67851" lon="7.01849">
        <ele>269.3065186</ele>
        <time>2009-12-05T15:29:05Z</time>
      </trkpt>
      <trkpt lat="43.67861" lon="7.01874">
        <ele>268.3450928</ele>
        <time>2009-12-05T15:29:08Z</time>
      </trkpt>
      <trkpt lat="43.67885" lon="7.01929">
        <ele>266.9031982</ele>
        <time>2009-12-05T15:29:15Z</time>
      </trkpt>
      <trkpt lat="43.67903" lon="7.01932">
        <ele>266.9031982</ele>
        <time>2009-12-05T15:29:22Z</time>
      </trkpt>
      <trkpt lat="43.67924" lon="7.0191">
        <ele>270.2677002</ele>
        <time>2009-12-05T15:29:33Z</time>
      </trkpt>
      <trkpt lat="43.67949" lon="7.01907">
        <ele>273.6324463</ele>
        <time>2009-12-05T15:29:45Z</time>
      </trkpt>
      <trkpt lat="43.67963" lon="7.01913">
        <ele>274.1130371</ele>
        <time>2009-12-05T15:29:52Z</time>
      </trkpt>
      <trkpt lat="43.67972" lon="7.01909">
        <ele>274.59375</ele>
        <time>2009-12-05T15:29:57Z</time>
      </trkpt>
      <trkpt lat="43.67992" lon="7.01889">
        <ele>278.4389648</ele>
        <time>2009-12-05T15:30:09Z</time>
      </trkpt>
      <trkpt lat="43.68009" lon="7.01889">
        <ele>280.8424072</ele>
        <time>2009-12-05T15:30:17Z</time>
      </trkpt>
      <trkpt lat="43.68014" lon="7.01878">
        <ele>282.7650146</ele>
        <time>2009-12-05T15:30:25Z</time>
      </trkpt>
      <trkpt lat="43.68014" lon="7.01875">
        <ele>282.7650146</ele>
        <time>2009-12-05T15:30:47Z</time>
      </trkpt>
      <trkpt lat="43.68013" lon="7.01875">
        <ele>282.7650146</ele>
        <time>2009-12-05T15:30:55Z</time>
      </trkpt>
    </trkseg>
  </trk>
</gpx>